GFSSW_850_thetae_000.txt.gz
Theta_e
323 323 323 324 324 323 323 321 319 319 320 321 322 322 322 323 322 321 320 320 320 324 323 324 331 339 343 341 342 341 337 337 338 340 347 347 347 348 346 350 353 351 346 349 349
322 323 323 324 324 324 323 321 321 323 321 321 322 322 323 323 322 321 320 320 320 323 326 330 336 339 338 338 340 338 335 336 339 340 345 346 347 349 349 353 354 352 352 350 348
321 322 323 323 324 324 323 323 323 324 324 322 321 321 322 322 322 322 321 320 321 324 325 327 338 337 334 331 335 334 336 342 345 344 345 347 348 347 347 349 353 353 352 350 348
320 321 321 322 323 323 323 323 324 325 324 322 320 319 321 320 323 321 319 320 321 324 323 328 336 332 332 332 331 336 344 344 347 346 345 345 345 350 351 351 353 351 351 350 349
319 320 320 321 322 323 323 324 326 325 321 318 317 318 319 321 322 322 320 320 320 323 325 334 334 331 332 332 333 341 346 348 347 345 344 342 345 352 354 353 353 353 353 352 350
318 319 319 320 321 322 323 326 326 317 316 315 315 314 318 323 320 320 324 319 320 323 325 334 330 329 330 331 334 342 346 346 344 340 340 342 344 343 355 354 353 353 353 353 352
317 317 319 318 320 322 323 327 326 317 317 315 313 314 319 322 323 323 324 320 323 324 328 332 329 328 329 336 339 345 348 348 344 345 341 339 344 349 354 355 353 353 354 354 354
316 315 317 318 319 321 322 328 326 320 318 321 319 317 325 320 327 324 324 325 324 328 331 330 327 328 330 335 342 342 343 345 345 345 343 348 346 349 350 351 353 353 354 354 354
315 314 315 317 318 320 323 328 326 325 324 319 323 329 329 327 327 326 324 324 325 329 330 327 327 329 332 334 337 340 340 339 345 346 346 346 346 347 347 347 349 351 353 353 353
313 313 314 316 317 319 326 328 325 324 325 322 320 328 328 327 327 325 325 325 328 329 328 328 328 330 331 334 334 335 337 338 340 344 346 345 348 346 346 345 346 348 350 351 351
310 313 314 315 317 318 327 328 329 329 327 330 330 328 327 326 326 325 325 326 327 327 329 329 332 331 330 331 331 331 333 337 338 341 344 345 350 346 344 345 344 344 348 348 349
309 312 312 315 316 318 325 329 330 327 329 328 328 328 328 326 326 326 327 327 327 328 328 328 329 330 330 331 330 330 331 333 339 342 344 350 351 349 346 342 344 344 346 347 348
308 310 310 315 316 320 324 321 328 326 329 329 327 328 327 326 325 325 327 327 327 327 328 327 328 330 330 330 331 332 332 332 337 345 345 350 352 355 349 348 345 347 346 349 349
307 308 309 314 315 317 319 326 326 327 330 329 326 327 327 325 325 324 326 326 327 328 328 330 329 329 330 331 332 333 333 333 335 347 343 347 342 356 353 352 349 346 349 349 350
306 308 308 309 312 314 320 320 325 326 331 327 329 327 326 326 326 327 327 327 328 329 329 330 329 330 330 331 332 334 337 338 340 346 345 351 346 341 351 353 351 349 347 347 349
306 307 308 309 313 314 317 323 328 330 327 328 326 328 327 327 327 327 327 327 328 329 330 331 330 331 332 331 331 338 341 341 341 339 341 337 342 335 341 349 348 348 348 349 348
307 307 308 308 313 318 319 329 334 330 328 327 326 328 328 327 327 328 329 329 329 330 331 331 330 331 331 332 333 335 335 335 335 335 335 337 338 335 336 345 345 346 349 349 348
308 308 309 310 312 312 313 329 335 329 328 329 326 327 327 328 327 329 329 330 330 331 331 332 332 331 332 332 332 332 332 331 333 332 331 339 334 336 342 341 340 344 347 349 348
308 308 310 311 313 312 320 331 332 329 332 331 327 326 327 327 327 328 330 330 330 330 331 331 331 331 331 332 333 332 332 332 332 331 331 332 336 338 341 342 341 345 347 349 346
308 308 313 313 314 312 325 328 330 329 330 330 330 327 327 327 327 328 330 330 330 329 330 331 332 331 331 331 331 334 333 332 332 334 334 332 331 333 336 337 342 343 346 350 345
307 311 318 322 318 316 327 329 329 327 327 330 331 330 328 327 328 329 330 329 329 329 330 330 331 333 332 332 332 333 333 334 334 334 334 334 333 335 334 335 337 343 346 349 345
311 315 319 318 322 323 327 329 326 327 326 327 329 330 330 328 328 329 329 330 328 329 328 330 331 332 332 333 333 333 333 334 335 339 335 334 332 335 334 335 336 338 345 346 347
316 315 321 321 326 329 329 329 327 327 327 327 329 329 329 330 330 329 329 329 328 329 330 331 330 331 333 334 333 334 334 334 335 335 336 334 334 337 336 338 339 338 343 346 348
319 323 324 323 326 328 329 328 328 324 326 325 328 329 331 331 333 332 332 332 331 331 328 331 331 332 331 332 332 334 334 335 334 336 336 336 335 334 337 337 336 339 342 344 346
320 323 321 327 327 326 326 327 328 328 326 327 329 329 331 333 332 332 333 334 333 331 331 332 335 333 332 331 332 332 334 334 335 335 336 334 335 336 336 335 336 335 336 342 343
318 319 320 324 322 324 320 327 326 326 327 327 330 331 332 333 335 333 332 334 335 334 335 335 337 336 333 332 332 332 332 334 334 334 336 335 334 331 330 330 330 331 334 338 341
311 313 316 317 324 325 326 325 325 325 326 326 329 332 331 332 329 330 330 332 332 337 336 337 338 339 335 334 334 335 335 335 334 335 334 333 332 331 331 331 331 334 335 336 338

GFSSW_850_thetae_003.txt.gz
Theta_e
320 322 323 323 323 323 323 323 322 322 324 322 322 323 323 323 322 322 323 324 323 322 322 332 338 340 345 345 340 341 341 337 340 340 344 343 346 347 347 346 347 347 344 347 348
320 321 322 322 323 323 323 323 323 324 325 325 323 323 323 323 323 325 325 323 321 321 325 332 333 337 341 340 338 339 338 337 339 341 343 344 346 348 351 353 349 349 347 348 348
320 320 321 321 322 323 323 323 324 325 326 325 324 322 322 323 324 324 324 321 320 321 329 329 333 338 339 336 336 337 336 338 339 340 341 342 342 343 343 354 350 350 348 348 348
319 319 320 321 321 322 323 323 326 327 323 322 322 321 321 322 328 329 322 321 320 321 329 327 333 338 337 335 334 338 338 340 339 339 342 341 342 346 352 352 351 348 347 347 348
318 318 319 320 320 322 323 323 327 324 315 316 317 317 319 325 325 325 320 320 321 323 328 328 335 336 335 335 333 340 341 340 340 341 340 340 345 351 352 350 349 348 348 347 347
318 317 317 318 320 321 322 322 326 325 316 316 315 314 319 328 325 327 324 320 323 327 326 330 337 334 334 334 337 339 341 340 340 339 339 343 344 350 352 350 350 350 350 350 348
317 316 316 317 319 320 321 322 327 326 319 320 314 314 324 326 327 329 329 321 324 325 326 333 333 331 333 334 336 339 341 340 340 340 339 339 343 350 353 351 352 352 352 352 352
314 315 316 316 317 319 321 322 327 326 323 319 318 316 331 324 328 328 329 322 325 325 327 334 330 330 333 334 339 339 339 342 342 340 341 341 348 349 350 352 352 353 353 353 353
311 313 314 315 315 319 320 323 328 325 326 322 325 333 335 325 330 327 326 323 324 326 332 332 329 331 333 336 340 339 340 341 342 340 345 342 347 347 346 347 349 350 351 350 350
310 311 313 314 314 319 318 325 328 325 324 324 320 332 331 328 328 325 324 324 325 329 332 329 330 333 334 335 338 339 340 340 342 341 340 343 344 347 345 344 347 348 348 348 349
308 309 311 313 314 317 318 326 334 335 333 330 332 328 327 328 327 326 325 325 326 330 332 331 332 332 333 334 335 337 336 339 338 340 340 341 344 347 346 344 344 346 347 347 347
307 308 310 311 314 316 318 328 330 330 330 327 328 330 328 328 326 325 325 326 328 330 330 333 333 332 332 332 333 332 333 337 337 339 339 341 346 344 345 345 343 343 345 344 345
307 308 309 311 314 318 323 326 325 328 331 329 327 329 330 327 326 326 325 326 329 329 329 331 332 333 332 332 332 332 332 333 336 337 337 343 344 347 344 343 343 342 343 343 344
306 307 308 311 314 321 320 327 327 328 333 330 329 328 328 327 328 326 325 326 328 329 329 330 330 330 331 331 332 332 332 333 333 337 340 338 341 349 349 344 342 343 343 343 343
306 306 308 307 311 314 321 321 324 328 333 330 329 327 329 326 327 327 326 327 329 329 330 329 330 331 331 331 332 334 333 333 333 335 337 340 341 348 342 350 346 342 343 344 344
306 306 307 310 313 315 317 319 328 332 330 329 329 330 330 327 327 327 326 327 328 329 329 331 332 332 332 332 332 335 336 335 336 336 338 341 343 340 350 352 350 345 341 342 344
307 307 307 307 312 318 321 324 335 333 329 329 329 330 329 327 329 328 327 329 330 331 330 332 332 332 332 332 333 334 334 336 337 338 339 337 336 340 336 340 339 344 344 343 342
307 308 309 310 311 311 317 325 334 332 330 330 328 329 328 328 329 328 328 329 331 332 332 333 332 332 332 333 333 333 334 336 337 337 336 336 336 334 333 336 340 341 342 344 345
306 310 316 315 312 311 320 326 331 332 330 329 328 328 328 329 329 330 329 330 331 332 333 333 333 332 332 333 333 334 333 334 333 334 335 335 335 334 338 337 339 339 341 346 346
306 311 315 318 314 313 324 325 330 331 332 332 333 328 329 329 328 330 331 331 331 332 333 334 334 333 332 332 333 334 333 333 333 334 337 335 334 334 338 336 336 338 340 343 347
309 317 319 320 321 318 325 328 330 330 329 331 332 331 328 329 329 330 332 332 332 332 332 332 333 333 333 332 333 333 334 335 335 337 337 336 336 336 335 334 335 336 337 342 346
314 319 322 322 322 324 325 327 328 330 328 330 331 333 331 329 330 329 330 332 331 332 331 331 332 333 333 333 332 333 333 334 336 338 336 336 336 335 334 334 335 335 337 340 347
317 318 320 322 323 326 326 326 328 330 330 330 331 332 332 330 330 330 330 331 330 331 331 331 331 332 333 334 332 332 333 334 335 335 341 340 338 337 335 336 336 336 335 340 345
318 323 318 323 322 328 329 327 330 329 329 329 330 332 332 332 331 330 330 331 330 330 328 331 331 331 331 333 334 333 332 333 334 337 337 339 337 339 337 338 337 336 337 338 343
320 324 327 327 325 328 331 330 329 330 328 328 330 330 333 334 332 332 331 332 332 330 331 331 333 333 332 331 333 333 333 332 334 335 336 336 336 337 336 335 335 333 333 336 341
316 320 322 325 328 329 324 331 329 329 330 329 330 330 332 336 338 334 334 334 334 334 333 333 334 334 333 333 331 332 333 333 333 334 334 334 335 336 334 333 332 332 332 332 335
312 315 317 323 325 327 327 328 329 329 328 328 331 332 332 335 333 333 333 335 337 337 336 337 335 336 336 334 333 333 332 333 333 334 334 335 335 336 335 333 332 333 333 333 333

GFSSW_850_thetae_006.txt.gz
Theta_e
320 320 320 321 322 323 323 323 323 323 323 324 324 323 323 323 323 322 321 324 325 324 323 326 333 337 339 342 345 348 344 342 341 343 345 344 344 342 342 345 346 347 346 348 347
320 319 320 320 321 322 323 323 323 324 326 325 325 325 323 323 324 323 321 324 324 323 323 329 332 334 338 341 340 339 339 340 340 341 345 340 343 345 346 347 346 344 347 347 347
319 319 319 319 320 321 322 323 323 325 327 320 322 324 323 322 323 324 324 323 323 322 324 330 332 335 339 339 338 337 337 338 341 342 344 340 348 345 350 348 347 346 347 347 348
319 319 319 319 319 320 322 322 322 325 325 315 316 321 322 322 329 326 325 323 322 321 325 331 330 335 340 337 336 338 340 339 339 342 341 342 346 345 341 346 349 345 347 347 347
318 319 319 319 319 319 321 322 322 324 327 317 316 315 319 322 325 328 324 323 322 321 327 330 329 337 339 335 334 339 340 339 341 341 341 343 346 347 341 348 346 345 346 347 347
316 317 318 318 319 319 320 322 322 324 327 319 320 314 317 327 326 327 323 321 323 322 328 329 331 337 336 335 335 339 339 338 339 338 341 343 346 347 349 348 347 346 347 347 347
313 315 316 317 318 319 319 321 321 324 327 321 321 313 325 324 327 328 326 321 324 326 328 328 333 336 334 334 339 339 339 340 338 341 341 340 346 349 349 349 349 349 349 348 348
311 312 314 315 317 319 319 320 321 324 327 323 320 314 328 328 326 329 327 323 323 326 327 328 335 333 334 335 337 339 340 340 341 342 340 342 350 349 348 350 351 350 350 350 350
309 310 311 313 314 318 319 320 322 324 327 325 321 332 333 325 325 330 328 324 323 326 327 329 335 332 333 335 340 339 340 342 343 341 341 342 347 348 348 347 347 349 349 350 351
308 309 310 311 312 316 320 320 323 329 327 323 323 331 333 333 326 329 328 324 326 326 327 333 334 333 333 336 340 339 341 343 344 342 344 344 346 347 345 346 347 347 347 348 349
307 308 309 310 311 314 320 320 331 337 333 332 330 328 331 331 329 326 327 324 325 326 331 334 333 332 333 335 337 339 339 342 341 344 346 344 345 346 343 344 347 347 346 346 345
306 307 308 310 311 313 317 317 327 328 330 329 331 331 330 328 328 326 325 326 326 329 331 333 332 333 334 335 335 336 336 337 340 340 342 346 346 346 344 343 345 347 347 346 346
306 307 308 309 311 316 325 325 326 326 330 329 329 328 330 329 329 326 326 326 327 329 331 332 332 333 333 333 333 335 333 334 339 339 339 339 347 345 344 343 343 344 346 346 345
306 306 307 309 312 320 322 324 328 327 331 329 329 329 329 329 329 326 326 327 328 330 331 331 333 333 333 332 332 333 333 333 334 337 338 339 342 348 346 344 344 343 343 345 344
306 306 307 306 309 313 319 320 323 327 331 330 329 328 329 330 328 327 326 326 330 330 330 330 331 332 333 333 333 332 333 332 333 333 334 336 339 348 346 345 343 342 342 343 344
306 306 307 307 311 315 317 321 322 332 330 330 330 329 330 330 328 328 327 326 328 330 330 331 330 331 331 332 332 332 335 334 333 333 336 335 340 345 347 351 344 342 341 342 343
305 306 306 307 311 316 317 321 329 333 329 329 330 330 330 330 328 330 328 327 328 330 329 330 330 332 332 332 333 333 335 338 337 337 337 336 338 345 345 343 346 347 341 342 343
306 307 308 309 311 311 313 322 331 332 331 330 330 330 330 330 328 329 328 327 329 329 329 330 330 332 332 332 333 333 335 336 342 339 338 339 341 344 340 343 345 347 346 342 341
306 308 313 316 314 313 318 326 329 330 332 330 331 329 330 330 328 329 328 327 329 330 332 331 333 333 332 333 334 334 335 334 336 335 335 337 338 336 336 336 334 337 336 344 342
305 307 311 316 319 318 319 323 327 327 330 332 332 331 329 329 328 330 329 329 329 331 332 333 335 333 332 333 333 334 334 334 334 339 339 336 336 337 343 338 336 335 335 339 344
309 320 319 317 321 318 320 323 326 326 328 332 333 334 329 329 329 330 330 329 330 331 333 333 335 334 333 332 332 333 334 334 334 335 337 338 338 341 344 340 336 335 335 336 337
313 319 320 322 324 321 321 324 325 326 329 331 331 332 333 333 330 329 331 331 330 332 332 333 333 335 334 334 333 333 334 336 337 340 339 341 337 337 337 335 334 335 335 337 340
314 318 320 323 324 323 323 324 325 326 329 331 330 331 333 334 332 330 330 331 332 332 334 333 334 334 335 334 333 333 334 333 334 335 343 339 340 340 336 336 335 335 336 338 339
315 320 319 322 322 324 324 326 326 325 328 330 330 330 330 333 333 332 331 331 332 332 331 334 332 335 332 335 335 335 333 332 333 338 337 338 342 339 338 339 340 337 337 337 341
318 321 324 327 323 324 325 328 330 327 328 330 330 331 332 334 333 332 331 331 331 331 332 333 339 333 331 331 332 333 334 333 333 336 337 339 341 341 339 339 336 335 334 334 336
317 316 318 320 324 330 323 328 332 329 329 330 330 330 331 334 338 340 338 338 333 332 331 332 336 332 332 332 331 332 332 334 334 333 333 334 339 339 338 335 334 334 333 333 333
313 311 315 320 324 327 329 330 331 331 329 330 330 332 332 334 335 336 334 335 336 337 335 337 333 338 335 333 333 334 333 332 334 335 334 338 339 340 339 336 334 334 334 334 334

GFSSW_850_thetae_009.txt.gz
Theta_e
320 321 320 320 320 321 322 323 323 323 324 325 324 323 324 323 323 323 322 320 323 324 325 323 328 333 338 341 345 344 346 346 347 345 341 342 341 344 345 346 347 347 349 349 355
320 320 321 321 320 321 321 322 323 323 324 327 321 319 323 324 323 323 320 320 322 323 323 323 328 331 333 337 340 347 346 340 342 342 343 346 347 348 346 347 347 347 347 351 352
319 320 320 320 320 321 321 321 322 323 323 327 318 316 320 323 322 322 323 320 322 323 323 323 328 329 332 334 338 347 344 343 342 341 345 347 347 344 348 346 347 347 346 349 351
318 318 319 319 320 320 321 320 321 322 322 327 321 318 316 321 326 326 326 321 321 323 321 324 330 331 329 333 337 338 341 343 343 343 345 343 344 340 343 346 347 347 347 347 349
316 317 317 317 319 320 320 320 321 322 322 327 325 319 315 320 321 326 326 324 322 322 321 325 330 331 329 336 335 337 337 340 341 343 346 344 341 341 342 347 347 347 347 347 347
313 315 316 316 317 319 320 321 320 321 321 327 326 319 313 323 323 323 326 324 323 322 321 325 329 329 330 335 335 338 337 340 340 343 346 347 342 344 342 345 346 346 347 347 347
311 312 313 315 316 318 320 320 321 321 320 326 325 319 313 316 325 327 327 323 322 321 321 327 330 329 330 333 339 339 336 337 340 341 344 346 348 350 346 345 346 347 347 347 347
309 310 311 313 314 317 320 321 321 321 321 324 324 319 317 326 324 326 328 325 321 324 325 329 328 329 330 334 338 337 335 336 339 340 344 347 351 349 347 346 346 347 347 347 347
308 309 310 311 312 315 319 321 321 321 323 327 323 325 332 328 326 327 328 326 321 325 326 327 327 329 335 330 333 335 336 340 341 339 339 343 350 348 349 349 349 349 349 348 348
307 308 309 310 311 313 318 320 322 323 330 326 323 328 326 333 326 326 329 327 322 323 324 326 327 330 329 328 333 335 337 341 342 340 339 341 348 347 348 350 350 350 351 351 351
306 307 308 310 310 311 318 320 322 332 330 333 330 324 327 330 330 326 328 327 323 323 323 327 330 331 330 328 330 337 337 342 342 340 341 341 347 347 346 346 346 349 350 350 351
306 307 308 310 311 311 314 316 322 324 326 325 328 333 332 331 331 327 328 328 323 323 324 326 331 332 333 331 332 333 341 341 341 342 341 341 344 344 344 344 346 347 346 348 349
305 306 308 309 310 312 317 322 322 323 325 326 328 329 328 330 330 328 327 326 322 323 324 326 332 334 333 330 332 331 332 337 342 344 342 344 346 347 344 343 345 347 346 346 347
305 306 307 309 311 314 318 317 319 322 323 326 328 328 328 329 328 328 326 326 325 323 325 327 331 332 331 330 331 329 332 332 333 343 343 343 348 346 343 341 344 347 346 346 348
304 305 306 305 308 311 315 317 320 323 331 330 329 327 327 328 329 328 325 326 324 325 325 329 330 330 330 331 331 329 331 331 330 331 334 338 333 344 341 341 342 343 347 346 346
304 305 305 306 308 313 317 319 322 324 334 330 328 327 328 328 329 329 326 326 327 326 327 328 330 329 330 331 331 332 330 331 328 327 328 330 332 344 344 343 341 342 344 346 346
304 305 305 306 311 311 311 316 324 327 329 330 327 328 327 328 329 328 325 324 324 323 326 328 328 328 329 328 329 330 328 332 331 330 329 328 330 339 343 342 340 341 342 343 345
304 306 307 308 310 309 310 318 326 328 327 328 328 328 327 328 328 328 326 325 324 324 326 327 327 327 328 326 326 327 328 333 337 335 334 333 335 338 343 343 343 342 341 341 343
304 306 307 312 311 311 316 319 323 326 328 328 329 330 327 329 328 326 326 325 324 324 324 326 328 329 329 330 328 329 330 329 331 334 332 335 337 339 340 340 343 343 341 340 341
304 306 311 312 312 314 318 318 322 323 325 326 326 328 331 328 328 325 326 327 326 326 326 326 328 328 330 329 329 328 330 330 327 333 336 334 340 338 336 336 335 343 340 341 340
306 316 316 316 316 318 317 318 321 322 323 324 325 326 329 332 328 326 326 328 327 326 326 326 326 329 329 328 328 331 330 330 329 329 331 336 338 340 338 335 333 331 340 342 342
311 316 318 317 321 322 320 318 319 322 323 324 325 326 330 332 333 327 326 327 328 326 326 327 327 331 329 330 330 329 328 330 333 333 334 335 338 336 336 334 335 337 337 336 340
310 313 313 320 323 323 322 319 319 321 322 324 325 326 329 330 332 333 329 329 329 327 326 328 329 329 334 330 329 329 329 329 333 329 331 338 337 337 333 332 335 335 337 336 335
312 320 321 317 321 323 323 324 323 323 323 324 325 329 330 329 329 331 333 332 330 328 329 331 328 331 330 333 330 330 330 330 327 328 329 333 339 337 335 339 338 337 336 338 338
315 320 318 321 320 319 323 326 323 325 326 326 325 330 330 331 331 332 334 337 331 331 333 330 330 331 330 331 330 332 332 330 329 328 332 335 339 335 334 335 336 335 334 334 338
317 314 313 312 317 323 325 327 329 324 329 332 330 330 330 333 336 338 336 337 339 331 330 330 334 333 333 332 330 330 331 333 333 330 330 330 337 335 336 336 336 335 334 334 334
311 314 311 312 315 318 323 322 327 325 330 330 331 331 331 334 332 332 333 333 332 337 334 331 334 332 331 332 331 331 333 332 332 332 331 331 335 336 336 336 337 335 334 334 333

GFSSW_850_thetae_012.txt.gz
Theta_e
319 319 319 320 320 320 321 321 322 322 322 323 325 324 317 320 322 323 321 320 320 321 322 324 323 330 334 341 340 343 341 344 343 343 341 341 345 346 349 353 351 351 351 352 354
319 319 319 319 320 320 320 321 321 322 322 322 325 325 317 317 321 322 320 320 320 323 324 323 323 329 330 336 341 344 344 344 341 341 343 343 345 346 348 350 349 349 352 354 354
318 319 319 319 319 320 320 320 321 321 322 322 325 326 319 316 321 321 325 321 320 321 323 323 323 324 327 331 336 344 345 341 341 342 346 346 346 346 347 348 348 350 354 354 354
316 317 318 318 319 319 320 320 320 321 321 321 324 326 320 317 318 326 325 322 320 322 323 322 322 327 327 327 333 340 341 341 342 344 345 343 343 342 346 347 347 351 354 354 353
313 314 316 317 318 318 319 320 320 320 321 321 322 326 320 318 318 324 324 323 320 322 322 322 323 329 328 328 337 340 340 343 345 344 344 343 340 342 345 347 346 351 352 353 351
310 311 312 314 316 317 318 319 320 320 320 321 321 325 318 317 320 322 324 325 322 322 322 321 325 330 329 327 331 341 341 342 345 344 342 339 340 344 347 347 346 346 349 351 351
308 309 310 311 313 315 318 319 319 320 320 320 321 324 318 322 320 325 325 326 323 321 321 321 323 326 328 325 333 340 340 343 345 346 345 345 347 345 346 347 346 346 347 347 348
308 308 309 310 311 313 316 319 320 320 321 321 322 324 320 323 321 327 326 326 322 322 322 321 323 326 327 328 331 335 336 339 340 346 346 347 352 345 346 346 346 347 346 347 346
307 308 309 310 310 312 316 317 320 321 321 324 325 323 323 325 326 326 327 326 324 321 321 323 325 326 326 328 326 330 333 340 341 341 344 345 350 345 345 346 346 346 346 346 346
307 307 308 310 310 311 315 316 320 321 329 328 323 325 323 327 329 326 327 327 325 321 323 323 323 323 324 325 328 333 337 341 341 339 342 347 348 346 345 345 345 346 346 346 347
306 307 308 309 310 310 314 315 319 326 323 326 327 327 327 328 329 327 328 328 326 321 319 322 321 322 324 326 327 331 338 339 339 338 346 348 348 348 347 346 346 346 346 347 347
305 306 307 309 310 311 312 312 318 319 320 321 323 325 326 326 330 331 327 325 321 318 319 320 322 324 329 330 330 328 336 340 339 338 338 347 349 347 347 348 348 348 349 348 348
305 306 306 309 310 312 313 315 316 316 318 321 323 325 325 327 330 329 327 325 319 319 320 320 322 328 331 331 331 329 337 339 339 339 339 346 346 346 346 347 346 348 349 349 350
304 305 305 308 310 311 312 315 314 319 318 322 323 324 325 326 327 328 329 326 320 319 320 321 324 327 331 331 330 326 330 338 341 342 344 341 349 344 344 343 341 344 348 349 350
304 304 305 304 308 310 310 314 319 322 326 326 326 326 323 327 327 328 329 327 322 321 320 322 324 325 328 331 329 328 328 328 340 341 337 344 344 346 340 341 340 341 344 346 348
303 303 304 306 307 310 313 315 320 320 328 329 328 324 325 326 327 327 326 326 326 322 321 321 326 326 327 329 328 329 328 325 324 324 333 339 340 334 344 341 339 338 344 344 347
303 304 304 304 309 309 308 310 319 322 324 327 324 325 323 325 326 325 323 321 322 321 321 323 324 325 328 326 326 327 322 324 327 326 325 321 342 341 341 341 339 338 344 345 346
303 304 306 307 309 308 308 312 322 324 322 324 324 325 325 324 324 326 322 322 320 321 320 322 324 325 325 325 325 323 322 324 329 331 328 326 329 329 337 341 339 339 345 345 346
304 306 308 311 309 308 315 313 317 320 324 325 323 324 326 325 326 325 321 322 322 319 321 320 323 325 325 326 324 325 325 324 327 329 329 329 331 334 336 339 338 339 344 344 345
304 305 309 313 309 309 311 312 315 319 320 321 322 323 324 323 323 324 324 322 323 321 318 320 322 323 325 325 324 324 324 327 322 329 331 329 333 334 340 339 338 338 339 340 344
304 308 311 317 312 314 310 310 314 316 317 321 321 322 322 322 323 324 326 324 324 324 318 319 321 323 327 324 325 327 326 324 324 324 327 328 333 331 334 339 339 340 340 339 341
304 306 315 313 316 314 314 314 316 315 316 317 319 321 321 323 323 324 324 324 325 325 322 319 318 322 323 324 325 324 325 324 326 327 327 328 332 332 332 334 338 340 342 341 339
304 308 309 315 314 315 316 319 319 318 317 316 318 320 321 322 322 325 328 327 325 325 324 321 318 323 323 323 325 326 326 325 323 322 327 329 330 331 330 329 332 334 339 341 341
307 310 317 317 317 317 316 319 321 323 319 319 319 320 321 321 324 326 327 329 328 326 327 325 318 321 324 324 325 326 326 326 325 325 326 328 334 335 332 332 332 335 339 340 339
311 314 312 312 312 309 313 319 324 323 323 325 322 324 327 323 328 335 333 333 332 327 330 322 320 324 324 326 328 328 328 326 325 325 328 326 333 332 333 333 333 336 336 337 339
314 313 313 311 309 313 313 321 320 321 324 325 329 330 328 327 333 333 331 331 332 328 326 320 322 323 325 327 328 328 328 329 329 328 329 330 332 330 333 334 333 335 335 337 338
306 309 312 310 310 314 316 316 316 317 326 328 328 329 328 327 326 328 330 329 329 329 329 321 324 323 325 327 328 330 329 329 331 333 330 331 330 331 333 331 332 332 333 333 333

GFSSW_850_thetae_015.txt.gz
Theta_e
318 318 319 319 319 320 320 320 320 320 321 321 321 324 324 321 319 320 321 321 320 320 321 323 324 325 334 340 341 344 336 341 340 340 342 345 349 351 352 351 346 350 348 348 350
317 317 318 318 318 319 319 320 320 320 320 321 321 323 325 321 318 318 320 320 320 320 321 323 323 327 334 338 341 341 340 341 338 338 341 342 349 350 347 350 350 350 348 350 350
314 315 316 317 317 317 318 319 320 320 319 320 321 321 325 322 319 319 323 321 320 320 323 324 322 325 326 331 341 342 343 340 340 341 341 344 346 348 350 349 350 351 349 351 351
311 312 313 314 315 317 317 318 319 319 320 319 320 320 324 322 316 325 324 325 320 320 322 324 323 323 326 327 330 343 340 340 341 344 343 343 346 347 348 347 348 347 350 353 353
309 310 310 311 313 314 316 317 318 319 320 320 319 320 322 319 320 320 321 322 320 320 322 324 323 327 327 325 330 335 338 340 341 344 344 343 341 346 346 348 349 351 352 353 352
308 309 310 310 311 312 314 316 316 318 320 320 320 319 321 316 321 319 322 323 320 320 323 324 322 326 328 326 331 339 339 341 343 342 341 341 343 346 347 349 352 354 353 353 353
307 308 309 310 310 311 313 315 315 317 319 320 320 319 320 324 321 321 322 324 323 320 322 323 323 325 326 325 330 340 341 343 342 341 337 343 345 347 346 350 353 354 354 352 352
308 308 309 310 310 311 312 314 315 318 319 320 321 321 323 325 321 322 324 325 324 323 322 321 321 322 325 327 336 338 338 347 344 343 342 345 350 346 346 348 350 351 352 352 352
306 308 309 310 310 311 312 313 315 318 319 321 325 325 326 324 324 324 326 326 324 322 324 323 322 324 324 324 329 331 346 342 346 343 344 345 347 345 346 345 345 346 349 350 350
306 307 307 309 310 310 312 313 315 318 329 326 323 326 325 325 327 328 326 327 326 321 323 323 322 319 320 321 327 340 340 344 346 346 343 346 346 344 346 345 345 345 346 346 346
306 306 307 308 309 311 312 313 317 322 318 318 321 323 323 326 326 327 329 326 325 320 318 320 319 320 320 324 325 329 336 344 344 341 346 346 346 345 345 345 344 345 345 345 346
305 306 307 308 308 310 311 312 316 314 313 317 319 320 322 323 325 328 328 325 321 317 317 318 318 320 321 325 326 327 336 340 338 341 345 345 348 344 343 344 344 345 345 345 346
304 305 306 307 308 310 311 310 312 311 313 318 321 322 322 324 326 326 328 328 319 316 317 316 319 322 326 329 330 327 329 336 337 340 343 346 348 347 345 344 344 344 345 345 346
303 304 305 307 309 309 311 310 312 312 316 319 321 322 322 324 326 326 327 328 320 320 317 318 320 324 328 329 329 330 327 333 338 340 344 345 352 344 345 346 345 346 345 346 346
303 303 303 303 305 308 309 311 312 318 323 321 323 325 324 324 325 324 326 327 321 319 318 319 321 322 326 329 329 329 326 328 337 338 341 343 343 343 343 344 346 345 346 347 347
303 303 304 304 305 308 310 310 315 318 325 325 326 324 324 324 325 325 327 327 326 319 319 319 322 322 322 324 328 328 326 322 323 331 340 344 341 338 344 346 344 343 342 347 348
303 304 304 304 306 306 307 308 317 319 321 324 323 322 322 323 323 324 321 320 322 322 318 320 320 322 326 326 325 324 321 323 328 336 339 331 341 340 339 343 343 342 340 345 348
303 304 306 306 306 306 306 309 318 320 320 320 321 321 324 324 323 324 320 322 319 319 318 317 320 320 322 324 324 322 321 322 324 326 330 324 340 341 337 338 343 342 340 342 345
303 305 306 308 308 307 308 309 314 318 322 323 320 323 322 322 323 324 320 321 322 317 320 318 319 322 322 323 323 324 322 321 321 323 326 325 328 328 334 332 339 341 338 340 343
303 305 307 315 311 306 307 308 311 316 319 319 320 321 322 321 321 320 322 321 321 318 317 318 320 319 323 323 322 323 321 324 320 326 330 326 330 329 331 336 336 338 336 340 343
303 304 308 315 309 310 306 306 310 313 314 318 320 320 321 320 320 321 321 322 322 321 319 315 318 320 323 321 323 324 321 321 320 321 325 327 327 326 330 333 336 336 338 340 343
303 301 312 310 311 308 309 309 313 314 315 314 316 316 317 320 319 319 320 321 324 322 318 316 317 320 320 321 322 320 322 321 324 323 322 324 326 328 330 333 336 336 338 340 341
305 305 308 312 310 312 313 317 317 316 315 316 315 316 317 319 318 319 321 322 325 324 321 316 315 318 319 320 322 323 322 321 319 320 326 328 329 329 328 330 337 337 338 340 342
306 308 314 314 312 312 313 316 320 321 318 317 315 316 318 318 317 318 323 324 328 323 325 321 313 321 322 321 321 325 324 323 323 323 323 325 328 334 329 329 330 337 338 339 339
309 311 310 310 311 308 310 314 320 320 319 321 321 322 322 324 323 325 326 328 330 329 330 320 318 316 321 322 323 324 325 324 325 324 327 327 328 331 328 328 330 337 339 339 340
309 309 310 311 309 308 311 315 316 316 316 323 321 323 325 324 326 328 328 327 329 327 325 318 319 320 321 321 322 323 324 325 325 323 326 324 330 327 330 330 331 334 336 337 338
305 306 308 311 308 310 313 313 315 314 316 317 327 326 327 325 326 327 326 327 327 328 327 318 321 317 323 322 323 325 325 325 326 327 327 329 327 328 330 329 330 333 336 337 337

GFSSW_850_thetae_018.txt.gz
Theta_e
315 316 317 317 317 318 318 318 318 319 320 320 320 321 321 323 323 321 320 320 320 320 326 323 323 325 334 336 340 343 334 338 341 344 344 349 351 349 351 349 348 349 348 348 347
313 314 315 316 316 316 317 318 318 318 319 319 320 321 321 322 323 321 320 319 319 320 321 321 321 324 331 337 341 338 335 337 336 337 343 346 350 351 349 348 349 349 347 348 348
309 310 311 314 315 316 316 317 317 318 318 319 319 320 321 321 323 320 322 320 319 320 320 321 323 326 327 333 339 341 340 339 338 339 345 344 349 347 347 350 349 348 347 348 349
308 308 309 310 312 314 315 316 317 317 317 318 319 319 320 320 319 320 324 323 323 320 321 324 322 324 325 327 335 340 341 340 339 341 343 346 347 347 349 347 348 344 346 348 350
308 308 308 308 309 311 312 314 315 317 318 318 318 319 319 320 322 322 320 320 321 321 321 323 323 325 327 326 328 334 336 339 343 341 343 345 344 347 348 347 346 345 347 348 348
308 308 309 309 309 310 311 312 314 316 318 319 318 318 317 317 322 320 320 321 321 321 320 323 322 326 328 326 331 335 338 341 342 342 341 342 344 347 347 346 349 347 348 347 347
308 308 309 309 310 310 310 311 312 315 318 319 319 318 317 321 323 324 321 322 322 320 320 323 322 325 326 325 327 340 342 341 340 340 340 343 345 345 347 346 350 350 350 349 349
307 307 308 308 309 310 311 311 312 314 318 319 319 320 320 324 328 323 321 323 324 320 322 323 323 321 324 326 337 339 339 343 342 337 341 343 347 345 349 349 352 352 351 351 349
306 307 307 308 309 310 311 312 313 315 317 321 322 322 325 327 324 326 322 324 323 323 321 322 321 321 324 328 335 333 343 343 346 340 340 344 345 345 351 351 353 353 353 353 352
306 306 306 307 308 310 311 312 313 317 325 327 325 326 325 326 325 326 327 325 324 322 322 322 321 318 318 326 340 340 344 341 346 343 343 345 345 345 347 350 351 352 352 352 352
305 306 306 307 307 308 310 313 315 319 318 322 321 322 325 324 324 326 326 326 324 321 317 318 318 318 321 321 331 334 342 344 342 343 344 345 345 346 344 345 346 346 348 351 350
304 304 305 307 308 308 310 309 314 312 310 316 317 317 320 321 322 326 326 325 320 316 316 317 317 318 321 323 328 336 339 343 340 340 344 345 346 343 344 344 344 344 344 346 349
303 303 305 307 307 308 307 310 311 309 310 315 318 318 320 320 321 324 325 326 319 317 315 316 319 319 323 325 326 329 338 335 343 342 343 345 347 344 344 344 344 344 344 344 345
302 303 304 306 307 307 309 308 308 308 314 317 319 321 321 321 322 322 325 327 318 318 315 316 318 321 323 326 326 326 326 335 339 343 346 342 345 344 343 344 342 344 343 344 344
302 303 303 303 303 306 306 307 308 315 320 320 321 323 323 322 322 324 325 326 319 318 316 318 318 321 324 326 326 328 326 330 337 341 342 346 342 340 343 345 344 342 342 343 344
302 302 303 304 304 306 307 306 313 317 323 322 324 323 323 323 322 324 326 327 326 319 317 319 320 319 320 325 327 325 322 322 324 332 340 342 344 340 344 347 345 344 344 344 344
302 302 303 303 305 306 305 306 313 317 319 321 322 320 320 322 322 322 321 321 321 320 317 318 318 321 322 324 324 321 322 323 331 335 338 333 343 342 336 341 343 343 344 345 345
302 303 304 305 306 306 305 306 315 317 318 318 319 320 320 321 321 323 321 321 319 319 316 315 318 318 320 322 322 322 322 323 326 329 335 331 344 343 339 337 340 342 342 344 344
302 303 305 306 313 306 306 305 310 315 320 321 319 321 320 321 321 322 320 320 319 316 320 316 317 319 320 322 322 321 322 320 319 321 323 325 326 328 328 330 334 337 342 343 343
301 303 306 311 313 306 302 304 307 314 318 318 319 319 320 320 320 320 320 320 320 317 317 317 319 318 321 322 321 321 319 323 317 324 327 325 326 328 330 331 330 332 339 341 341
301 303 305 312 307 307 302 303 306 312 314 315 318 318 319 319 320 319 320 320 321 320 315 314 316 319 319 319 320 320 320 317 318 318 322 323 324 322 326 326 330 331 336 339 340
300 299 308 308 309 304 305 306 311 312 312 312 313 313 315 317 318 317 318 319 321 318 318 314 316 319 318 319 319 319 319 319 323 320 319 321 323 325 325 326 331 333 336 338 338
303 304 308 310 309 309 310 314 314 314 312 314 314 314 313 314 315 315 317 319 320 319 319 316 313 319 317 317 319 320 319 316 315 316 321 325 324 324 326 327 330 334 337 338 338
305 305 312 310 309 308 308 312 317 320 315 315 314 313 315 315 314 316 318 323 323 323 327 325 313 318 321 320 319 321 321 319 319 319 320 323 325 325 330 329 329 335 337 337 338
306 308 309 310 309 309 307 310 316 319 316 317 319 315 315 316 317 316 317 319 323 327 327 316 317 315 321 318 320 321 322 321 321 320 323 324 325 326 326 328 329 335 337 336 337
306 307 307 308 309 307 309 311 315 315 315 316 318 320 319 319 321 320 321 321 324 327 326 316 318 315 321 320 320 322 321 322 323 323 322 323 323 323 326 328 329 333 336 338 338
302 304 305 307 308 308 308 311 313 312 314 314 316 317 324 324 321 322 323 325 325 327 326 318 316 315 321 318 318 319 321 321 323 323 324 325 326 325 328 328 329 331 335 338 339

GFSSW_850_thetae_021.txt.gz
Theta_e
311 312 313 314 315 316 317 318 317 318 319 319 320 320 321 322 321 321 321 320 319 320 326 325 330 337 345 346 342 341 341 347 348 348 346 349 350 351 351 349 348 350 348 347 347
309 309 310 311 312 313 315 316 317 318 318 319 319 320 320 321 321 321 320 320 319 320 320 324 326 332 341 335 342 343 341 343 343 345 346 349 350 350 351 348 349 351 350 345 345
308 309 309 309 310 311 313 314 315 317 318 318 319 319 319 320 320 320 323 321 319 319 320 324 321 326 329 335 341 343 342 340 340 344 346 349 350 349 347 348 348 351 350 348 348
308 309 309 309 310 310 310 311 313 315 317 318 318 319 319 319 322 320 320 321 320 319 321 322 323 325 329 334 335 341 342 340 340 344 346 349 349 347 345 346 347 350 349 349 349
308 308 309 309 309 310 311 311 311 313 315 317 318 318 318 317 320 321 320 319 320 320 320 322 323 325 329 332 330 335 338 340 341 342 345 347 347 345 345 349 349 350 350 349 349
306 307 308 308 309 310 311 311 311 312 314 316 318 318 317 318 319 322 322 321 320 320 320 322 323 325 328 329 332 335 339 343 342 343 345 345 347 346 346 349 349 350 349 349 350
306 306 307 307 308 309 310 311 312 312 313 315 317 317 317 320 320 320 323 323 322 321 320 322 322 327 327 328 331 339 344 344 343 343 345 344 348 349 347 349 349 349 349 350 350
306 306 307 307 308 309 310 311 312 312 313 316 318 319 320 320 321 326 326 321 323 321 321 322 323 323 325 330 340 342 342 345 344 343 344 344 347 347 349 349 348 348 349 349 350
305 305 306 307 308 309 309 311 313 313 313 317 322 321 322 323 326 326 324 322 323 321 321 322 323 322 324 338 343 342 344 345 347 343 345 346 347 345 349 349 350 349 348 350 352
304 305 306 306 307 308 309 312 312 313 321 324 324 325 323 326 325 324 326 323 323 321 322 321 321 323 326 335 338 343 345 345 348 345 345 347 348 347 349 350 350 350 349 351 352
303 304 305 306 306 307 309 311 314 316 315 322 324 326 325 324 324 326 325 322 322 322 323 321 322 323 327 334 337 341 343 344 346 345 346 347 348 347 349 350 350 351 351 351 351
302 303 304 306 306 307 308 308 312 309 310 315 316 316 317 319 321 323 324 324 322 323 320 322 322 323 325 330 336 342 343 344 344 345 345 346 346 347 347 350 350 350 351 351 352
302 303 303 305 305 308 308 310 309 306 309 313 315 315 317 317 319 320 325 324 324 322 321 322 322 322 324 327 329 340 343 345 344 345 346 346 347 348 347 347 347 348 348 348 350
302 302 302 304 306 305 309 308 306 307 317 321 319 320 320 320 320 320 322 325 322 326 320 321 321 322 324 327 329 333 339 343 344 346 349 346 349 348 349 349 348 346 346 346 346
301 302 302 302 303 305 305 305 306 313 322 321 321 321 321 322 322 322 322 325 327 324 322 325 320 322 323 326 328 332 334 339 343 346 346 348 349 346 348 351 349 347 346 345 345
301 302 302 303 303 305 306 305 313 321 322 323 324 324 323 323 323 323 323 324 325 325 321 325 320 323 324 326 328 329 332 334 340 342 347 344 348 343 348 350 348 346 345 345 345
301 302 302 302 304 304 304 305 316 320 320 322 323 321 322 324 324 324 325 326 327 328 326 325 324 323 323 325 329 330 333 336 339 344 340 339 348 346 342 345 346 346 345 345 345
301 302 303 304 304 305 304 310 316 317 320 320 321 321 322 323 324 324 326 325 327 328 327 327 326 323 324 325 328 329 331 334 338 338 337 336 345 344 343 341 341 343 345 345 345
301 303 303 304 308 309 305 308 313 316 320 320 321 321 322 322 322 324 325 325 326 328 327 327 326 321 323 324 329 329 330 332 332 328 335 337 339 336 338 339 339 341 341 344 345
300 302 304 308 312 308 306 308 310 315 319 320 322 322 323 322 322 323 324 324 326 325 328 324 325 323 322 324 325 327 328 328 329 337 334 333 334 333 338 339 341 341 340 342 344
300 301 304 310 308 305 307 306 308 310 315 318 320 321 321 322 321 321 321 323 323 324 327 326 324 323 322 323 325 325 326 327 330 331 336 335 333 335 338 339 339 339 338 339 342
299 303 306 307 310 306 308 309 309 311 311 314 315 319 320 320 320 320 321 322 321 321 323 324 327 327 324 324 323 325 326 328 332 333 330 332 333 332 334 336 337 336 335 337 340
302 303 304 307 312 312 313 314 315 312 314 313 313 316 317 318 319 319 319 320 321 322 325 321 324 327 327 326 323 323 325 326 327 329 337 331 331 334 332 334 333 333 337 336 339
303 307 310 308 308 311 313 314 315 317 318 313 315 316 316 316 318 319 320 321 321 321 321 322 326 327 328 328 326 325 324 324 325 329 328 330 330 332 333 337 338 337 335 336 338
304 307 309 313 312 312 311 311 313 314 318 317 319 316 317 318 319 319 321 321 322 322 327 330 333 330 330 328 327 325 324 324 326 327 329 328 331 333 335 336 339 336 338 338 339
304 306 305 307 308 311 310 311 314 316 316 318 320 322 322 323 324 322 323 323 324 327 326 325 330 328 331 330 327 326 326 325 325 325 327 328 332 333 334 333 333 336 337 340 339
302 301 303 304 307 309 310 311 312 311 314 315 315 315 318 322 323 322 323 322 325 329 334 332 328 327 328 328 326 326 327 326 326 327 327 330 331 335 333 334 334 333 336 335 336

GFSSW_850_thetae_024.txt.gz
Theta_e
309 309 309 311 313 314 316 316 317 317 317 318 320 320 320 320 320 321 323 323 320 319 326 338 344 344 350 348 347 343 344 344 343 341 345 345 348 348 348 350 348 348 345 347 347
308 309 309 309 310 310 312 313 315 316 317 317 318 320 320 320 319 321 323 320 320 319 326 338 339 344 346 346 343 344 345 342 342 342 344 345 346 349 349 348 348 350 346 347 347
308 308 309 309 310 310 310 310 312 314 315 316 317 318 319 320 321 323 323 321 320 319 331 332 333 340 339 337 344 345 346 342 342 343 343 346 346 346 345 347 347 350 349 348 347
308 309 309 309 309 310 310 310 311 312 313 315 316 317 317 318 323 320 321 321 321 319 325 327 325 331 330 335 342 345 341 339 341 344 343 346 345 345 344 343 345 348 349 347 346
307 308 308 309 309 309 310 311 311 311 312 313 315 316 316 321 322 321 320 320 319 321 323 323 325 325 328 334 339 342 339 340 339 343 344 345 346 343 345 348 345 348 348 347 346
307 307 307 308 308 309 310 310 311 312 312 312 314 314 315 320 321 320 321 322 325 323 323 323 324 325 328 333 338 339 338 340 340 342 345 346 347 343 344 349 347 348 348 347 347
306 306 307 307 307 308 310 311 312 312 313 313 313 314 317 320 320 320 320 323 327 324 324 322 324 325 327 332 334 336 340 343 342 344 347 345 349 349 346 349 348 348 348 347 347
304 305 306 306 307 308 309 310 312 313 313 313 314 317 322 321 320 320 323 324 323 326 324 323 324 325 329 332 336 338 338 343 346 346 347 346 350 348 348 349 349 348 347 347 347
304 304 305 306 306 308 309 310 312 313 313 314 319 321 324 323 324 326 326 325 324 324 323 323 324 325 328 334 338 339 341 341 348 345 347 348 347 348 349 349 350 348 346 347 348
302 302 304 305 306 307 309 310 311 313 316 322 323 325 325 327 327 326 326 324 326 323 323 323 324 327 329 334 339 341 341 340 344 347 348 348 348 348 349 349 349 349 347 347 348
303 303 304 304 305 307 309 310 318 323 322 325 327 327 325 325 325 326 325 323 324 323 324 323 326 327 329 332 337 339 340 340 342 347 348 348 348 348 349 349 348 349 349 348 348
302 302 303 304 305 307 307 312 310 309 314 316 316 318 321 323 323 326 325 324 326 324 324 324 325 328 330 331 334 337 339 340 343 347 347 347 348 347 347 350 348 348 349 349 348
302 302 302 304 305 306 308 312 307 307 315 318 317 317 318 318 321 324 326 325 326 326 325 325 325 327 328 330 334 337 340 340 344 347 347 346 348 348 345 346 350 348 347 348 349
302 302 302 304 306 305 311 309 306 306 319 324 321 321 320 321 322 322 325 326 326 327 325 325 326 326 326 328 332 338 338 340 343 347 349 347 347 345 346 348 349 350 347 347 349
302 302 302 302 302 306 307 305 305 311 324 324 324 322 323 325 325 323 322 326 327 327 327 325 324 324 325 326 331 335 336 338 341 345 345 348 350 346 346 348 349 349 348 345 345
301 301 302 303 303 304 305 305 311 322 323 324 325 325 326 325 326 325 322 325 326 327 327 326 325 324 325 326 328 332 334 337 339 342 346 345 347 346 346 349 347 347 348 345 343
301 301 302 301 306 303 304 307 318 321 322 323 325 326 325 326 327 327 325 326 327 329 329 326 326 324 324 325 327 330 334 341 343 343 345 344 344 344 342 341 344 343 346 347 345
302 302 303 303 303 304 304 311 317 320 321 324 324 325 325 325 326 327 326 326 326 327 329 328 326 326 325 326 327 329 334 339 342 341 342 341 342 342 342 341 339 339 341 345 346
301 303 305 304 303 305 309 311 316 318 320 321 324 325 326 326 325 327 327 326 326 327 328 328 328 326 326 325 327 329 334 335 338 338 340 339 340 339 338 340 339 339 340 342 346
300 304 306 306 308 311 310 311 315 316 318 321 322 324 326 327 325 326 327 327 326 326 328 329 329 327 327 326 326 330 331 335 337 341 341 338 339 340 339 339 338 338 338 340 342
304 305 307 307 311 311 314 312 313 313 314 319 321 323 324 324 325 325 326 327 327 326 328 329 329 328 327 327 326 327 331 334 335 336 339 339 338 337 336 337 336 336 335 336 338
304 308 308 307 312 312 313 314 311 312 312 315 318 320 321 322 324 325 325 325 325 327 327 329 330 330 327 326 326 328 329 333 337 339 337 337 338 336 337 336 335 335 334 334 336
305 304 306 307 310 312 313 313 313 314 314 314 314 317 318 320 323 323 324 324 323 325 329 330 331 332 329 325 326 326 328 330 333 335 341 338 338 336 335 336 335 336 336 336 343
304 307 308 311 310 313 314 316 316 314 316 315 315 316 316 318 321 322 322 322 321 322 323 326 331 332 332 329 326 325 326 328 330 336 334 336 337 336 335 335 335 335 334 335 339
305 307 310 310 313 315 315 316 316 316 316 318 319 316 316 317 319 320 321 322 324 322 324 325 330 331 330 330 329 328 326 325 326 328 331 332 334 335 336 335 334 333 332 334 343
305 306 307 306 307 308 308 311 315 315 316 319 320 319 317 318 319 320 320 321 322 324 325 329 333 334 333 331 330 329 329 328 327 326 327 329 331 333 333 332 333 332 332 334 340
304 304 304 305 305 306 308 310 311 314 314 315 318 319 322 322 322 324 324 324 323 325 327 328 330 334 335 333 333 333 331 330 330 328 327 328 329 330 331 333 333 334 334 335 335

GFSSW_850_thetae_027.txt.gz
Theta_e
309 309 309 310 310 310 311 313 315 317 317 317 317 317 319 320 320 321 325 326 325 321 320 340 342 345 347 351 348 346 347 347 341 343 342 341 343 344 345 346 345 346 348 349 349
309 309 310 310 310 310 310 311 311 313 315 317 317 317 317 319 320 323 323 323 322 320 326 340 340 342 343 347 347 347 345 344 342 342 344 341 341 344 345 345 346 345 348 349 349
309 309 310 310 310 310 310 310 311 311 312 314 316 317 317 318 323 325 323 322 320 320 331 335 338 339 341 343 345 344 348 344 341 342 342 342 340 343 344 345 345 346 348 349 349
307 307 308 309 309 310 310 311 311 311 312 312 313 315 316 317 327 328 323 320 320 320 334 333 334 339 340 341 341 346 344 339 342 340 342 343 340 340 341 342 343 345 347 347 348
307 307 307 307 308 309 310 311 312 312 312 312 312 313 315 323 323 323 321 321 320 324 334 330 332 332 338 335 338 345 342 339 339 340 342 343 341 339 341 341 342 345 347 346 347
305 306 306 307 307 308 309 311 312 313 313 313 312 312 313 322 322 324 324 328 326 326 326 326 328 330 331 333 338 341 341 340 340 341 342 342 343 341 343 343 343 346 346 346 345
305 305 306 306 307 308 308 309 312 313 314 313 313 312 319 323 321 322 325 326 326 327 325 324 325 327 329 332 334 340 341 341 340 341 342 343 345 342 344 344 344 345 345 344 344
304 305 305 306 306 308 308 309 311 313 313 314 313 313 322 324 323 322 322 322 324 327 325 325 324 327 329 330 336 339 341 343 342 341 344 344 347 346 347 345 344 345 345 345 345
303 303 304 305 306 308 309 309 310 312 313 313 318 323 326 325 324 322 322 323 325 324 326 325 324 326 329 332 337 339 342 341 343 341 346 345 353 346 347 346 344 344 345 345 345
303 303 304 304 305 307 309 310 311 312 317 317 326 328 325 326 327 327 327 326 325 325 326 325 325 328 331 333 338 342 342 342 347 342 346 346 349 348 347 347 345 344 344 345 345
302 303 304 304 305 306 309 314 321 327 327 327 330 326 326 327 327 325 327 325 325 325 327 325 326 328 332 334 337 341 342 342 343 341 346 346 346 347 348 348 346 345 344 344 344
303 302 304 305 305 306 310 316 313 312 315 317 320 322 327 326 327 327 327 325 327 327 327 327 326 328 332 333 336 338 342 342 340 343 344 346 347 346 349 349 347 346 345 344 343
304 302 303 305 306 311 310 315 313 311 316 318 320 320 321 322 325 326 327 324 327 327 326 326 326 328 331 333 335 337 340 341 340 346 345 346 347 346 346 347 348 347 346 345 344
303 303 302 304 309 308 313 314 312 311 319 323 323 322 321 321 323 323 326 326 327 328 327 327 328 328 330 332 334 336 338 339 339 347 348 344 349 347 346 346 348 348 348 345 345
302 302 302 301 304 310 311 310 310 314 325 328 326 324 323 323 327 324 324 327 328 328 328 327 327 328 329 331 334 335 337 339 340 343 347 344 345 345 344 346 345 348 349 347 346
303 302 302 305 308 309 310 311 312 321 325 327 326 326 327 325 327 327 324 327 327 329 328 328 327 328 328 330 332 334 336 339 339 341 346 346 348 346 346 346 345 346 347 348 346
303 303 302 302 308 311 309 310 317 321 326 327 327 327 328 329 329 328 326 327 329 329 329 328 328 327 328 328 330 332 336 339 340 342 343 345 347 350 344 344 344 343 344 347 347
301 302 306 308 309 309 309 313 317 323 324 327 327 328 328 328 329 329 328 327 328 329 330 330 329 329 327 328 329 331 334 338 342 341 340 341 346 344 344 342 342 340 341 343 347
301 306 308 309 310 309 312 313 318 321 325 325 327 327 329 327 328 329 330 328 328 329 330 331 331 329 328 328 328 330 334 334 337 338 340 341 341 341 342 342 342 341 340 339 344
304 308 309 310 311 310 314 315 318 319 322 323 325 327 328 328 327 328 329 330 328 328 329 330 332 331 329 328 327 328 332 334 337 343 344 340 341 343 343 341 341 341 338 337 339
308 308 312 311 311 313 317 316 316 316 317 319 321 325 326 328 328 328 328 329 329 329 328 329 330 331 330 329 328 327 330 332 334 337 341 341 342 340 342 341 340 339 337 337 337
307 311 311 310 313 314 316 317 316 318 317 318 318 321 324 326 327 329 329 328 328 329 329 329 330 332 331 330 329 329 328 330 340 339 337 340 339 339 338 339 338 338 337 336 336
308 309 308 308 312 312 314 315 316 317 318 318 317 318 320 323 326 327 327 328 327 328 329 329 330 332 333 331 330 329 329 329 331 335 343 342 339 338 338 338 336 336 336 336 336
307 311 310 310 311 311 312 314 316 316 316 317 317 318 318 319 323 324 325 326 326 326 328 328 330 331 333 333 331 330 328 328 329 334 337 338 338 338 338 338 337 336 335 335 336
307 309 309 313 312 313 314 316 317 318 317 318 318 318 318 318 319 321 323 326 326 326 327 328 332 331 330 332 332 329 328 327 328 330 333 335 337 338 338 338 338 336 335 335 334
305 308 308 309 309 310 310 312 310 311 314 317 318 319 320 319 320 320 322 324 326 326 325 328 331 333 334 332 332 332 328 327 327 328 330 331 333 336 336 336 337 335 335 335 334
305 306 306 307 309 309 309 311 310 311 313 314 315 318 322 321 321 322 323 323 324 326 328 328 329 331 333 332 332 332 332 331 330 329 328 330 331 333 333 335 336 338 336 335 334

GFSSW_850_thetae_033.txt.gz
Theta_e
308 308 308 309 310 310 310 310 311 312 312 312 312 313 315 316 317 317 316 318 318 319 324 327 326 329 349 356 347 339 349 352 346 340 340 344 345 348 349 349 349 349 351 350 350
307 307 308 308 309 309 310 310 311 311 312 312 313 312 312 314 316 317 317 317 323 326 326 326 336 339 341 343 343 343 347 346 343 343 338 345 346 346 349 348 348 349 350 351 349
307 307 307 307 308 309 309 310 311 311 312 312 313 313 312 312 315 319 326 319 325 324 325 326 330 337 340 341 345 343 348 343 340 342 341 340 342 343 347 350 348 349 349 351 351
307 307 307 307 307 308 309 309 310 311 311 312 313 313 312 312 320 327 325 323 322 323 324 325 326 331 336 338 343 344 343 342 341 342 343 338 341 342 342 347 349 348 349 350 348
309 308 307 307 307 308 308 309 309 310 311 311 312 313 311 314 316 322 322 322 321 322 323 325 326 330 334 337 342 342 339 339 340 340 340 339 341 342 343 348 348 346 346 349 347
311 310 309 308 308 309 308 309 309 310 311 311 312 312 311 316 320 321 322 323 322 321 320 325 328 331 335 335 341 344 342 342 341 343 341 338 337 342 344 348 348 347 346 347 347
310 311 311 310 309 309 309 310 310 310 311 310 311 311 311 317 322 324 324 323 323 325 324 325 330 332 334 332 334 334 342 343 341 341 340 339 337 340 345 347 349 348 348 347 345
313 312 311 311 311 310 310 310 310 311 311 310 310 312 313 320 322 323 325 325 326 325 326 327 328 329 330 329 328 329 329 330 340 336 340 340 345 339 342 347 348 348 348 348 347
314 315 314 312 312 311 311 311 311 312 311 311 311 315 324 324 324 323 323 324 324 328 327 327 326 326 326 324 324 326 328 329 340 339 340 343 345 342 341 345 346 347 347 347 347
311 312 314 315 313 312 312 311 316 320 320 319 321 327 323 323 327 324 324 323 325 326 324 325 327 324 322 322 325 326 328 329 340 340 343 343 344 341 343 342 344 346 345 345 345
307 308 311 314 314 312 310 314 317 321 324 329 326 321 321 324 328 327 325 324 323 323 322 325 324 324 323 323 325 328 329 330 338 342 344 346 343 340 339 339 340 344 344 345 344
307 307 308 312 314 311 313 314 314 316 316 315 316 319 326 328 329 328 326 323 323 321 322 324 324 325 326 326 326 327 329 330 343 342 341 345 345 341 341 340 340 342 343 343 344
304 306 307 310 314 313 315 315 314 314 313 314 315 316 316 321 324 329 327 323 323 323 325 324 324 326 326 326 327 327 328 331 344 343 342 342 346 343 339 341 342 341 343 343 344
302 303 304 308 313 312 313 314 314 313 312 317 318 318 317 318 323 327 327 327 327 326 326 325 325 327 326 325 326 326 329 332 342 342 346 343 353 347 343 344 343 343 341 342 343
303 302 302 302 307 313 312 313 313 313 318 325 323 322 320 318 324 326 329 327 327 326 324 325 326 326 325 325 325 327 330 332 332 341 343 343 346 348 347 349 345 343 341 341 342
305 304 303 304 305 311 311 312 313 314 319 324 325 322 319 319 321 324 327 327 328 326 325 326 328 326 325 326 325 326 328 329 331 333 343 342 346 343 341 349 346 343 344 342 342
304 305 305 304 306 309 310 312 312 315 323 327 325 325 322 320 320 321 323 324 324 327 326 325 326 326 327 324 324 324 323 328 331 333 334 341 343 344 340 342 347 345 344 344 343
304 304 306 307 307 310 311 312 315 321 319 323 324 326 325 324 322 322 321 323 324 325 326 327 326 326 327 325 323 323 323 326 331 334 334 334 345 343 342 342 344 345 345 344 345
304 304 305 311 309 310 311 314 316 319 320 319 319 322 326 327 326 323 322 323 323 324 324 327 327 328 327 327 325 324 324 324 325 329 332 334 334 339 342 341 341 341 342 342 342
304 306 305 312 312 311 313 314 316 317 317 316 317 320 321 320 321 326 323 324 325 324 324 325 328 327 328 327 326 324 325 324 325 327 332 333 334 339 343 342 342 341 342 342 342
306 308 305 310 311 312 313 314 314 315 316 317 318 319 319 319 320 320 323 326 326 326 325 324 325 327 328 327 325 323 324 322 324 327 328 332 333 334 340 342 343 342 342 343 343
305 307 305 307 310 313 313 314 314 315 315 316 317 318 319 319 319 320 320 320 327 329 326 325 325 326 327 328 327 326 323 321 324 327 328 327 329 332 339 342 342 342 341 342 342
304 305 305 307 309 311 312 313 313 313 315 315 316 317 318 319 319 320 321 322 321 322 329 326 326 325 326 326 327 327 326 324 323 321 324 328 330 330 332 340 342 341 340 342 342
305 306 306 308 309 310 312 314 314 313 313 314 314 316 318 318 319 320 321 322 322 321 327 333 326 325 326 327 328 330 327 326 324 323 322 324 324 328 336 339 338 339 340 340 340
304 306 306 308 309 308 310 311 312 311 312 312 313 314 316 320 320 321 321 320 320 322 324 322 326 327 326 328 329 328 329 328 326 325 324 323 324 326 328 338 338 339 339 338 338
304 305 305 305 306 307 308 309 310 310 311 311 312 314 314 316 316 315 314 315 318 319 318 318 328 330 329 328 327 328 328 328 328 327 326 326 327 329 328 339 340 339 338 339 341
303 305 305 305 306 306 306 308 309 309 310 310 311 312 313 313 312 312 312 313 314 316 319 319 322 329 328 329 330 329 327 327 329 329 328 327 326 328 328 332 335 339 338 337 337

GFSSW_850_thetae_036.txt.gz
Theta_e
307 307 308 308 308 309 309 310 311 311 311 311 311 312 312 313 315 317 317 317 316 318 318 330 340 346 352 345 340 340 349 351 348 347 348 348 349 349 349 349 346 350 347 346 347
308 307 307 307 307 308 308 309 309 310 311 312 312 312 312 312 313 316 318 318 317 316 324 323 333 349 353 347 340 343 345 347 343 343 342 346 348 349 350 350 350 349 348 348 348
310 309 308 308 308 308 308 308 309 309 310 311 312 312 312 312 312 320 323 325 322 317 322 325 329 341 343 347 343 344 345 343 343 341 344 348 349 348 350 350 350 350 350 348 350
310 311 311 309 309 309 309 308 308 309 310 310 311 311 312 312 314 324 324 323 318 323 324 324 327 329 332 341 344 346 343 342 342 341 341 345 349 349 348 348 346 347 346 347 350
314 312 311 311 311 310 310 309 309 309 308 309 310 310 310 311 316 319 323 322 322 323 322 324 328 324 327 332 343 343 343 342 342 342 341 342 345 348 348 348 349 349 348 345 347
317 317 316 313 312 312 312 311 310 310 309 309 310 309 309 310 320 320 319 321 322 321 321 324 324 325 327 332 342 342 341 341 342 341 341 340 341 344 348 348 349 350 349 348 346
316 317 317 317 316 313 313 314 312 311 310 309 309 309 309 316 320 321 322 321 321 322 322 321 322 327 330 330 336 341 337 341 342 340 340 339 345 349 349 348 349 350 350 349 348
314 314 314 315 316 317 314 315 313 311 311 310 310 309 311 316 318 320 320 322 323 323 323 324 320 324 327 330 326 325 334 341 340 340 338 336 346 348 348 346 347 349 349 348 347
310 312 312 313 313 316 317 316 312 314 317 314 310 311 315 317 320 322 321 324 324 325 326 324 326 326 327 324 321 321 323 326 327 335 340 340 341 347 347 347 346 345 346 346 346
306 308 310 312 313 314 318 314 315 319 322 321 320 322 319 319 324 325 322 325 325 325 328 325 326 321 319 318 321 322 325 326 331 341 341 340 341 344 347 347 347 347 346 346 345
304 303 304 309 311 314 318 314 314 317 315 316 321 317 319 321 322 327 323 323 322 323 321 322 321 324 321 319 321 322 323 324 328 336 341 340 340 343 345 347 347 347 347 347 346
305 304 303 306 308 313 313 313 313 311 310 313 315 317 318 320 325 328 324 323 321 319 318 319 320 321 322 322 322 322 323 324 339 342 342 342 341 339 338 345 346 346 346 346 346
306 305 305 305 309 311 312 314 313 312 310 312 314 315 316 317 319 323 326 325 320 318 319 319 321 323 324 324 324 322 322 324 328 341 341 343 344 341 338 338 340 345 345 344 345
306 306 306 306 309 308 313 313 313 313 308 312 313 315 315 316 315 320 327 324 320 320 319 319 321 323 323 324 324 322 324 325 328 336 341 339 344 343 341 338 337 340 343 343 344
304 305 306 305 305 306 310 312 312 312 319 322 319 319 317 317 320 322 324 323 321 322 321 323 323 323 323 323 324 323 324 325 328 338 339 341 341 340 343 343 338 339 340 342 343
304 304 305 306 306 308 308 311 312 311 316 318 321 317 316 316 320 324 324 326 325 324 323 323 325 324 324 324 324 324 322 323 325 330 339 338 343 343 344 343 341 340 340 341 342
305 304 303 304 306 307 307 311 308 312 316 323 318 316 316 315 317 320 326 325 325 324 325 324 324 323 324 322 322 322 319 321 323 324 328 335 343 342 341 343 342 342 342 341 341
304 303 303 303 304 305 309 308 311 315 316 316 316 319 319 317 316 318 319 327 325 322 324 324 325 323 323 324 323 319 320 320 321 325 326 328 342 341 338 340 343 344 344 343 340
303 303 303 303 304 308 309 310 310 313 314 315 315 318 317 320 317 317 317 320 326 321 323 322 324 325 324 324 324 321 319 319 319 324 326 328 333 334 337 337 341 344 345 343 341
302 303 302 305 308 310 307 311 310 313 314 315 315 316 317 317 318 317 317 319 319 321 320 321 323 323 326 323 323 323 318 320 315 320 322 324 330 332 336 339 339 343 344 343 341
303 305 302 307 305 309 310 309 312 312 313 313 314 314 314 316 316 316 317 319 320 321 321 322 320 323 324 325 324 322 320 318 318 319 323 323 325 326 329 336 339 342 345 343 341
303 302 302 306 303 305 310 309 311 311 313 313 313 314 314 314 315 315 317 318 319 318 318 318 319 322 322 322 324 325 323 319 322 319 320 324 326 328 327 334 338 339 342 342 341
302 304 303 306 304 306 309 310 312 313 312 312 313 313 313 315 316 316 317 319 316 319 318 320 320 321 319 320 322 323 323 322 314 316 322 324 324 324 324 337 339 339 340 341 342
303 302 304 305 306 305 307 310 310 310 310 311 311 312 313 315 316 317 317 317 314 315 320 317 320 320 324 323 323 323 325 322 321 321 321 322 322 323 325 333 336 340 341 342 343
303 303 303 304 304 305 306 307 309 309 310 310 310 311 314 314 315 317 315 313 314 316 314 314 317 318 319 323 324 325 326 325 322 322 323 321 319 320 320 325 333 339 340 341 341
303 303 303 304 304 304 304 306 308 309 309 309 310 310 312 313 313 313 312 311 311 313 312 313 317 318 325 324 324 325 325 326 325 324 323 320 321 319 321 323 327 335 340 339 338
303 303 304 304 303 303 302 305 305 306 309 308 309 310 309 310 310 310 310 310 310 310 311 314 315 317 322 324 324 325 326 326 325 324 323 322 321 321 323 328 329 335 338 336 337

GFSSW_850_thetae_039.txt.gz
Theta_e
310 309 308 308 308 307 308 308 309 309 309 310 312 312 312 313 313 313 315 317 316 317 325 331 338 337 339 349 350 344 349 350 349 349 350 350 350 349 349 347 345 348 343 344 346
311 310 310 310 309 308 308 308 308 308 309 309 310 311 312 313 314 316 319 318 316 316 322 335 345 340 351 342 342 344 345 345 343 342 348 349 349 348 348 347 349 347 343 346 347
317 315 312 311 311 311 310 309 309 309 308 308 309 310 310 311 313 319 322 323 318 317 317 322 345 351 349 346 342 343 345 342 341 342 347 349 348 349 346 347 348 346 346 347 347
318 317 317 317 315 312 312 312 310 310 309 308 309 310 310 310 314 324 321 322 324 316 320 333 349 348 340 346 346 345 343 342 341 341 346 348 348 349 345 346 345 341 344 347 348
318 318 317 316 317 317 315 313 313 312 310 309 309 309 309 310 315 320 320 321 321 317 319 329 344 342 327 334 343 344 344 343 343 341 344 348 348 348 347 348 347 346 346 347 348
315 316 318 317 316 316 317 317 314 314 312 310 309 308 308 307 318 319 318 318 320 318 321 323 328 337 326 326 338 341 343 342 342 341 342 348 348 348 347 348 348 347 348 348 347
309 311 313 315 316 315 316 319 318 315 314 311 309 308 308 313 317 320 319 318 318 322 322 322 325 327 325 327 333 337 341 341 341 340 340 340 345 349 347 348 349 348 348 348 348
306 306 306 309 312 313 316 320 318 317 314 313 312 309 309 314 315 316 319 320 319 320 321 321 322 324 326 327 327 327 330 332 328 338 339 339 341 346 348 349 349 348 348 348 348
306 306 306 306 307 309 315 318 315 315 316 319 314 310 312 314 315 317 318 320 321 321 321 323 324 324 324 324 321 318 324 326 326 337 336 337 341 347 348 348 350 349 348 348 347
307 306 306 307 307 309 315 315 315 319 320 321 320 318 319 318 324 327 321 319 321 322 324 326 325 320 317 318 324 322 323 323 325 338 336 336 338 348 347 348 350 349 349 349 347
307 307 307 308 307 311 313 314 314 315 312 315 320 320 319 320 320 325 325 320 322 324 322 323 321 322 320 319 320 322 323 324 325 325 339 337 342 348 347 346 348 349 349 348 347
304 305 306 307 308 310 311 311 308 307 307 314 316 315 318 318 318 323 325 320 319 318 319 319 323 321 321 320 321 320 321 321 325 336 336 338 341 347 346 345 345 346 347 347 346
303 303 304 305 307 309 310 310 309 309 307 311 314 315 315 316 317 320 322 321 319 317 317 320 320 320 322 321 321 320 320 321 323 335 340 340 341 345 346 346 346 346 345 345 345
302 302 303 303 306 306 310 310 310 311 308 312 312 314 314 316 317 320 322 322 319 320 317 317 319 320 321 322 322 321 321 323 323 329 334 338 343 341 343 343 343 346 346 346 345
302 301 302 302 304 304 307 308 311 311 319 321 315 315 315 316 318 318 320 323 319 319 317 318 318 319 321 322 321 323 323 322 324 324 329 334 338 338 339 341 339 339 345 345 345
302 302 302 303 302 305 305 308 312 310 316 318 317 315 314 315 316 317 323 325 322 319 319 320 321 319 320 321 322 322 323 321 322 322 329 328 338 340 342 340 338 336 340 344 344
303 302 302 302 302 302 303 307 308 311 315 318 315 315 316 314 316 320 319 320 321 320 320 320 319 321 321 320 320 320 317 319 319 321 324 322 334 335 335 339 339 338 337 340 343
303 302 301 302 307 303 306 306 309 314 312 314 315 315 318 316 316 316 322 322 322 321 321 322 323 321 320 321 321 319 320 316 319 321 322 323 330 329 334 336 340 340 339 338 340
303 302 302 305 307 308 308 307 309 310 314 314 314 316 314 315 315 316 315 324 324 320 322 321 322 322 323 321 322 319 320 319 316 320 320 323 328 332 334 335 336 339 339 339 339
303 302 303 305 304 306 306 308 309 312 312 313 314 314 314 314 315 314 315 316 317 324 319 320 323 321 322 322 320 322 316 319 311 319 321 319 324 329 334 335 334 338 340 340 340
303 303 303 304 305 308 306 306 309 311 311 312 312 313 313 313 313 314 315 316 318 318 316 317 319 322 322 321 322 318 320 316 316 314 321 318 321 323 329 332 333 335 340 342 341
302 300 304 304 302 302 306 308 310 310 311 310 312 312 313 314 314 314 314 315 316 316 318 316 313 321 322 321 323 322 321 319 318 317 316 321 320 324 325 325 330 334 338 340 343
302 302 304 306 306 303 304 309 310 309 310 310 311 311 312 313 314 317 317 316 314 313 319 320 317 316 317 318 318 321 320 320 319 315 321 320 320 319 323 328 331 334 336 338 342
302 302 303 304 304 304 304 306 307 309 309 310 310 312 313 314 314 315 315 315 312 313 317 314 314 316 319 319 319 319 321 321 319 319 321 322 322 322 324 323 327 336 338 339 343
302 303 302 301 302 302 305 306 308 308 308 309 308 310 312 313 312 314 313 311 311 313 310 312 315 316 317 318 320 319 322 322 319 322 322 323 319 319 319 323 326 330 336 338 340
303 303 302 302 302 302 301 305 307 306 307 310 309 308 309 311 311 311 311 310 310 310 308 309 316 315 318 320 322 322 321 323 323 323 320 318 318 317 319 321 322 326 329 336 339
303 302 303 303 304 302 301 303 303 304 306 307 307 307 307 307 309 309 309 309 308 309 308 309 313 316 319 318 319 321 322 322 323 323 323 320 319 318 318 318 319 323 324 328 332

GFSSW_850_thetae_042.txt.gz
Theta_e
316 314 312 311 311 310 310 309 309 309 309 310 310 311 312 312 313 313 315 317 316 323 328 334 333 337 342 351 350 344 344 347 349 349 349 349 349 348 348 346 345 346 343 344 343
319 318 317 317 315 312 312 311 310 310 309 309 309 310 310 311 313 316 319 318 316 316 330 330 339 342 346 348 348 342 343 344 343 343 349 349 348 348 347 345 348 346 343 344 343
319 319 318 318 317 317 316 313 312 312 310 310 309 309 309 310 312 318 321 321 318 316 318 329 337 345 349 341 341 341 344 340 341 341 348 349 348 348 346 345 347 346 343 344 343
315 315 315 317 317 316 316 317 316 313 313 311 310 309 309 309 314 319 321 321 320 316 321 335 341 349 344 346 340 344 343 341 341 341 348 348 348 348 344 342 344 343 341 343 343
307 308 309 309 312 315 315 315 316 317 314 314 312 310 308 308 313 318 320 318 319 317 318 335 344 348 340 341 344 344 345 344 343 341 347 348 348 348 344 348 345 343 343 344 344
306 306 306 306 307 309 312 314 315 318 317 315 314 310 307 305 314 315 317 317 319 318 324 338 344 345 330 326 340 341 342 342 341 342 344 347 347 348 346 347 344 344 345 345 343
307 307 307 307 307 308 311 314 315 319 319 316 314 310 307 312 314 316 317 318 320 317 327 331 333 342 330 323 327 332 336 335 341 341 340 347 348 348 347 348 346 346 346 345 344
306 306 307 307 308 308 311 314 317 319 318 315 314 311 309 314 312 314 316 317 318 317 320 325 329 329 330 325 324 332 335 338 333 334 338 346 350 347 347 348 347 347 347 346 346
304 304 304 305 307 310 311 314 316 315 317 317 315 311 312 314 313 314 315 317 319 318 319 322 322 325 325 322 320 319 324 326 326 329 334 341 341 339 347 348 348 347 347 348 346
302 303 303 304 305 310 312 313 314 319 320 319 320 315 317 317 323 322 315 316 321 320 324 324 323 319 317 318 322 323 322 322 325 330 335 335 337 342 347 348 348 347 346 347 347
302 302 302 303 303 309 312 313 312 313 311 320 321 318 318 319 321 322 324 315 319 319 321 323 321 320 320 318 321 323 322 324 323 324 335 334 337 346 347 348 348 347 346 347 347
301 301 301 302 303 307 311 309 306 306 306 313 316 315 318 319 318 324 322 316 319 319 319 317 322 321 320 319 320 320 321 321 320 322 332 333 336 347 346 347 348 348 347 346 346
301 301 301 302 303 304 309 307 305 308 306 310 312 313 314 316 315 319 321 318 317 316 321 322 320 321 321 320 321 319 320 320 322 328 337 337 338 348 346 345 347 348 348 347 347
301 301 301 300 303 302 307 306 305 310 306 311 311 313 313 315 313 319 320 319 318 321 316 318 320 323 320 321 320 318 319 321 321 323 323 337 343 340 347 347 344 345 347 347 347
301 301 301 301 301 302 303 304 305 308 315 318 312 313 315 316 316 316 320 320 317 318 316 319 318 319 323 323 320 322 320 320 322 322 323 327 337 335 343 348 346 344 344 345 346
301 301 301 302 302 304 303 303 309 311 316 318 315 314 313 313 314 317 319 321 320 318 318 318 318 319 318 319 320 321 320 316 317 318 323 322 327 328 340 346 346 344 345 345 344
301 302 302 304 305 307 303 305 308 312 313 316 314 314 314 314 314 316 317 319 319 317 317 318 319 319 318 318 319 320 318 318 319 320 323 319 329 327 334 338 342 343 343 344 345
301 302 302 305 305 306 306 305 309 312 312 313 314 314 316 313 314 314 316 320 319 319 319 318 319 318 318 318 318 318 317 316 319 318 323 320 324 325 329 336 338 339 341 341 342
301 302 303 304 304 304 308 305 307 310 311 312 312 314 313 314 314 314 314 319 321 318 320 317 319 320 319 319 319 317 318 316 315 317 316 319 321 326 328 328 334 337 338 337 338
302 302 303 304 305 304 305 306 307 309 310 310 312 312 313 312 313 312 313 315 317 317 315 320 321 319 319 320 319 317 317 319 312 320 320 317 321 324 329 329 330 332 336 338 338
302 302 303 304 304 306 302 304 308 309 310 309 310 311 311 313 313 313 313 315 315 316 316 314 317 321 318 320 322 317 316 315 317 313 318 317 319 319 326 327 327 329 334 336 338
302 299 303 305 302 301 305 304 309 310 309 309 310 311 312 313 313 313 314 314 313 313 318 319 311 318 319 320 321 322 321 313 320 316 313 314 319 319 321 325 327 329 331 333 336
302 302 303 304 300 301 302 306 306 310 308 309 310 310 311 312 312 316 316 313 312 314 318 317 315 314 318 319 319 319 319 316 314 312 321 317 319 319 318 321 323 327 331 334 334
302 299 302 303 302 302 302 304 306 307 309 309 309 311 311 312 311 313 313 314 311 314 315 314 313 314 319 319 316 316 320 318 318 319 321 321 319 321 321 319 321 325 328 328 330
302 300 301 300 302 302 301 303 306 306 306 309 309 307 308 311 310 312 312 310 310 311 309 310 315 316 315 317 318 319 319 320 320 320 320 321 320 319 319 321 322 323 328 331 330
302 303 302 302 303 303 302 302 306 304 305 306 308 307 306 308 309 309 309 308 309 308 307 306 313 314 317 318 319 319 319 320 320 320 320 320 319 318 320 321 322 324 326 329 330
303 303 302 302 303 304 303 302 304 303 304 306 306 305 305 306 307 307 308 308 307 308 307 307 310 315 317 317 318 319 320 320 319 319 320 321 320 319 318 318 319 323 325 325 327

GFSSW_850_thetae_045.txt.gz
Theta_e
320 320 320 319 318 317 315 313 312 311 310 310 310 310 310 311 312 313 315 319 317 315 326 326 333 341 349 351 350 345 351 349 349 350 350 350 351 348 347 346 345 347 346 346 344
319 319 320 320 320 319 317 317 316 313 312 311 310 309 309 310 311 315 319 318 316 315 324 328 342 345 346 349 349 350 352 346 344 345 349 350 350 349 348 345 347 347 346 345 344
312 311 312 314 317 319 318 317 317 317 315 313 311 310 309 309 311 318 320 321 318 316 324 337 342 343 345 346 346 346 348 343 342 343 346 350 350 348 347 347 346 348 347 345 345
307 307 307 308 309 310 314 316 317 317 318 316 313 312 310 309 316 317 319 321 319 314 327 343 345 344 346 346 344 345 343 343 343 343 345 349 349 349 346 343 344 347 346 345 345
307 307 307 308 308 308 309 311 315 317 318 318 315 313 311 308 311 317 319 319 317 315 328 341 344 345 347 348 343 343 345 345 344 343 342 348 349 350 347 347 347 346 346 346 345
304 304 304 305 306 307 308 310 313 316 319 318 317 314 311 308 313 314 316 315 318 317 333 338 341 344 344 343 347 343 345 344 341 341 345 349 349 349 348 347 347 346 346 346 345
303 303 303 303 304 306 310 311 314 316 317 319 318 315 311 314 313 313 315 316 317 318 331 333 340 343 335 328 335 334 336 334 338 341 343 347 351 351 348 347 347 346 346 346 346
302 302 302 303 303 304 309 313 315 316 318 318 315 312 312 314 312 314 317 316 318 327 326 332 338 341 329 325 326 332 335 338 338 341 341 345 347 349 348 347 347 346 346 346 346
301 301 302 302 303 304 309 313 314 318 318 316 315 312 313 313 312 312 317 317 319 331 327 331 333 332 327 332 330 327 333 335 336 337 339 346 343 344 349 348 348 346 346 346 346
300 300 301 301 302 305 309 313 312 313 318 319 318 314 316 317 314 313 314 318 327 328 326 324 328 329 326 329 329 330 330 330 334 333 337 344 342 341 349 349 349 347 347 346 346
301 301 301 301 301 303 310 312 311 311 310 320 322 317 319 319 323 319 314 321 321 325 325 323 324 325 326 326 326 326 328 333 332 330 336 337 337 339 347 349 349 348 348 347 345
300 301 301 301 302 303 308 307 303 304 307 312 313 313 319 318 318 321 314 320 319 322 323 323 324 324 323 323 324 324 326 331 329 326 328 331 335 339 346 349 349 349 348 347 346
301 301 301 301 302 301 304 306 304 303 308 311 311 311 314 316 316 319 314 316 319 319 321 323 322 323 323 324 324 323 324 327 330 326 334 335 336 344 346 348 348 349 348 347 347
301 301 301 301 302 301 305 304 303 305 312 314 312 313 312 315 316 317 317 317 319 320 320 321 322 323 323 324 324 324 323 323 327 329 332 338 339 344 346 350 349 349 349 348 347
301 301 302 302 302 304 304 304 303 307 313 317 313 312 313 317 316 316 318 318 320 321 322 322 323 324 324 323 324 323 323 324 325 329 329 330 334 336 345 350 350 348 349 348 348
301 301 301 303 303 304 305 302 307 312 314 319 315 314 315 316 316 318 318 320 320 322 322 323 320 323 325 324 324 325 324 324 324 327 330 331 332 335 342 348 349 347 347 348 348
301 302 302 304 304 305 306 305 312 315 315 317 316 316 316 317 315 318 320 321 323 322 323 323 321 323 323 325 324 324 325 326 327 327 329 330 329 331 333 339 343 347 346 346 347
301 302 303 303 304 305 305 307 313 312 313 313 314 315 318 316 317 317 320 322 323 323 324 323 323 322 322 324 324 325 324 323 326 326 326 327 330 331 331 330 337 338 342 345 346
301 302 303 302 303 304 306 306 310 311 310 310 313 316 316 315 315 317 319 322 323 322 324 323 323 322 321 323 324 324 326 324 323 322 324 327 328 328 330 332 332 339 340 343 345
301 302 302 303 304 305 307 307 309 309 311 310 313 313 315 315 317 317 320 316 320 319 319 323 324 323 322 322 323 323 324 322 324 324 324 325 327 329 333 332 334 337 340 340 342
301 302 303 304 304 306 307 307 308 309 310 312 311 312 313 315 315 316 317 316 315 318 321 321 323 324 323 323 323 321 324 323 324 323 323 323 324 328 333 335 334 335 336 337 338
302 304 302 303 304 304 305 305 307 309 309 310 311 313 314 314 314 316 317 316 313 317 321 320 320 327 325 324 324 323 324 324 325 326 323 324 324 326 329 332 334 333 333 335 337
302 301 302 302 305 305 304 305 306 308 309 311 311 312 312 314 314 316 316 313 312 317 318 318 322 326 326 325 323 324 324 324 324 325 328 324 323 327 327 328 327 331 332 333 332
302 304 302 302 302 303 304 304 305 306 308 309 310 309 312 313 314 314 314 313 311 314 315 316 319 324 327 326 322 324 324 325 324 327 326 327 325 326 327 328 329 328 328 330 331
302 303 302 304 303 303 304 304 305 306 304 306 307 308 308 312 311 313 312 311 310 311 312 315 318 317 318 318 320 321 322 322 324 326 329 327 328 327 327 329 330 329 329 328 332
303 303 302 301 303 303 304 304 304 305 304 305 308 307 306 308 309 310 310 311 311 312 312 312 315 317 316 317 319 321 321 322 322 323 323 324 326 327 327 326 328 327 327 329 329
302 302 302 302 303 303 304 304 305 304 304 305 306 305 305 306 305 306 306 308 308 310 311 312 313 316 317 317 319 321 322 322 323 323 323 325 326 326 326 327 329 328 328 328 326

GFSSW_850_thetae_048.txt.gz
Theta_e
316 316 316 318 319 320 320 319 318 316 314 312 311 310 310 310 311 311 314 318 317 315 316 335 337 342 348 350 351 350 353 351 348 350 351 351 351 349 347 347 347 348 349 348 348
309 310 310 311 312 314 317 319 319 318 317 316 313 311 311 310 311 312 318 318 316 316 323 337 339 342 347 347 349 352 354 348 347 348 351 351 350 350 348 347 347 349 348 348 348
307 307 307 308 309 309 310 312 317 318 318 317 317 314 312 310 312 317 318 319 318 316 327 336 337 343 342 346 349 350 352 346 345 346 348 351 351 350 348 347 347 348 349 348 348
304 304 304 304 305 306 308 309 312 314 317 317 317 317 313 310 319 321 319 320 320 321 331 337 339 341 341 346 346 350 347 345 345 345 346 350 350 351 348 344 345 348 348 348 348
302 303 303 303 304 304 305 308 310 312 314 317 317 317 314 316 315 315 319 320 318 330 332 337 339 337 340 342 344 347 347 346 346 345 344 346 349 351 349 346 346 348 348 348 347
301 302 302 303 303 304 304 309 312 315 315 316 317 316 314 316 315 313 315 315 327 332 332 336 337 336 339 343 344 342 344 346 345 343 344 349 350 350 350 349 347 347 347 347 347
301 301 301 301 302 303 304 309 312 315 317 317 317 315 316 318 316 313 320 324 331 332 331 334 336 337 336 341 340 342 344 344 341 341 346 348 352 352 351 350 348 348 347 347 347
301 302 302 302 302 303 304 309 312 315 316 317 317 315 319 317 316 314 321 327 332 330 329 329 334 337 334 331 330 335 335 340 341 341 343 347 348 350 351 350 350 348 347 346 347
301 302 302 302 303 303 306 310 312 313 314 317 315 317 321 316 314 315 323 329 332 330 328 330 332 334 337 336 334 332 339 340 343 342 344 346 347 347 350 350 351 349 348 346 346
302 302 302 302 303 303 305 310 311 311 314 319 318 318 318 320 318 313 323 325 333 333 330 332 333 334 337 338 337 336 336 340 344 342 342 345 346 343 347 349 350 350 349 347 345
301 301 302 302 302 303 303 310 314 318 312 322 325 322 322 320 319 314 321 325 332 329 328 328 331 330 329 330 331 334 335 337 339 340 339 341 342 341 341 348 349 350 350 348 345
301 301 301 302 302 302 307 309 306 305 308 311 312 315 322 321 323 316 320 325 329 329 326 326 329 327 327 326 328 330 332 335 337 336 335 339 340 339 339 346 347 350 350 349 348
301 301 301 301 302 304 307 307 306 306 310 314 314 315 315 316 321 321 320 322 328 328 327 326 326 325 326 328 329 330 332 332 335 336 334 335 337 338 340 343 346 348 349 350 349
301 301 301 302 306 305 307 306 307 306 315 317 315 316 315 318 321 322 317 321 324 327 326 326 325 325 326 326 327 329 329 330 330 333 337 336 342 341 340 344 346 347 349 349 349
301 301 301 302 303 307 305 306 305 309 316 319 317 315 316 319 323 321 321 321 323 323 326 326 326 325 326 325 326 327 328 328 329 330 332 335 337 338 340 342 346 347 348 348 349
301 301 302 305 306 305 305 305 308 315 315 321 316 317 318 318 320 321 321 317 319 323 324 324 323 325 325 325 325 325 326 327 328 329 332 333 336 337 338 342 342 345 346 348 348
301 302 302 302 305 304 305 308 312 313 317 320 319 319 320 321 321 321 323 323 325 324 324 324 324 325 325 326 326 325 327 327 328 329 332 333 335 336 336 337 340 342 343 347 348
301 302 302 304 304 302 306 310 309 313 316 315 315 317 320 321 321 321 323 325 325 325 327 327 326 325 326 326 327 326 327 326 330 330 330 331 333 335 335 334 334 338 340 346 348
301 305 305 304 303 305 308 308 308 314 313 314 315 319 322 320 320 321 322 324 325 327 328 328 328 326 326 326 327 327 329 326 327 328 329 330 331 332 333 334 334 335 336 339 343
302 305 304 304 305 307 309 307 310 310 311 313 315 316 319 320 321 321 323 321 325 326 327 328 330 327 325 326 326 327 327 326 327 328 329 328 329 331 332 333 334 335 335 337 338
305 306 304 304 306 307 308 307 307 307 308 311 314 315 316 317 319 321 323 319 320 323 323 327 328 330 326 326 327 326 327 327 326 326 328 329 329 330 331 333 333 334 333 336 338
305 307 304 305 307 307 307 307 306 308 308 310 311 311 314 316 318 320 322 320 315 320 324 326 328 331 328 327 326 327 327 328 328 329 328 328 329 328 329 330 332 332 332 335 337
305 305 304 304 307 307 307 307 306 307 307 310 312 313 313 315 317 318 319 316 314 319 323 325 326 331 331 329 327 327 327 327 327 328 331 329 327 330 331 331 331 332 333 334 335
305 307 305 305 305 306 306 307 307 306 307 306 308 310 312 314 315 316 317 315 313 314 315 318 327 330 332 331 329 328 327 326 327 331 329 330 330 329 328 329 330 331 331 332 334
305 306 305 307 306 305 304 305 306 306 306 306 308 308 309 313 313 314 314 314 314 314 316 318 326 326 328 325 325 329 328 328 329 329 330 330 331 330 330 330 330 330 330 332 334
305 305 305 304 304 304 305 306 306 306 305 306 307 306 308 309 310 312 311 314 314 315 315 316 322 322 325 323 323 325 326 327 328 329 329 330 331 331 330 329 330 329 329 329 329
305 304 305 304 305 304 305 304 306 306 306 305 306 306 306 306 307 307 308 309 311 312 314 314 317 320 325 324 324 326 326 327 327 328 329 330 330 330 330 330 329 329 329 329 329

GFSSW_850_thetae_051.txt.gz
Theta_e
308 308 308 309 311 312 315 318 320 320 319 318 316 313 312 311 311 311 314 318 319 317 316 328 331 342 346 348 348 351 356 354 346 350 346 346 346 347 346 348 349 349 351 351 350
304 304 304 305 305 306 308 309 311 315 319 319 319 317 314 312 311 315 318 318 317 317 320 331 331 339 344 346 348 351 355 352 346 347 347 347 343 343 346 347 348 350 351 350 350
303 303 303 303 304 304 304 305 306 308 312 315 318 319 317 313 318 319 319 319 318 317 321 329 332 336 341 344 346 348 357 352 343 345 348 344 344 343 344 347 347 350 352 350 350
302 302 302 303 303 303 304 305 305 309 311 312 314 317 317 314 324 330 319 319 318 317 321 328 333 337 342 345 344 347 348 346 345 346 346 348 345 344 344 342 345 348 350 350 350
302 302 302 303 303 303 304 305 306 310 313 315 315 315 316 321 320 319 318 321 321 319 323 331 334 336 342 342 343 345 347 346 346 346 346 346 347 347 345 342 344 347 350 350 350
302 302 302 303 303 304 304 305 306 310 314 316 316 315 315 323 322 320 321 319 325 326 325 331 334 336 340 340 342 342 344 347 346 346 345 345 347 350 348 346 346 347 349 349 350
302 302 303 303 303 304 304 305 307 310 314 316 317 314 320 323 320 316 320 324 330 329 329 331 333 337 338 340 342 343 346 347 347 346 346 345 348 348 349 348 348 346 348 348 348
302 302 302 303 303 304 304 305 306 310 313 315 316 314 324 324 324 321 321 324 329 331 331 331 332 335 337 340 337 344 346 348 347 345 344 345 351 347 351 349 349 348 346 347 347
302 302 302 302 303 304 305 304 308 311 312 316 319 321 327 323 320 321 320 324 329 330 331 331 333 334 336 339 338 337 343 342 345 343 344 346 349 348 351 350 350 349 346 345 346
302 302 302 302 303 303 304 310 311 315 322 321 324 323 323 325 323 320 321 324 330 330 331 330 330 335 336 341 341 337 337 340 343 344 344 345 347 347 349 349 350 350 349 346 346
302 302 302 302 303 303 309 312 315 323 321 322 325 323 326 325 322 318 323 327 330 331 333 330 334 335 334 338 339 337 336 339 342 343 344 345 346 347 347 348 349 351 350 348 346
302 302 302 302 304 307 310 310 309 308 311 311 313 314 319 325 325 320 324 326 332 334 333 333 335 333 333 334 339 338 337 338 340 343 344 344 344 345 344 346 346 349 350 350 348
302 302 302 302 307 309 310 308 308 309 312 313 314 315 316 319 326 326 319 326 332 334 334 332 333 331 332 331 336 339 336 337 339 340 342 340 342 343 342 340 345 346 349 350 350
301 302 302 302 308 309 310 307 308 309 315 318 319 318 317 317 321 325 320 326 331 335 334 330 329 329 330 329 330 331 332 334 335 339 343 340 342 342 342 341 344 346 348 350 350
302 301 301 306 309 310 307 307 308 311 318 321 319 318 319 318 323 323 323 324 328 330 332 330 328 327 328 329 329 329 331 333 334 335 338 340 341 340 342 343 343 345 346 348 349
302 302 301 307 308 307 307 307 310 316 316 322 320 320 320 320 321 325 324 322 325 328 330 331 329 329 328 328 328 329 329 331 333 334 335 337 341 340 341 344 343 344 344 346 348
302 302 303 307 307 306 307 309 313 313 318 321 320 321 322 323 323 325 327 324 327 327 328 328 330 329 328 328 328 328 328 329 332 334 335 335 338 339 338 339 341 343 343 345 347
302 306 308 307 306 306 308 312 311 311 315 317 317 317 319 322 324 324 326 328 325 327 328 329 329 329 328 328 329 328 328 329 332 332 333 334 336 336 336 336 337 339 341 343 346
303 308 308 306 306 307 310 311 310 313 313 313 313 318 321 323 323 325 325 327 327 326 327 329 330 329 328 328 329 329 329 328 329 331 332 332 334 334 335 336 337 337 340 341 344
307 308 309 305 306 309 312 310 310 310 310 310 311 314 319 322 324 325 326 326 327 326 326 329 332 330 329 329 328 330 330 328 329 334 333 332 334 335 335 336 337 337 337 340 344
309 309 308 305 308 309 310 309 309 308 308 309 310 311 313 316 318 323 326 325 324 326 328 329 331 333 332 329 329 329 331 329 329 329 331 333 333 333 334 336 335 336 335 337 340
309 311 308 307 310 309 310 309 307 308 307 309 310 311 313 313 316 319 322 325 318 322 328 329 330 333 333 330 330 330 330 331 333 333 329 331 332 332 333 333 334 334 335 335 338
309 309 309 307 310 310 309 308 308 308 308 309 310 310 312 314 318 320 321 320 317 321 325 328 330 334 335 332 330 330 330 330 331 330 333 330 333 334 332 333 332 334 334 335 336
309 311 310 308 308 309 309 308 308 307 308 308 309 310 312 313 314 318 319 318 317 318 316 320 329 333 336 335 331 330 330 330 330 333 331 332 332 332 332 332 333 334 334 335 336
308 309 308 309 310 308 307 308 307 308 307 307 309 310 309 312 313 315 316 318 318 317 320 323 329 331 332 333 332 332 330 330 330 331 332 332 333 333 332 332 333 332 334 334 335
307 307 307 306 308 307 308 308 307 307 307 308 308 308 309 310 311 312 313 314 317 318 320 322 326 329 332 332 331 330 332 330 330 330 331 331 332 334 333 331 331 331 332 331 333
303 303 305 306 307 308 307 307 307 307 306 307 308 308 307 309 308 308 309 310 312 314 315 319 323 328 331 331 330 331 331 331 331 331 330 331 332 333 333 333 332 332 332 332 332

GFSSW_850_thetae_054.txt.gz
Theta_e
303 303 303 303 304 304 304 305 306 308 312 318 320 320 318 315 312 311 313 317 318 318 316 326 323 333 345 351 348 347 353 356 353 350 350 347 347 347 347 352 353 353 351 349 348
302 302 302 303 303 303 304 304 304 305 306 309 313 317 318 318 315 314 316 318 318 319 317 325 325 333 343 347 347 348 352 357 352 346 347 344 346 346 346 348 351 353 352 350 349
302 303 303 303 303 304 304 304 304 305 306 310 311 312 315 317 318 321 322 319 318 318 318 326 327 330 341 344 345 348 353 349 349 345 346 345 343 344 345 347 353 353 352 350 350
303 303 303 303 304 304 304 305 305 305 306 310 314 314 314 316 326 327 321 319 319 318 318 323 330 330 338 342 344 348 347 344 346 346 345 344 344 343 344 346 350 352 351 350 349
302 303 303 303 304 304 304 305 305 306 308 310 316 316 313 320 322 323 322 319 318 318 319 322 328 332 335 339 342 345 348 348 347 348 344 343 345 344 343 345 348 351 350 350 350
302 303 303 303 304 304 304 305 306 306 308 310 315 316 313 324 326 325 325 319 321 319 319 322 325 332 335 338 342 344 344 347 346 345 348 348 346 343 341 343 347 350 350 351 350
302 303 303 303 304 304 304 305 305 306 308 310 314 315 318 323 327 322 323 325 324 323 320 323 326 332 335 339 340 341 344 344 347 346 346 344 348 349 345 343 345 349 350 350 351
302 303 303 303 304 304 304 305 306 310 312 311 316 314 321 326 326 323 319 322 325 328 324 325 329 333 335 339 340 341 343 347 345 348 347 346 354 346 345 347 346 347 348 349 350
302 303 303 303 304 304 305 310 311 312 315 315 320 321 325 326 326 326 325 322 325 330 330 330 331 333 335 339 342 343 347 347 348 346 346 345 351 348 346 348 348 347 347 348 348
302 302 303 303 304 306 309 312 313 316 325 321 323 326 325 325 326 326 326 322 325 330 331 332 332 334 335 338 343 344 342 346 347 347 347 346 349 345 345 345 347 348 347 347 347
302 302 303 303 306 310 311 311 311 323 312 319 326 323 324 328 324 324 324 323 325 330 333 332 334 337 336 337 338 340 338 340 341 341 347 344 351 347 344 343 346 349 347 346 346
302 303 303 303 307 310 312 310 309 309 311 311 312 314 318 321 324 325 323 323 326 332 332 334 334 333 333 335 337 339 339 337 338 342 344 344 352 347 343 347 348 349 349 347 346
302 303 302 303 308 311 312 309 309 310 311 311 312 314 314 316 320 327 322 324 327 331 334 334 334 332 332 333 334 339 340 339 337 344 344 345 346 351 349 351 351 350 350 349 348
302 303 303 304 309 312 311 308 309 310 313 318 319 319 316 316 319 322 324 326 330 331 334 334 333 332 333 333 333 334 338 339 338 344 347 344 350 350 345 345 347 348 350 350 349
303 303 303 308 308 312 308 308 309 312 319 322 321 320 321 318 321 320 325 324 330 332 334 336 334 334 333 333 333 333 334 339 338 337 339 345 346 341 344 344 343 346 348 348 350
304 303 303 308 310 310 308 308 311 316 317 321 321 321 322 322 320 320 321 325 325 330 333 335 334 333 331 331 332 331 331 333 335 335 339 338 343 345 342 345 344 343 346 348 348
305 303 306 308 310 308 308 310 314 314 315 316 317 316 317 320 323 321 323 327 326 331 333 334 336 332 330 329 330 330 329 332 332 336 337 336 337 342 341 343 342 344 344 346 349
307 306 309 310 309 308 309 313 314 313 313 315 314 314 315 319 322 323 324 327 325 328 331 332 334 334 331 330 329 329 329 331 335 335 335 335 338 338 340 340 341 343 343 344 346
308 310 312 309 307 308 311 314 313 312 312 312 311 312 314 317 318 323 326 325 328 325 331 333 332 332 332 330 330 329 329 329 329 331 333 333 335 335 338 338 339 337 342 344 345
309 311 312 311 308 310 313 313 312 311 310 310 309 309 310 312 313 317 323 326 327 328 326 329 332 331 331 331 329 330 330 329 330 332 334 332 337 338 338 340 339 338 338 342 344
310 313 311 310 309 311 313 311 311 310 309 309 308 309 310 310 314 314 318 322 325 324 328 327 330 330 332 332 330 329 331 329 328 330 331 333 334 337 341 339 339 338 338 338 343
310 315 313 310 311 312 312 311 309 309 309 309 310 309 310 311 313 315 317 321 321 322 324 328 328 331 330 332 331 330 330 331 334 334 332 332 333 334 337 339 338 338 338 337 339
310 311 312 311 312 312 311 311 309 309 310 309 309 309 310 311 312 316 319 319 318 320 322 323 329 331 331 333 333 332 331 330 332 331 335 333 332 335 334 335 337 337 336 337 338
308 311 311 310 310 311 311 310 309 308 309 309 310 309 309 309 310 313 315 316 316 318 321 320 326 331 334 334 334 333 331 331 330 335 332 333 333 334 334 334 334 336 335 336 339
306 309 308 311 309 308 310 309 309 310 309 308 310 310 310 310 310 312 314 314 317 318 320 323 329 331 332 332 334 332 330 331 333 333 334 333 336 336 337 335 335 337 337 338 339
306 307 305 306 307 308 310 310 310 309 308 308 307 310 310 309 310 310 311 313 314 315 317 320 327 329 332 332 333 335 332 331 332 331 331 333 334 335 336 335 335 336 335 336 336
306 305 304 305 307 308 309 309 309 309 309 307 308 309 309 308 308 309 308 309 311 313 315 319 322 327 331 332 333 335 334 333 332 332 332 334 336 338 337 337 337 335 334 333 333

GFSSW_850_thetae_057.txt.gz
Theta_e
302 303 303 303 303 304 304 304 304 304 305 306 307 313 318 320 319 316 314 317 316 316 323 324 319 326 339 350 352 353 355 353 355 354 351 346 349 350 352 352 352 351 350 348 348
303 303 303 304 304 304 304 304 304 305 305 306 308 311 312 315 319 320 318 316 316 318 317 321 327 324 330 343 350 352 346 355 351 350 350 347 347 350 352 353 351 350 350 348 348
303 303 303 304 304 304 304 304 305 305 306 306 308 312 313 312 318 323 323 321 316 318 318 317 323 324 327 339 344 347 350 350 346 347 347 344 344 346 351 354 350 349 349 348 349
303 303 303 304 304 304 304 305 305 305 305 307 310 315 315 313 326 325 321 320 317 318 318 319 321 325 327 337 343 347 348 347 345 346 345 344 345 345 349 353 350 348 348 349 349
303 303 304 304 304 305 305 305 305 305 305 307 309 315 316 313 321 326 322 321 319 317 318 318 320 325 327 331 339 343 347 345 344 345 346 347 344 344 354 353 351 348 348 350 349
303 303 303 304 304 305 305 305 305 305 307 310 309 313 314 319 322 326 324 324 319 318 318 319 321 324 330 330 335 339 346 346 346 343 347 348 346 345 353 352 351 350 350 349 349
303 303 303 304 304 305 305 306 310 310 310 311 312 313 315 315 324 326 326 325 321 319 319 319 321 323 329 331 332 335 340 347 346 346 346 348 349 349 345 351 351 351 350 349 349
303 303 303 304 304 306 310 311 312 312 313 313 314 315 316 315 323 324 326 324 323 322 319 319 321 321 323 332 334 336 338 343 342 345 346 348 354 346 344 346 351 351 350 350 348
303 304 304 304 304 309 311 310 311 312 317 321 319 319 322 324 323 326 322 320 325 325 325 322 321 321 323 331 333 336 341 341 342 343 346 347 349 344 341 346 349 350 351 350 350
303 304 304 304 304 310 312 310 310 322 314 319 322 322 320 321 326 326 324 322 322 325 328 325 324 323 327 331 335 338 339 339 344 343 345 347 347 342 342 347 348 347 349 351 350
304 304 305 305 305 311 312 311 309 313 311 310 311 318 317 324 325 327 326 326 323 325 329 330 330 330 330 331 333 338 340 340 340 343 345 346 347 347 347 347 348 347 345 347 350
304 305 305 306 306 312 313 310 309 309 309 310 310 311 313 317 316 323 325 326 324 324 327 330 332 331 331 332 333 335 336 338 337 338 343 348 349 347 344 344 343 345 346 346 348
306 305 305 306 307 312 313 309 308 309 309 311 313 311 312 312 314 317 321 325 323 323 328 330 332 332 332 333 334 334 335 336 338 336 342 348 350 348 344 344 345 347 347 347 347
309 306 306 304 307 309 312 308 308 309 310 315 316 318 316 313 314 316 321 323 324 323 325 330 331 333 332 332 332 333 334 336 338 339 344 340 351 348 348 348 344 346 348 347 346
308 309 306 304 305 310 309 308 309 311 316 320 316 316 315 316 317 317 320 320 323 324 325 328 332 331 332 331 330 330 331 333 335 338 339 342 343 351 347 347 346 346 349 343 347
307 309 306 307 308 310 308 309 311 312 317 314 314 313 313 314 317 320 320 319 322 325 326 328 331 332 331 331 331 331 331 331 331 334 338 334 342 341 347 346 346 348 349 348 348
306 309 308 309 308 308 308 309 312 313 314 313 312 311 311 312 314 316 316 320 319 323 325 329 331 331 332 332 330 331 329 329 330 334 338 330 336 338 339 339 346 349 349 348 348
305 310 310 311 309 308 308 309 314 314 312 311 310 310 310 310 310 311 313 316 322 323 323 327 330 332 333 332 331 330 329 327 328 329 332 328 331 333 333 337 340 348 349 350 349
305 313 313 313 310 310 309 312 313 311 311 310 309 308 307 309 310 310 313 314 318 319 324 324 328 332 333 333 330 327 328 325 324 327 328 329 330 330 331 331 334 339 347 349 349
308 313 313 312 311 311 310 312 312 311 310 309 308 308 308 308 309 310 312 314 315 320 320 323 323 326 331 333 332 327 326 326 325 326 328 329 330 332 330 331 331 332 340 344 348
306 312 314 313 312 311 311 312 312 310 309 308 308 308 308 308 310 310 311 313 317 318 317 320 322 324 325 332 333 328 326 325 323 323 325 329 330 328 331 331 331 332 336 343 345
307 310 311 311 312 312 312 311 311 310 309 309 310 309 309 309 308 309 310 312 315 315 317 319 320 325 324 325 329 329 327 325 326 324 324 324 327 331 330 332 332 333 335 341 344
307 309 310 310 312 310 310 310 310 309 309 309 309 309 308 309 308 309 311 312 314 314 315 316 320 324 327 325 325 329 327 326 324 325 325 325 326 331 330 333 333 334 336 335 343
308 309 309 309 309 309 308 310 310 310 310 309 308 309 309 310 308 309 311 313 312 313 315 319 320 323 325 327 326 329 329 326 325 326 326 328 327 332 333 332 333 335 336 337 336
307 308 307 307 307 307 308 308 310 310 310 309 310 309 310 310 309 310 311 310 310 314 315 314 318 321 323 327 329 330 330 328 326 326 328 327 330 331 333 334 336 339 337 338 337
307 307 306 305 306 306 308 308 309 310 309 308 309 308 308 307 308 307 311 310 310 311 312 312 316 320 327 329 330 332 332 329 329 328 327 327 327 332 333 336 336 337 336 339 342
307 307 306 305 305 306 308 308 309 308 309 308 308 309 307 308 308 307 308 308 308 311 310 311 314 318 327 329 331 332 332 333 328 329 328 328 328 334 333 336 335 335 334 337 337

GFSSW_850_thetae_060.txt.gz
Theta_e
303 303 303 304 304 304 304 304 305 305 305 305 306 307 310 315 319 320 319 316 316 316 319 318 320 327 333 348 351 352 358 354 354 355 352 348 351 353 351 351 351 350 344 340 347
303 303 303 304 304 304 304 304 305 305 305 305 306 307 310 312 315 321 324 322 315 315 315 320 319 332 336 344 349 352 355 356 349 349 350 348 350 352 351 351 351 349 343 344 347
303 303 304 304 304 304 304 304 304 305 304 305 306 309 312 315 314 323 321 320 320 314 316 321 322 323 324 329 343 348 353 348 348 347 348 347 348 352 351 352 350 347 345 344 348
303 303 303 304 304 304 304 304 304 305 306 305 307 308 313 316 322 324 322 319 317 315 315 318 321 322 321 324 332 343 345 346 346 346 346 345 345 353 352 350 350 348 345 347 348
303 304 304 304 305 305 305 306 307 309 309 308 309 310 313 313 314 324 321 322 318 316 318 317 317 318 321 324 327 339 342 346 347 345 344 345 346 352 352 350 349 348 348 347 347
304 304 304 304 305 305 308 310 311 311 311 311 311 311 312 315 319 321 322 323 322 316 317 318 318 321 322 324 327 334 336 345 344 341 342 347 350 353 350 349 348 348 348 347 347
304 305 305 305 305 305 310 310 310 309 312 311 312 312 313 311 317 325 325 325 324 319 318 318 320 321 323 326 327 327 330 337 345 342 347 346 348 354 350 348 348 348 348 349 348
304 305 306 306 306 306 311 311 309 315 315 318 317 315 312 313 314 317 322 325 326 321 318 319 318 320 319 321 321 329 329 332 341 343 347 347 351 350 351 349 348 348 349 349 348
306 306 306 306 306 306 311 311 309 316 314 313 319 320 318 316 322 322 325 327 325 321 318 318 318 318 319 319 319 327 331 334 336 343 348 348 351 345 351 350 349 349 349 349 349
309 308 308 307 306 307 312 310 308 310 322 311 321 320 317 319 321 324 324 325 323 323 320 319 319 315 316 318 321 328 335 335 337 345 348 350 347 343 346 351 350 350 349 348 348
309 310 310 309 306 308 312 309 308 308 309 308 307 311 309 311 316 323 325 324 325 324 321 321 320 320 319 319 322 330 333 336 336 344 350 350 346 345 343 345 350 350 350 349 348
307 308 309 309 307 310 312 308 308 307 307 311 311 309 310 310 309 320 322 325 324 322 322 326 326 323 324 325 326 329 332 335 336 336 342 349 349 347 343 342 348 350 351 350 349
304 306 309 310 307 307 311 308 308 308 307 309 314 313 313 312 310 315 319 321 324 321 322 326 329 328 330 329 329 329 330 332 334 335 344 347 350 346 342 344 346 347 348 349 350
304 304 308 310 307 309 309 308 310 309 305 311 314 314 313 313 312 316 315 317 322 323 320 322 326 329 330 331 329 330 330 332 334 335 341 345 353 348 346 346 344 344 345 346 346
303 304 307 309 307 308 307 309 310 310 309 315 311 312 311 311 313 312 315 316 318 322 319 322 326 329 330 331 330 330 330 331 332 332 334 341 348 347 346 346 344 342 344 345 346
303 305 311 309 308 308 308 310 311 309 314 311 310 309 308 309 310 310 312 314 318 318 321 322 323 327 329 330 330 330 328 327 327 326 331 332 339 340 347 345 342 340 343 345 347
304 307 312 309 309 309 309 310 307 310 311 310 308 307 307 307 308 310 311 312 318 318 317 320 323 324 326 329 329 329 326 328 328 329 330 327 332 336 345 343 342 342 341 343 347
304 312 312 310 310 310 310 306 311 312 309 309 307 307 307 307 307 309 309 310 317 318 320 320 322 323 326 328 329 327 328 328 331 328 330 327 332 333 336 343 342 343 342 342 347
303 313 312 311 312 311 310 307 310 308 308 308 306 306 306 308 308 309 308 311 314 316 318 320 323 326 326 327 329 329 328 326 323 322 324 326 328 327 326 332 334 342 343 343 346
303 312 311 312 312 312 305 308 309 310 308 307 306 307 306 306 308 307 309 310 314 315 314 317 319 321 323 325 329 330 325 327 319 330 327 323 326 330 327 327 326 340 343 345 347
305 309 311 310 311 311 306 306 310 309 309 307 307 307 306 307 307 306 308 309 312 314 314 315 316 321 320 322 325 331 330 324 324 319 326 324 326 324 326 326 327 333 345 346 348
306 305 310 310 308 307 307 307 309 310 309 307 308 308 307 308 307 307 307 310 311 313 314 315 317 319 320 321 322 327 327 324 325 322 319 321 326 325 325 326 326 327 342 347 348
306 308 309 309 305 305 306 307 309 310 310 309 308 307 307 309 308 307 309 310 312 312 314 315 320 322 322 321 322 322 324 320 317 319 320 324 326 323 323 326 327 329 330 345 348
307 303 307 306 306 305 306 308 308 309 309 309 309 308 307 307 306 308 309 311 312 311 314 314 316 319 321 319 319 321 322 323 321 322 321 323 325 323 324 325 329 328 330 340 347
307 304 306 302 304 304 305 306 308 309 309 308 309 309 308 308 307 307 308 308 309 311 313 313 314 313 312 314 318 322 323 327 323 323 324 323 323 323 322 325 330 330 332 338 345
306 307 305 305 305 305 304 306 309 308 307 308 308 308 307 305 305 306 307 306 307 311 311 310 313 310 311 316 321 325 327 329 328 324 323 323 324 324 324 332 332 335 337 337 346
307 307 306 305 305 306 305 307 307 307 307 308 308 308 307 307 307 306 307 307 306 310 309 309 310 311 314 321 325 330 326 330 328 324 323 325 323 329 331 332 334 334 336 338 344

GFSSW_850_thetae_063.txt.gz
Theta_e
303 303 303 304 304 304 304 305 305 304 304 305 306 306 307 309 311 316 321 320 315 315 321 317 318 325 335 344 352 352 355 352 352 355 353 349 350 352 351 350 350 347 344 342 342
303 303 303 303 304 304 304 305 304 304 305 306 305 306 307 309 312 313 323 322 319 315 319 319 323 333 344 347 348 350 353 354 349 349 350 348 352 351 351 351 348 343 343 342 346
303 303 304 304 304 304 305 306 308 308 308 308 307 306 307 310 313 320 320 323 321 315 317 319 321 338 333 336 346 350 354 350 348 348 347 348 350 352 351 352 348 340 341 344 347
304 305 305 305 304 305 306 309 310 310 311 310 310 308 309 311 317 321 321 321 322 314 314 320 322 328 321 325 333 342 346 350 349 347 348 347 350 352 352 351 350 344 343 346 347
305 305 306 306 306 306 306 310 310 310 309 309 310 310 310 311 312 320 322 320 321 315 314 322 323 323 320 321 326 334 336 341 345 345 346 346 346 352 352 351 348 341 346 346 347
307 307 307 307 307 306 306 310 311 309 312 314 311 311 311 312 313 319 320 323 319 316 316 322 323 323 321 321 326 329 331 334 339 343 343 348 352 352 350 350 343 343 346 346 347
310 310 309 308 307 307 307 311 310 309 314 312 316 312 312 311 314 323 320 321 321 316 316 316 317 321 320 322 323 324 325 326 331 342 348 348 349 353 350 348 346 345 345 346 347
308 310 310 310 308 307 307 310 310 308 315 316 311 317 315 311 311 313 316 324 323 317 317 317 317 318 319 320 320 326 324 326 328 342 346 345 350 351 348 348 347 347 347 346 347
307 308 309 310 309 307 307 310 309 309 314 315 313 321 318 318 320 321 319 319 325 320 317 317 318 318 319 318 317 320 326 329 331 343 347 348 350 351 348 348 348 348 347 346 347
304 305 307 309 309 307 310 310 308 309 311 309 315 317 316 317 314 317 320 323 326 323 318 318 318 314 313 314 323 320 329 330 331 337 346 348 348 351 348 348 348 347 347 348 347
304 304 305 308 310 308 311 308 308 308 308 307 309 308 311 312 312 315 319 323 325 320 316 317 315 316 316 316 320 325 330 331 332 335 347 348 346 348 350 349 348 347 348 348 347
303 303 305 306 309 306 310 307 308 307 306 309 312 310 311 310 310 316 319 324 322 320 320 318 317 317 317 317 318 319 322 326 330 343 345 347 347 345 350 350 349 348 348 348 348
303 304 305 309 309 307 308 307 308 308 305 309 313 311 310 311 310 311 314 318 322 321 322 323 323 321 321 320 320 320 322 325 331 342 345 347 352 346 345 346 350 350 349 348 347
303 304 307 311 307 307 307 308 309 309 304 310 311 311 310 312 312 311 313 314 318 323 320 321 323 325 324 325 324 324 325 328 330 333 341 345 348 346 345 345 342 345 350 349 348
303 307 311 309 309 309 309 310 310 310 309 312 309 310 309 308 309 310 312 315 315 318 320 322 321 323 327 327 328 327 327 328 329 331 332 343 346 346 344 347 343 343 348 350 349
303 311 312 309 310 310 310 310 310 308 311 309 309 307 307 307 309 310 314 316 316 317 316 319 322 322 324 327 328 329 328 328 327 329 333 331 343 335 346 345 344 342 345 346 349
303 312 311 310 311 311 311 310 306 307 308 308 307 306 305 306 307 309 315 315 317 318 319 320 319 320 323 325 326 328 324 328 328 328 332 325 330 333 340 342 342 342 343 344 345
304 312 311 311 312 311 311 306 309 310 308 308 307 306 307 306 306 308 308 312 315 316 318 319 321 319 321 323 325 327 327 327 329 327 330 324 328 330 333 341 342 342 342 343 344
304 311 312 312 312 311 311 305 309 308 307 307 305 305 305 307 307 307 308 310 315 313 316 319 321 318 319 320 323 325 328 325 324 321 321 325 325 326 328 331 339 342 341 341 342
304 310 312 311 311 312 305 306 307 308 308 306 306 306 306 306 306 306 308 311 313 313 313 316 317 318 318 319 322 324 323 327 320 331 329 324 325 330 327 326 338 340 341 341 340
305 310 309 310 311 310 305 306 308 309 309 306 306 306 306 307 306 306 307 309 312 312 313 314 315 318 317 320 320 323 326 323 324 322 330 327 328 320 325 326 326 334 340 341 341
305 304 308 309 307 304 305 306 307 309 309 308 307 307 307 307 307 306 307 308 313 312 313 314 314 318 318 318 318 319 319 326 327 325 318 322 329 323 322 323 323 325 330 334 340
306 307 307 308 303 302 304 306 308 308 309 309 310 309 307 307 306 306 308 310 312 311 312 313 318 317 319 318 316 316 317 317 319 317 321 324 328 321 320 322 324 325 328 339 341
306 303 306 305 304 304 304 306 307 308 309 309 309 308 308 307 306 307 307 310 311 310 315 314 313 314 319 317 314 315 314 314 318 319 329 324 325 322 321 320 320 323 326 328 338
306 303 304 301 303 303 303 304 308 309 309 308 308 308 308 307 305 305 307 307 308 313 312 311 313 314 313 312 313 313 313 315 317 321 320 326 321 321 319 320 321 327 329 331 330
305 305 305 305 305 305 302 305 308 307 307 307 308 308 307 305 305 306 304 306 306 308 309 307 311 311 313 313 313 314 315 318 321 323 323 321 321 320 329 338 338 334 332 328 335
306 306 306 306 305 306 305 307 307 307 308 308 307 307 307 307 307 306 307 305 304 306 306 306 311 312 312 312 312 322 322 326 327 325 325 323 326 327 339 341 340 340 340 334 339

GFSSW_850_thetae_066.txt.gz
Theta_e
303 303 304 304 304 304 305 306 307 307 307 307 306 306 306 307 308 309 317 322 318 314 313 322 329 331 336 344 350 351 354 351 350 354 351 349 351 350 351 348 348 345 343 341 340
304 304 305 305 305 305 305 306 309 309 310 310 309 308 307 307 309 310 314 316 321 314 319 316 327 330 342 344 348 349 351 351 346 349 349 349 352 351 350 350 344 345 343 341 340
305 306 306 306 305 305 305 306 309 309 309 309 309 309 309 308 310 318 319 320 319 314 318 317 319 331 339 345 345 349 353 349 349 349 347 350 351 351 350 351 344 342 342 341 340
309 309 308 307 307 306 306 306 309 310 309 309 312 311 310 309 314 321 322 320 319 314 318 318 327 333 327 327 342 344 344 349 350 348 346 346 351 351 350 350 350 346 342 341 342
308 309 310 310 309 308 307 306 309 310 310 310 312 311 310 310 310 313 321 320 320 316 318 321 333 326 325 325 327 339 336 341 345 344 345 346 350 352 351 351 349 344 341 343 344
307 308 309 309 310 310 308 307 309 310 308 310 311 312 311 310 310 316 315 322 321 318 319 319 327 328 324 321 325 329 333 334 336 337 339 344 349 349 350 349 343 342 343 344 344
304 305 306 308 309 310 309 307 308 310 308 312 315 312 312 311 311 321 320 320 320 316 315 318 320 322 320 320 322 326 324 323 325 333 344 350 351 352 348 345 343 344 345 345 346
304 304 305 306 308 310 308 308 309 308 308 309 309 314 312 313 311 314 318 322 319 315 316 321 319 320 319 319 318 321 322 326 327 327 346 345 347 350 346 342 344 346 345 345 346
303 304 304 306 307 309 308 309 308 308 309 309 313 314 316 318 317 317 313 319 322 315 316 318 318 317 318 316 316 316 325 325 328 331 346 346 347 349 348 344 342 345 345 345 346
304 304 305 306 308 308 307 307 307 308 308 311 313 313 313 311 312 314 316 321 323 316 317 318 317 313 311 314 319 319 323 327 331 332 345 347 347 349 348 347 345 344 344 345 346
304 304 306 307 309 307 308 307 308 308 308 307 309 308 311 310 311 313 318 324 323 320 315 315 313 316 315 315 319 320 328 331 330 329 345 346 346 351 348 347 347 347 346 345 345
303 304 308 311 309 307 307 308 308 309 307 309 312 309 309 310 311 312 315 323 320 317 315 315 315 314 314 314 317 318 320 321 325 330 340 341 346 349 348 347 347 347 347 346 346
303 304 310 312 308 307 307 309 310 309 305 309 311 310 309 309 310 310 314 314 321 319 318 315 316 316 315 315 315 315 318 320 328 333 343 346 348 347 349 348 347 347 347 347 346
303 305 312 309 308 309 309 311 310 309 303 308 310 309 310 310 310 309 313 313 316 322 319 320 320 318 317 317 316 314 317 320 325 329 341 344 348 345 345 351 349 348 347 347 347
303 309 311 308 309 310 311 310 310 308 306 309 308 309 309 308 308 310 314 314 314 317 319 320 320 322 320 318 318 318 320 321 324 328 330 337 339 336 343 347 349 349 348 347 347
303 310 310 310 311 311 310 310 309 306 308 308 308 306 306 306 308 309 314 315 315 317 316 317 318 320 321 323 322 325 325 324 325 327 333 330 342 340 343 345 344 344 348 349 348
304 306 311 311 310 311 311 310 304 305 307 307 306 305 305 304 306 307 314 313 314 316 318 318 319 318 320 321 323 325 324 327 328 329 332 326 330 336 333 341 341 343 342 345 349
304 307 311 311 311 311 311 305 307 308 306 306 306 305 306 305 305 307 309 313 313 314 315 319 319 319 317 320 322 324 324 326 330 327 330 323 329 331 329 330 339 341 342 342 345
305 310 311 311 311 312 310 305 306 307 307 306 304 305 304 306 306 306 307 314 313 311 314 317 319 316 318 317 319 323 327 323 324 320 322 324 323 324 326 328 335 339 341 342 344
307 310 311 309 310 311 304 305 307 309 309 306 305 305 306 306 306 305 308 312 312 311 311 315 309 315 316 317 319 319 321 326 320 332 331 324 323 330 326 328 327 338 340 341 343
306 310 309 309 311 310 304 306 307 308 309 307 306 306 306 306 305 305 306 310 311 311 312 312 312 311 315 318 319 319 320 321 323 324 331 328 329 320 325 326 326 331 337 340 341
305 304 308 310 305 302 304 304 307 307 309 308 307 306 306 306 306 305 305 308 312 311 312 313 310 315 315 316 316 317 319 317 322 324 318 325 329 324 322 322 323 325 335 337 340
305 306 307 308 302 301 302 305 307 307 308 308 309 307 306 306 306 306 307 309 312 311 311 310 312 313 313 315 313 315 314 311 311 311 322 326 327 323 325 321 322 324 326 333 339
306 303 305 305 304 302 304 304 306 308 308 307 308 307 307 307 305 305 306 309 310 310 314 312 307 310 313 315 313 314 314 313 313 316 318 324 325 323 322 321 321 322 324 325 328
305 302 303 301 303 304 302 303 306 308 307 308 307 308 308 309 307 305 306 305 306 310 311 308 308 310 310 312 313 313 314 314 314 314 317 320 322 322 321 321 322 330 334 333 329
305 305 305 305 304 305 303 305 306 307 306 307 307 308 307 307 307 306 306 305 305 307 308 305 305 310 309 311 312 313 313 315 316 316 315 318 320 323 335 338 337 337 339 340 337
305 306 306 306 306 306 306 307 306 306 308 307 307 306 306 306 307 307 306 305 304 306 305 307 307 310 310 310 311 316 316 318 320 318 322 324 324 327 338 332 327 327 332 338 342

GFSSW_850_thetae_069.txt.gz
Theta_e
306 307 306 306 306 306 305 305 307 309 309 309 309 309 308 307 307 308 311 317 321 314 313 334 340 339 342 346 350 352 356 356 352 353 352 350 352 351 350 346 347 344 344 343 343
309 309 309 308 308 307 306 306 306 309 309 309 309 309 309 309 308 309 311 311 318 314 315 330 341 341 341 343 347 351 355 354 348 349 349 350 352 352 351 348 347 345 343 343 344
307 308 308 309 309 309 308 307 307 308 310 310 309 312 311 309 309 315 321 320 316 315 316 332 336 337 335 341 344 348 354 351 350 350 348 351 353 352 352 353 348 346 344 344 345
305 306 307 307 309 309 310 308 307 308 310 309 308 311 311 309 314 321 321 321 317 315 318 330 335 331 330 338 339 349 348 350 350 349 348 350 352 352 351 351 350 346 344 344 345
304 304 305 306 307 309 310 310 308 308 309 309 310 311 310 310 310 310 316 321 318 315 321 327 330 327 326 328 332 341 342 342 346 345 343 345 350 351 352 351 347 345 344 344 344
304 304 305 306 306 308 310 309 308 308 309 308 313 312 312 311 310 315 316 319 318 319 325 326 327 326 325 327 327 330 335 338 338 335 340 341 346 351 350 347 346 345 344 344 344
304 304 305 306 307 308 309 309 309 309 308 309 309 312 311 311 312 316 317 317 317 328 324 326 323 324 322 323 323 329 330 329 330 332 336 344 350 351 348 347 345 345 344 344 344
304 304 305 306 307 308 308 308 308 308 308 309 312 313 313 316 312 315 316 321 321 325 324 321 322 322 320 319 320 322 325 334 334 334 335 347 352 353 346 346 346 345 345 344 345
304 304 305 310 308 308 308 308 307 308 308 312 312 313 315 315 311 313 312 320 320 328 319 320 320 320 318 321 322 324 322 330 335 332 340 350 351 352 346 347 346 345 345 345 345
303 304 305 311 310 307 308 308 308 308 308 311 311 313 311 310 310 311 314 318 320 319 317 318 319 319 319 321 320 322 323 329 336 336 340 349 350 352 347 347 348 346 346 345 345
303 304 305 312 308 307 307 308 309 309 308 308 309 309 310 310 311 313 315 321 321 317 318 317 320 320 319 320 321 324 326 326 333 336 338 342 349 353 350 347 347 347 346 346 345
302 303 308 311 307 307 308 309 310 310 309 309 311 309 309 309 310 310 322 322 321 320 317 317 318 318 318 318 319 322 325 329 330 330 337 339 342 348 351 350 348 346 346 346 346
303 303 310 309 309 309 310 310 310 310 307 309 310 309 309 309 310 309 316 316 323 321 319 320 321 318 317 318 319 320 322 326 328 330 334 342 343 349 351 350 350 348 347 346 346
304 303 310 309 309 310 310 310 310 309 310 311 310 309 309 309 311 310 314 314 318 325 320 321 320 318 318 318 319 320 320 322 324 327 338 343 347 351 351 353 351 350 349 348 347
305 303 310 310 310 310 310 310 309 308 310 310 310 308 308 309 308 310 314 314 317 324 323 324 323 320 320 318 318 319 319 319 321 325 329 332 348 345 349 354 353 350 349 349 348
304 304 309 310 311 311 311 310 308 311 309 310 309 308 309 308 309 310 314 314 316 319 318 325 320 323 322 321 319 319 323 321 321 322 328 331 335 343 344 348 349 350 349 349 348
304 306 309 310 310 311 311 309 311 310 309 309 308 307 308 308 309 311 314 314 318 320 321 320 321 320 322 324 323 322 323 328 326 325 327 331 333 336 338 342 342 346 349 349 349
305 309 310 310 311 311 312 311 310 309 309 309 308 307 308 308 308 310 312 314 312 314 320 322 322 321 321 322 324 325 327 325 329 326 325 330 335 336 334 334 339 342 344 347 350
308 310 309 310 310 310 311 311 311 309 310 309 308 308 308 308 308 309 312 315 312 311 317 321 321 317 319 320 323 325 329 327 327 326 328 328 332 332 331 334 334 335 340 343 345
309 310 310 309 310 310 310 308 310 310 310 309 308 308 308 308 309 308 309 314 311 311 313 315 312 314 318 318 321 324 325 329 329 328 331 329 331 333 335 334 333 336 337 339 342
309 310 310 311 311 310 311 309 309 308 309 310 308 308 308 308 308 308 309 312 312 310 312 311 311 310 314 320 323 323 324 325 328 329 330 332 330 330 332 335 335 335 336 339 342
307 311 309 310 309 305 308 306 306 308 309 310 309 308 308 308 308 308 308 308 311 310 310 313 313 312 311 316 317 317 322 324 328 332 331 330 331 330 331 331 330 331 332 336 340
306 306 308 308 310 307 306 307 307 308 309 309 310 309 309 309 309 307 308 310 311 310 311 313 314 310 308 316 317 319 318 318 319 321 329 332 331 331 331 331 330 329 329 331 339
306 310 307 305 303 305 306 307 308 308 309 308 309 308 309 309 309 308 308 309 308 310 312 312 313 313 312 315 313 317 317 316 318 325 326 328 330 330 331 331 331 329 326 326 329
306 305 304 308 306 306 305 306 307 308 307 307 308 308 308 309 308 309 308 308 307 310 313 313 311 310 309 309 309 310 312 314 317 320 324 326 328 329 330 329 338 337 339 339 339
306 307 305 306 305 306 306 306 307 307 307 308 308 308 308 309 308 308 308 308 308 309 311 311 310 311 309 308 312 312 311 313 315 317 319 321 324 325 328 337 335 334 334 338 340
306 306 306 306 306 308 308 308 307 307 307 307 308 308 308 308 307 307 307 308 307 308 311 311 309 310 307 311 313 314 315 314 315 321 323 326 325 325 334 337 333 333 333 336 338

GFSSW_850_thetae_072.txt.gz
Theta_e
307 308 308 309 309 310 309 308 307 307 309 309 309 309 311 309 308 308 310 313 319 314 317 339 343 344 344 345 348 351 359 357 355 354 355 351 353 351 354 352 350 349 348 348 347
305 305 306 306 307 308 310 310 308 307 308 309 309 309 310 311 309 311 310 310 317 314 330 338 341 343 342 343 345 349 357 355 351 352 353 352 354 354 353 351 350 349 347 348 348
304 304 305 305 306 307 309 309 310 308 308 309 309 309 310 310 314 318 322 315 317 316 334 337 338 340 337 338 342 345 352 351 351 350 348 352 354 354 353 354 351 349 347 348 348
304 304 305 305 306 307 308 310 310 308 308 309 309 310 310 310 320 318 319 321 315 319 334 335 337 335 333 336 336 343 344 351 350 350 348 353 353 353 353 353 352 349 347 347 348
304 304 305 305 306 307 308 309 309 308 308 309 309 311 312 318 315 311 313 320 318 324 334 333 333 331 330 330 332 338 342 345 348 350 348 348 351 352 352 353 351 349 347 347 347
304 305 305 306 307 307 308 309 309 309 309 308 310 312 314 317 312 317 316 320 321 324 331 329 330 327 325 326 329 329 333 339 342 344 345 347 349 350 352 352 351 349 347 347 347
304 305 305 306 310 308 308 308 308 308 308 308 310 312 316 316 312 316 325 325 327 325 328 325 326 325 324 325 325 326 330 331 334 342 343 344 348 353 352 351 351 349 348 347 347
304 305 304 306 311 309 308 308 308 308 308 310 312 316 318 315 314 317 324 327 327 329 326 325 324 325 323 322 321 323 326 331 333 341 342 347 353 352 351 351 351 350 348 347 347
304 304 304 307 312 309 308 308 308 308 309 313 318 320 317 314 314 313 319 325 330 323 326 322 322 324 322 323 323 323 324 327 341 341 345 348 352 355 351 352 352 350 349 348 347
303 304 305 311 310 308 308 308 309 309 310 312 313 320 313 312 312 312 313 323 327 325 321 321 321 324 324 323 324 324 323 326 338 342 346 351 352 354 352 351 352 351 349 348 348
303 303 306 309 308 307 309 311 316 314 313 312 312 312 312 312 312 315 319 324 323 326 324 319 322 322 323 323 324 324 325 326 332 342 346 348 352 354 351 351 352 351 350 348 348
306 304 306 308 309 309 312 312 311 311 315 311 310 311 310 311 315 316 322 322 322 324 322 321 321 323 322 323 323 323 325 326 331 337 343 346 348 349 354 351 351 352 351 348 348
306 304 304 309 309 311 311 310 310 310 314 313 311 311 311 311 313 313 320 323 323 324 324 324 324 322 322 322 322 323 324 326 328 334 339 344 347 345 348 351 349 351 351 349 347
305 304 304 310 311 311 312 310 310 309 316 314 313 311 311 311 314 314 317 321 325 323 323 324 325 323 322 322 322 323 323 323 326 331 340 341 348 347 345 352 351 350 350 350 348
305 304 304 310 310 313 311 311 309 309 317 312 313 310 311 313 313 314 316 318 322 326 325 324 325 325 324 324 323 323 323 323 323 327 333 342 347 344 347 351 352 351 350 349 349
304 306 307 311 311 311 311 311 308 316 315 313 312 312 313 312 313 314 316 318 319 321 326 326 324 325 325 325 323 322 322 322 323 323 328 334 340 344 349 350 352 350 350 350 350
307 309 309 310 311 311 311 310 316 315 312 313 312 312 312 313 313 314 316 317 321 321 323 325 326 326 325 325 324 323 322 327 324 323 323 328 334 339 340 346 347 350 350 350 350
309 309 310 311 311 311 311 315 317 314 314 312 312 312 313 312 313 313 315 316 316 317 322 323 324 326 325 326 327 325 326 325 329 325 323 324 329 334 337 337 341 341 344 347 349
309 310 311 310 311 310 313 318 317 314 313 313 313 313 313 311 312 313 314 316 315 314 317 322 322 323 323 325 325 328 327 327 327 330 330 326 326 331 334 336 338 338 341 344 347
309 311 312 311 311 311 316 314 315 313 313 313 314 312 314 313 313 313 313 315 313 313 313 317 317 320 323 323 324 326 328 329 330 331 332 330 328 328 333 337 338 338 337 339 341
310 314 311 311 312 314 317 314 313 311 311 313 313 313 313 313 312 313 313 313 313 312 313 314 313 316 317 323 325 326 327 329 330 331 333 332 330 330 332 334 336 337 336 337 337
311 317 310 310 314 313 314 312 309 311 311 312 312 312 312 312 312 312 312 312 312 311 312 314 313 315 314 322 321 322 327 327 331 333 332 333 331 331 331 332 335 335 335 335 336
311 312 310 312 316 313 311 310 310 312 311 311 312 312 312 312 312 311 311 310 311 311 312 314 314 315 315 314 316 322 324 326 328 330 333 334 333 332 332 333 332 332 333 333 335
312 317 311 309 309 311 312 311 311 309 310 310 310 311 311 311 312 312 311 310 310 311 312 311 312 313 315 315 316 319 322 323 326 330 330 332 333 332 331 332 334 336 338 336 335
311 311 309 312 310 311 310 309 310 311 309 309 311 310 311 312 311 311 311 310 309 310 311 313 315 314 313 312 312 312 314 316 321 325 329 329 330 332 333 333 335 338 338 338 340
313 312 309 308 309 310 309 310 309 309 309 309 308 309 309 309 310 310 309 310 310 311 311 312 313 312 313 312 311 311 313 314 315 319 324 325 328 329 329 330 332 338 338 339 340
309 308 310 308 310 311 311 310 309 309 309 309 309 309 309 309 309 309 308 309 309 311 311 312 312 312 312 311 311 312 313 314 316 318 320 325 326 328 331 333 337 336 337 338 340

GFSSW_850_thetae_075.txt.gz
Theta_e
305 305 305 306 306 307 308 309 309 308 307 309 309 309 309 310 310 309 315 318 319 316 317 325 334 338 342 343 345 346 355 361 356 356 358 352 353 354 354 354 353 352 353 351 349
305 305 305 306 307 307 307 308 309 309 308 309 309 309 309 310 311 319 319 315 314 315 320 333 337 339 341 342 344 347 350 357 352 353 355 352 351 352 353 352 353 351 351 350 348
304 305 305 306 306 307 307 308 309 309 309 308 309 309 310 310 322 323 320 311 315 317 331 336 337 339 340 339 343 344 349 355 355 351 353 353 353 353 351 352 351 351 351 349 348
304 304 305 306 307 307 307 308 309 309 309 309 309 310 311 312 326 326 321 319 315 317 334 335 336 338 337 339 339 344 343 345 351 350 349 354 353 351 354 353 352 351 351 349 348
304 305 305 305 307 310 308 308 308 309 309 309 309 312 313 323 319 321 316 320 317 319 335 335 336 337 336 334 335 338 342 342 351 351 350 351 353 352 353 351 351 351 351 349 348
305 305 305 305 307 311 309 308 308 309 309 309 309 312 320 322 318 319 324 317 323 323 333 334 334 335 332 331 332 333 337 340 346 348 349 349 351 350 353 352 352 351 351 349 349
304 304 305 305 307 312 309 308 309 309 308 309 310 313 321 320 316 319 325 326 324 326 332 333 331 332 328 328 327 330 332 334 339 343 346 348 352 352 353 352 352 351 350 350 349
304 304 304 306 310 310 308 308 308 309 309 312 313 323 323 317 318 320 325 326 326 326 330 331 329 328 328 326 325 328 329 333 334 336 341 346 353 351 353 352 353 352 350 350 349
303 304 304 308 310 309 309 309 309 309 311 313 323 325 320 317 317 316 325 327 328 329 328 328 327 327 327 327 326 325 327 330 334 335 341 346 351 356 352 352 353 352 350 350 349
307 305 304 310 309 309 311 311 310 312 313 319 320 323 316 316 315 316 318 325 330 326 329 326 325 327 329 328 326 325 326 329 333 338 342 347 351 356 353 352 353 352 350 350 349
307 306 304 310 310 311 313 316 321 321 318 315 315 316 315 315 316 317 318 326 329 326 328 327 326 327 328 328 326 327 327 327 331 339 344 346 350 357 352 352 353 353 352 350 350
306 305 304 309 310 312 314 315 313 314 318 314 314 315 314 315 318 320 322 324 326 331 327 326 326 326 326 326 326 326 326 327 328 331 343 346 347 353 353 352 352 352 353 350 350
306 304 304 308 310 314 314 314 313 313 317 316 315 315 314 315 316 318 323 323 325 327 329 328 326 325 325 325 325 326 326 327 328 331 336 343 347 353 356 354 352 352 352 350 349
305 304 304 309 313 315 316 314 313 313 320 317 316 315 315 315 317 316 320 325 325 324 326 326 326 326 325 325 325 326 326 326 327 329 338 340 347 347 358 357 352 351 352 351 347
304 306 306 307 314 316 314 314 312 313 321 316 316 313 314 316 316 317 317 320 324 326 325 325 326 327 327 326 325 326 326 325 325 327 331 336 341 341 347 352 352 351 351 351 349
307 310 309 315 315 315 314 314 312 317 319 316 315 315 316 315 316 316 318 318 321 323 324 327 324 325 326 327 327 327 326 326 326 325 326 332 338 341 344 347 350 350 349 350 351
310 310 310 312 316 314 314 315 318 318 317 316 316 315 316 317 316 316 318 320 321 323 322 324 327 326 326 327 327 327 328 328 327 327 326 326 332 342 341 345 346 350 350 350 350
311 310 314 313 314 313 314 319 320 319 318 316 315 316 315 316 317 316 317 317 319 318 320 323 325 326 327 327 328 328 327 328 330 328 326 326 328 334 338 343 344 348 349 349 350
311 313 315 315 313 313 317 322 322 320 317 317 317 317 317 315 315 316 317 318 319 318 318 320 323 325 326 327 327 328 328 328 328 330 329 327 327 328 332 336 342 343 348 349 350
312 315 316 314 313 315 319 318 320 316 316 317 318 317 318 318 316 317 318 318 317 315 316 319 321 324 325 326 327 327 329 329 329 332 332 331 330 327 330 334 337 340 344 345 349
315 317 315 314 315 318 322 320 317 314 314 317 318 317 317 317 317 317 318 317 316 316 315 317 318 319 321 325 326 327 328 330 331 330 332 333 333 332 330 333 336 337 339 341 343
316 321 315 315 319 318 320 317 312 315 314 316 315 316 316 316 316 316 316 316 314 314 316 317 317 318 318 320 321 324 327 328 332 334 332 333 333 333 332 331 334 336 337 338 339
317 317 314 316 321 318 316 315 314 315 314 314 315 314 315 315 315 315 315 314 312 314 315 317 317 318 317 317 318 322 325 328 328 331 334 334 334 334 333 333 333 334 335 336 337
317 321 315 315 315 317 317 315 315 312 313 312 313 313 314 314 314 314 314 313 312 312 312 313 316 318 318 319 318 320 320 325 328 330 331 333 333 335 334 335 337 339 340 340 339
316 315 314 317 316 315 315 314 314 314 312 311 313 312 313 314 313 313 313 312 312 312 311 313 315 316 317 317 317 317 319 322 327 329 331 331 333 334 335 334 339 340 340 339 339
317 316 313 314 314 315 312 314 313 312 313 312 312 311 311 312 311 312 311 311 311 312 313 313 315 315 316 316 316 316 316 317 319 321 324 328 330 331 329 332 334 334 340 340 340
312 313 314 312 314 315 314 313 312 311 310 310 310 311 312 311 310 310 310 310 310 311 312 314 315 316 317 315 316 316 316 316 316 318 320 325 328 329 330 331 337 339 338 338 339

GFSSW_850_thetae_078.txt.gz
Theta_e
305 305 305 305 306 306 307 307 308 309 310 309 309 309 309 309 310 310 310 318 320 321 318 322 330 333 339 345 345 346 350 357 360 359 358 355 356 354 352 353 354 354 353 350 349
304 305 305 305 306 307 307 307 308 309 309 309 309 309 309 310 310 314 319 319 318 320 315 322 329 335 338 342 344 346 350 358 353 353 351 351 353 345 353 355 353 353 352 351 349
305 305 305 305 306 308 309 307 308 309 309 309 309 309 310 311 323 326 323 318 314 318 316 326 330 336 339 341 342 345 347 347 347 347 350 351 351 355 355 356 352 354 352 351 349
305 305 305 305 306 307 311 308 308 308 309 309 309 309 312 312 330 329 322 318 313 318 318 330 336 337 339 341 340 344 344 347 345 347 352 354 354 354 352 353 353 352 351 350 349
305 305 305 305 306 307 311 309 308 308 309 309 309 310 313 327 323 322 319 321 311 320 324 335 336 337 338 338 339 339 341 341 345 347 353 350 349 353 347 351 353 352 350 350 348
304 304 305 305 306 308 311 308 308 309 309 309 309 310 314 326 320 320 324 329 321 320 327 336 336 336 337 336 334 336 337 337 343 350 352 352 351 353 353 352 353 352 350 350 348
304 304 304 304 307 310 310 308 308 309 309 309 309 312 323 323 319 319 323 329 328 321 327 336 335 336 336 333 330 330 334 334 339 342 349 349 351 354 353 352 352 352 350 349 348
308 307 304 304 308 310 309 309 308 309 310 312 313 321 329 319 318 320 324 327 327 323 327 334 334 332 333 332 328 328 330 333 334 337 343 347 354 352 351 353 352 352 351 350 348
307 307 306 304 309 311 311 311 309 309 312 317 327 328 328 319 319 319 325 326 328 326 329 333 333 331 329 332 328 328 328 330 333 336 338 343 351 358 352 352 352 351 351 350 349
307 306 306 304 310 312 314 314 312 314 315 317 321 324 320 318 317 318 321 326 328 328 329 330 330 330 330 331 330 328 327 327 331 335 336 338 352 351 347 345 350 351 350 350 350
306 305 305 304 309 313 316 317 323 327 322 320 318 317 317 317 318 318 317 324 329 330 332 331 331 330 330 328 329 328 327 327 328 332 335 337 350 348 342 341 345 351 350 350 350
306 305 304 304 310 314 316 317 316 315 317 316 315 316 316 317 319 322 321 326 329 329 327 331 330 330 326 328 329 329 327 327 328 329 333 342 353 345 343 340 342 347 351 350 350
305 304 304 305 313 315 316 316 315 315 316 318 317 317 316 316 319 321 323 325 327 329 329 327 328 328 328 327 328 328 327 327 328 329 330 338 356 347 343 345 348 352 351 350 351
304 306 306 307 316 317 319 316 315 315 320 319 318 316 316 316 318 318 320 325 326 326 326 329 328 328 326 327 327 327 327 327 327 328 329 331 335 358 353 355 353 352 349 350 349
307 311 309 307 312 319 317 316 314 315 324 319 318 315 316 317 319 318 318 320 325 327 325 326 328 327 327 327 327 327 327 327 326 327 328 329 336 339 357 355 346 345 349 349 346
310 312 313 318 317 318 316 316 315 318 320 317 317 317 317 317 317 318 318 319 322 323 325 326 326 326 327 327 328 327 327 327 327 326 327 328 331 338 357 348 340 344 350 351 347
310 312 312 314 318 317 316 317 319 319 320 318 318 317 317 319 318 318 318 320 320 322 322 321 323 327 325 326 327 328 327 328 328 327 326 326 328 335 343 353 346 344 351 351 349
311 312 315 316 317 316 316 320 322 322 320 318 317 317 317 318 317 318 317 318 319 320 320 321 323 323 327 326 326 328 328 329 330 328 327 327 329 329 333 335 350 352 351 351 351
312 316 316 317 316 315 318 323 323 321 320 319 319 318 318 317 316 317 318 319 320 320 320 320 319 322 325 327 327 328 330 329 329 329 329 328 328 328 331 334 343 345 346 349 346
313 318 318 317 316 317 320 322 322 319 318 319 319 320 320 320 318 318 319 320 319 318 317 318 319 320 324 326 327 327 328 329 330 332 334 330 333 331 331 332 342 346 343 342 348
317 320 318 317 317 319 323 321 319 317 316 318 320 320 320 320 319 319 319 319 318 318 317 318 317 319 320 324 327 328 329 328 329 330 331 332 331 334 333 333 334 346 345 343 346
320 322 317 317 320 321 321 319 315 317 316 318 317 318 318 318 318 318 318 318 315 316 317 317 317 318 319 321 322 326 327 328 331 333 332 333 333 336 335 331 332 334 342 341 340
321 318 316 318 322 320 318 317 316 317 316 316 317 316 316 316 317 317 317 315 314 314 316 316 318 320 319 319 320 320 321 324 326 330 335 333 333 333 334 333 331 332 334 341 343
320 322 319 317 318 319 319 317 317 314 315 314 315 314 315 315 315 315 315 314 313 313 313 312 315 317 320 320 319 320 319 322 324 329 330 332 334 335 336 339 342 342 342 342 342
318 317 316 319 318 317 317 316 316 316 314 313 314 314 313 315 314 314 314 313 313 313 313 314 314 314 316 317 318 318 319 320 321 325 329 330 333 332 333 337 335 341 341 341 341
318 319 316 317 317 318 314 316 315 314 314 313 314 312 313 313 314 313 312 313 313 313 314 314 316 316 316 315 317 318 319 319 319 322 327 329 330 332 330 329 336 340 342 342 343
317 315 316 315 316 317 315 315 314 313 312 312 312 312 314 314 312 312 312 312 312 313 312 313 317 316 316 315 316 317 318 318 318 320 322 324 325 327 330 332 331 336 338 337 338

GFSSW_850_thetae_081.txt.gz
Theta_e
305 305 305 305 305 306 308 308 307 308 309 309 309 309 309 309 309 310 310 312 316 322 322 323 320 329 332 344 348 346 348 355 356 355 348 346 353 355 352 353 352 352 350 350 349
305 305 305 305 305 306 307 310 308 308 309 310 309 309 309 310 311 311 313 313 316 319 319 321 323 331 332 337 344 346 347 352 352 352 349 352 354 352 354 354 354 351 351 349 349
305 305 305 305 306 306 307 310 309 307 308 309 309 309 309 312 323 326 320 315 317 318 319 318 324 330 334 337 340 343 346 350 349 348 347 348 349 350 353 355 355 351 350 347 349
304 304 305 305 306 306 307 311 309 308 308 309 309 309 310 313 330 329 324 320 320 315 318 318 322 328 334 336 339 342 342 345 346 344 350 350 352 354 354 354 352 350 349 347 349
305 305 304 305 305 306 309 311 308 308 308 308 309 309 311 324 324 323 321 320 316 315 316 319 324 330 336 336 338 340 339 343 346 347 347 351 353 348 347 352 352 350 349 348 349
307 308 307 305 305 307 310 310 309 308 308 309 309 309 311 322 321 321 322 325 319 314 318 322 332 336 337 336 335 337 338 338 346 347 351 352 353 349 349 351 352 351 350 349 348
309 308 307 306 304 308 311 310 309 308 309 310 309 310 313 319 320 320 320 324 326 317 319 332 334 335 336 334 336 330 329 329 338 344 353 353 352 349 348 352 351 351 350 348 348
307 306 306 306 305 309 311 311 310 309 310 312 315 317 327 321 319 319 320 325 330 324 321 332 335 336 335 334 333 328 325 327 329 334 343 353 358 354 352 350 352 350 350 348 347
306 306 305 306 305 310 313 313 312 309 312 317 326 328 330 323 320 321 324 326 327 327 322 325 328 333 333 328 329 328 322 325 327 329 335 344 358 353 351 352 353 350 350 349 348
305 306 305 305 305 311 315 315 316 312 316 315 317 325 323 318 317 318 323 326 328 325 325 327 330 330 327 325 328 328 324 323 324 328 332 337 358 354 352 352 352 350 350 349 348
305 305 304 304 305 313 317 318 319 326 320 328 324 322 317 317 318 318 318 325 327 328 326 329 329 328 327 326 326 327 327 325 324 325 330 335 358 356 352 347 350 351 350 349 348
305 305 305 305 308 314 316 317 316 315 315 317 319 315 316 316 318 321 319 321 328 328 330 329 329 329 329 327 328 326 326 326 325 326 327 348 355 350 347 343 348 349 348 350 348
305 307 308 306 315 316 317 317 316 315 315 316 317 316 316 316 318 323 322 324 327 329 327 324 329 329 329 328 326 325 324 325 325 325 325 346 351 344 343 343 340 344 343 348 349
307 310 311 307 317 318 319 317 316 315 315 319 317 317 316 316 317 318 320 322 324 325 326 326 326 326 327 328 326 323 325 326 326 323 323 324 346 348 345 347 345 346 346 347 349
309 310 311 310 311 318 317 317 316 315 321 319 317 316 316 316 318 318 318 319 321 325 324 323 325 326 327 327 325 324 326 325 325 323 322 323 322 348 346 349 348 346 336 342 349
310 310 312 318 318 318 317 317 317 315 321 318 316 316 315 316 317 318 318 318 319 321 321 322 324 324 324 326 325 326 325 324 323 322 320 321 323 344 351 347 343 349 345 348 350
313 310 313 314 318 317 317 317 318 317 319 317 316 316 316 316 317 317 318 318 317 319 319 320 321 321 324 324 323 326 325 323 323 323 323 320 321 322 351 349 345 349 351 348 349
314 312 316 317 317 317 316 318 322 322 320 318 317 317 316 317 317 317 317 316 317 318 315 316 317 320 322 324 324 323 323 323 326 325 324 322 322 323 329 350 347 346 347 341 349
314 315 318 317 317 316 317 322 320 320 319 319 319 319 318 317 317 317 317 316 318 315 317 317 318 318 319 319 323 323 323 323 323 324 326 326 324 324 324 330 345 341 342 345 350
315 318 319 318 317 317 318 321 319 318 317 319 320 320 320 318 319 318 317 317 318 317 316 315 315 317 317 318 321 323 324 325 323 327 328 327 327 327 324 324 344 347 348 350 350
319 321 319 317 317 318 322 321 319 317 317 318 319 319 319 319 318 318 318 315 316 316 316 315 314 316 316 318 318 320 323 323 324 325 326 326 326 327 334 327 338 345 347 350 344
319 322 317 319 320 321 318 317 316 317 316 316 318 317 317 317 317 317 316 315 314 315 315 313 314 315 317 317 317 317 318 324 326 326 327 329 329 331 333 337 332 343 345 346 343
319 320 318 318 320 318 317 316 315 315 314 315 316 315 315 315 316 316 317 315 314 315 314 311 313 314 316 315 317 317 318 318 322 321 324 329 330 332 332 332 336 342 344 346 348
320 319 319 317 317 317 319 317 316 314 314 315 314 315 315 315 315 314 314 314 313 314 313 312 310 311 313 314 314 316 317 317 318 320 324 325 327 332 333 332 336 338 342 346 342
320 317 317 317 318 316 316 316 316 315 314 313 315 313 313 314 313 314 314 313 313 315 313 311 311 311 312 313 314 314 315 317 317 318 319 320 325 330 332 336 334 334 337 339 341
317 317 317 316 316 317 315 316 315 314 314 313 313 312 313 313 313 312 311 311 312 312 311 313 313 314 314 314 314 315 315 316 317 318 318 318 326 329 331 332 331 330 333 333 334
318 318 318 316 315 314 314 314 314 314 313 312 312 312 314 313 312 312 312 312 311 311 310 311 315 313 314 313 313 315 315 315 316 317 318 318 326 326 330 332 331 329 328 331 330

GFSSW_850_thetae_084.txt.gz
Theta_e
305 305 305 305 305 306 306 307 310 307 307 308 309 309 309 309 309 310 311 311 312 322 321 321 320 320 331 339 345 348 350 351 354 354 350 346 350 350 353 350 350 351 349 348 348
305 305 305 305 305 306 306 307 310 308 307 308 309 309 309 309 311 312 315 312 316 319 321 322 319 326 330 332 338 347 345 350 352 352 351 347 345 350 352 352 349 351 349 348 348
304 305 305 305 305 305 306 308 310 309 307 308 308 309 309 310 316 326 321 313 314 318 320 320 322 330 330 332 335 340 347 353 351 349 349 348 351 349 352 352 351 351 349 348 347
306 307 308 307 305 305 306 309 310 308 307 308 308 309 309 312 328 328 322 319 317 317 318 317 321 319 330 333 335 338 340 348 350 349 347 350 351 350 353 352 349 350 348 349 348
308 309 308 307 306 305 306 310 310 309 308 308 308 309 310 316 319 322 321 321 318 319 317 317 318 320 328 332 334 336 338 342 347 347 350 347 353 354 351 352 352 350 350 349 348
309 307 306 306 306 305 307 310 310 308 308 308 308 309 310 316 320 321 320 322 324 317 316 316 323 324 330 332 334 336 335 337 347 349 350 352 353 349 348 352 350 350 350 349 349
308 306 305 305 306 305 307 311 311 309 308 309 311 309 312 313 320 320 319 320 326 314 317 320 327 331 334 332 335 335 328 325 346 351 352 353 354 348 348 351 350 349 348 348 349
305 305 305 305 305 305 309 312 312 311 309 312 316 318 325 322 319 318 318 319 324 328 317 321 325 327 330 335 330 329 323 324 336 348 351 350 356 353 348 354 350 349 348 348 348
304 305 305 304 305 305 311 314 314 311 311 316 326 327 326 325 319 322 322 322 327 327 325 321 322 323 327 327 325 323 329 326 323 347 353 352 355 349 349 353 350 349 349 348 348
305 305 305 304 305 306 315 316 317 316 313 318 314 322 322 318 317 317 322 323 327 327 326 322 323 325 325 322 326 328 327 321 322 323 351 352 356 349 351 354 352 350 349 348 347
305 305 306 306 305 310 317 317 316 319 316 318 325 324 319 317 318 317 321 324 326 325 323 326 325 327 328 325 324 325 325 325 325 325 324 348 356 352 346 352 350 350 350 349 347
305 308 309 306 308 314 316 316 316 315 315 315 316 317 318 317 316 318 318 322 326 326 325 327 327 326 326 326 326 325 325 324 323 324 323 352 357 354 349 352 344 345 349 349 348
307 309 311 308 315 316 317 317 316 315 313 315 317 317 316 316 316 320 321 321 326 326 327 327 327 328 329 327 327 324 323 323 323 323 342 351 355 356 352 351 350 344 350 350 348
309 309 312 309 317 317 317 316 316 314 310 315 316 316 315 316 316 320 320 320 322 327 326 324 325 324 328 327 326 324 323 324 324 322 321 335 336 347 348 345 345 351 350 350 348
312 309 311 313 314 318 317 316 316 315 318 318 316 316 316 315 317 317 318 319 319 320 319 320 324 324 325 325 325 325 324 323 324 322 319 321 323 338 343 345 343 345 347 345 348
313 312 311 315 317 317 316 316 317 311 319 316 315 315 314 315 316 318 318 318 319 318 318 318 321 322 322 324 324 324 323 320 318 318 320 318 319 331 347 345 343 341 345 346 349
314 312 313 315 318 317 316 317 313 314 316 316 314 314 313 313 315 316 316 316 314 316 315 316 317 317 319 321 321 323 319 321 322 320 320 317 319 319 342 343 343 342 343 345 348
314 313 317 317 317 316 316 313 318 319 317 317 317 316 315 315 313 315 313 312 314 314 311 315 316 315 316 316 320 321 319 321 325 323 321 319 322 321 324 341 342 344 344 341 340
314 317 318 317 317 316 316 315 315 316 316 317 316 316 315 315 315 314 314 314 314 312 313 313 316 316 317 316 317 320 321 318 320 320 321 321 323 324 334 333 340 342 345 344 344
318 319 318 318 317 317 313 315 316 315 316 316 317 316 316 316 316 315 313 313 315 314 312 313 314 314 316 315 315 314 315 322 317 324 325 324 324 324 334 337 339 342 345 348 348
321 321 317 319 317 317 313 316 316 315 315 315 315 315 315 315 314 313 312 313 314 314 311 311 311 313 314 313 315 314 315 314 318 318 322 324 324 332 334 338 337 339 342 347 343
320 312 317 318 317 313 311 315 315 313 315 314 314 314 314 313 313 312 313 313 314 314 313 309 308 312 314 314 315 314 313 312 316 322 320 320 325 329 334 335 337 341 342 343 347
319 320 316 317 312 310 313 314 313 312 312 313 313 312 312 312 313 312 314 313 313 312 311 309 307 310 310 311 310 312 313 312 312 312 319 325 325 332 333 335 335 337 343 343 344
317 312 317 317 315 312 313 313 313 313 313 313 311 311 310 310 309 311 311 313 313 313 313 311 304 307 309 310 309 312 314 314 313 312 314 316 317 332 334 334 333 333 334 335 336
317 315 315 312 312 311 311 312 313 312 312 312 310 311 310 309 309 310 309 309 312 312 312 307 308 311 312 312 312 312 313 314 313 313 315 315 316 332 331 331 331 332 331 332 331
316 316 316 313 314 310 309 310 313 312 312 311 310 310 309 309 310 310 309 309 310 309 308 309 310 311 310 312 311 311 311 313 314 317 320 319 324 327 331 329 329 329 330 330 329
318 318 318 313 311 309 310 312 312 312 312 311 311 309 310 311 311 311 311 311 310 310 307 308 309 308 311 310 309 308 311 316 317 322 323 328 324 319 329 326 325 326 327 328 326

GFSSW_850_thetae_087.txt.gz
Theta_e
304 305 305 305 305 305 305 306 308 310 308 307 308 308 309 309 309 309 311 311 312 322 321 321 321 320 320 340 345 347 351 350 352 355 352 349 348 349 352 350 350 351 347 347 347
305 305 307 307 306 305 305 306 308 309 309 307 307 308 308 309 310 313 316 311 311 321 319 321 320 320 329 334 343 346 347 349 350 350 352 349 347 348 351 351 350 348 347 347 347
306 307 308 308 307 306 305 306 308 309 308 307 307 308 309 309 314 326 319 314 313 320 322 321 319 325 328 330 334 340 347 347 351 349 348 347 346 350 353 352 349 347 347 347 348
309 309 308 307 307 307 305 306 309 309 308 307 308 308 309 310 325 324 319 312 316 318 319 321 325 327 327 331 333 336 338 348 350 349 347 348 349 350 351 352 349 348 348 347 348
309 309 307 306 306 306 305 305 309 310 308 308 308 308 309 312 314 321 321 319 316 318 319 319 321 321 324 327 332 334 335 342 347 349 348 351 349 348 352 351 351 348 348 347 348
308 306 305 305 305 305 305 306 310 310 308 308 309 308 309 313 320 320 320 322 319 317 318 317 323 325 324 329 332 334 335 335 347 348 349 351 351 351 351 348 350 349 348 347 346
304 304 305 305 305 305 305 307 311 311 310 309 311 309 310 312 321 321 320 320 325 319 316 317 323 326 330 332 334 333 334 333 346 349 348 352 350 350 349 349 353 351 349 348 347
304 305 305 304 304 305 305 310 313 313 310 311 316 320 317 325 323 321 319 319 322 322 316 317 319 325 326 330 330 327 323 323 342 351 351 351 355 352 350 351 351 350 349 349 348
304 304 305 305 305 305 307 314 314 312 310 315 325 324 325 325 320 319 320 320 320 327 321 319 319 324 324 328 324 322 329 326 339 350 351 351 353 350 351 351 350 350 349 349 348
304 305 308 308 306 306 314 316 319 318 313 317 315 319 321 319 318 319 319 320 321 328 324 322 321 321 322 323 329 329 327 323 323 349 351 352 352 350 350 353 350 349 348 347 348
306 306 309 310 306 313 316 316 315 316 315 316 320 320 319 318 317 317 320 322 325 327 320 321 324 326 327 325 325 325 325 325 324 323 334 353 351 351 347 352 350 349 347 347 348
309 307 309 309 311 315 316 316 315 316 314 315 315 315 317 317 317 318 318 323 325 323 323 323 325 324 326 326 326 326 326 324 323 322 320 339 353 348 349 350 350 349 348 348 347
312 309 309 310 315 317 316 316 316 315 312 314 315 316 316 315 315 318 318 320 325 325 325 326 328 328 327 328 327 325 324 324 324 325 349 350 355 353 347 347 351 348 349 348 348
313 311 309 311 316 317 316 316 316 315 310 315 315 316 316 315 318 321 322 321 322 326 324 326 325 327 326 328 325 325 322 324 323 320 321 335 347 350 351 349 349 350 346 349 348
313 313 309 313 316 317 316 316 316 315 316 317 315 315 315 315 317 317 317 319 319 320 319 323 323 324 323 323 325 325 324 322 322 319 319 319 322 335 349 351 347 347 348 346 349
314 313 311 314 317 317 316 316 316 311 316 315 315 314 313 314 315 317 317 318 317 317 316 318 319 320 320 322 322 324 322 318 315 315 319 319 318 321 349 350 347 345 345 349 349
314 313 315 316 317 316 316 317 312 315 315 317 313 313 312 313 314 315 313 312 312 315 314 314 315 314 315 318 318 319 317 320 320 319 319 316 319 320 329 341 344 343 343 346 349
313 316 316 316 316 316 317 312 316 317 316 316 316 315 313 313 312 313 312 311 312 311 310 313 315 314 315 315 317 319 318 319 323 321 320 315 321 326 332 335 337 337 342 344 347
318 318 318 317 316 316 317 312 314 315 314 315 315 315 314 315 313 313 311 311 313 311 312 312 315 314 315 315 315 317 316 317 316 316 320 320 321 324 334 336 336 337 339 341 342
319 318 317 317 317 317 312 314 314 313 314 315 316 315 314 314 315 312 312 311 313 311 310 313 314 313 314 314 314 312 313 318 315 321 324 322 323 335 339 338 339 342 342 342 342
318 317 316 318 317 317 311 313 313 313 314 313 313 313 313 313 312 311 312 312 313 313 309 310 310 312 312 312 313 311 312 311 314 316 320 322 334 334 338 335 336 337 341 341 343
318 313 316 317 315 309 310 313 314 311 313 312 312 312 312 312 311 311 312 313 313 311 311 307 307 310 313 310 311 312 311 309 313 316 316 318 332 330 332 333 333 334 333 337 343
317 316 316 317 311 308 311 312 312 311 310 311 310 310 309 310 310 311 312 312 312 310 310 309 305 307 309 309 308 309 311 310 308 308 312 319 324 331 332 333 331 331 331 332 336
316 311 315 315 312 310 311 311 312 312 311 310 309 309 308 308 306 309 309 312 313 315 314 309 303 305 306 309 309 312 312 312 309 311 312 314 314 331 331 331 331 331 329 329 330
316 312 312 310 311 309 309 310 312 312 311 310 310 309 309 308 308 309 308 308 309 310 310 305 308 310 309 309 311 311 311 312 313 313 313 315 329 324 329 328 329 331 331 328 327
317 316 314 311 310 309 307 310 312 312 311 310 309 310 308 309 309 310 309 309 309 308 308 306 310 310 309 310 309 309 313 313 315 321 318 320 323 318 323 322 322 324 330 328 326
317 318 315 310 308 308 309 311 312 312 312 311 309 308 309 310 310 310 310 310 309 308 305 306 306 306 308 308 307 308 311 319 319 317 320 323 319 317 322 319 319 320 321 325 324

GFSSW_850_thetae_090.txt.gz
Theta_e
305 305 307 307 308 307 305 305 306 307 309 308 307 307 308 309 309 309 310 311 311 319 322 322 321 323 327 347 346 346 350 350 351 354 351 349 351 348 350 349 351 351 345 344 337
307 308 308 308 308 307 307 305 306 308 309 308 307 307 308 309 309 312 317 311 311 318 319 321 321 324 323 337 345 344 346 349 348 349 350 348 346 348 351 350 348 347 345 341 336
309 309 309 308 307 306 306 305 305 308 309 308 307 307 308 309 313 324 318 311 314 321 320 321 320 325 328 333 337 343 348 344 351 349 348 348 345 348 350 352 348 347 346 339 344
309 309 308 306 305 305 305 305 305 309 310 308 307 308 308 309 326 321 316 312 317 320 320 321 319 327 327 329 332 336 340 346 349 350 348 346 348 345 347 350 348 346 344 345 346
306 306 305 305 305 305 305 305 305 310 310 307 308 308 308 311 312 321 318 312 319 321 321 321 322 325 326 329 332 334 334 338 348 347 347 348 350 350 350 351 348 347 347 346 346
304 304 304 305 304 304 305 305 306 311 310 308 308 308 309 311 321 320 320 316 316 318 319 321 324 326 326 327 331 333 333 335 347 347 349 350 349 350 352 351 349 347 347 346 347
304 304 305 305 305 305 305 304 308 312 311 309 310 310 309 312 321 320 320 321 320 317 319 319 321 323 328 332 333 333 331 334 344 347 348 350 352 352 349 349 349 347 346 347 347
304 304 305 307 307 306 305 306 312 312 312 310 314 320 316 318 321 322 321 320 322 319 317 317 320 324 326 328 327 324 322 322 343 348 350 350 352 350 350 351 350 348 347 346 347
308 305 306 309 309 305 307 313 315 313 310 314 323 321 324 325 322 321 321 319 323 317 318 317 317 322 323 324 324 323 328 323 347 349 351 353 352 351 349 352 353 348 347 347 346
310 307 307 309 307 307 314 317 319 314 312 316 316 318 320 320 320 319 319 319 322 321 320 318 319 319 320 323 331 329 325 324 325 346 350 353 350 350 351 352 352 350 348 347 346
313 310 307 310 308 314 315 315 314 316 315 316 321 318 318 318 316 317 318 319 326 325 319 319 320 322 324 325 324 324 324 325 324 338 349 350 348 349 350 351 350 350 349 348 347
313 312 308 309 312 316 316 316 315 314 314 314 314 315 316 316 316 317 318 323 324 321 321 322 323 324 325 325 324 325 325 325 323 325 326 328 342 348 348 350 350 349 348 348 347
313 313 308 311 315 316 316 316 316 314 311 313 314 315 316 315 315 317 317 323 323 323 322 324 326 325 326 327 326 324 324 324 325 325 346 347 345 350 346 348 350 349 348 347 347
314 314 309 312 316 316 316 316 316 315 309 315 314 316 316 314 317 318 320 322 323 323 323 326 325 327 326 327 325 327 323 324 324 320 320 332 325 345 348 347 347 350 348 348 347
314 313 309 313 316 316 316 316 316 315 314 316 315 314 315 314 318 317 318 319 319 324 323 325 323 325 325 324 324 326 322 322 322 319 318 321 319 321 345 349 347 346 349 348 348
313 310 312 313 316 317 316 316 316 310 316 315 313 313 312 313 315 316 316 317 316 315 316 317 317 319 321 321 322 322 318 315 313 314 318 319 318 316 343 340 344 345 345 348 349
315 315 316 316 316 316 316 317 312 315 314 316 314 312 311 310 311 312 312 311 311 314 312 312 314 312 314 318 317 317 316 318 319 318 319 313 317 331 330 333 335 335 338 346 347
317 317 317 317 316 316 317 311 315 316 315 314 315 314 314 312 311 311 311 312 311 309 309 311 314 312 314 314 315 317 316 318 321 318 319 316 318 330 335 336 337 340 341 339 344
318 318 317 317 317 316 316 311 313 314 313 314 314 314 313 313 312 311 310 310 311 310 312 312 314 312 314 312 313 316 313 314 315 314 319 318 325 324 335 335 335 335 336 338 341
317 317 316 318 317 316 310 312 313 312 312 313 315 314 314 312 313 310 311 311 312 309 309 312 313 312 312 313 312 311 312 317 314 320 324 320 333 338 336 336 335 334 335 338 341
317 316 316 318 317 315 310 312 312 312 313 312 312 312 312 312 310 310 311 311 311 312 308 309 309 313 310 310 310 310 310 310 312 313 319 325 335 333 335 334 333 332 334 336 342
316 311 315 317 312 306 308 310 312 310 311 310 310 310 311 309 310 310 311 310 311 309 309 308 305 308 310 309 309 310 311 308 317 317 313 322 330 330 331 332 332 330 331 335 339
316 315 315 316 310 307 310 310 311 310 308 309 309 308 306 307 310 310 311 312 313 309 308 308 304 305 312 309 308 310 310 308 306 307 312 326 328 329 329 330 331 331 328 329 333
315 310 314 314 310 308 310 310 311 311 310 310 309 308 308 307 305 309 309 310 311 315 313 308 302 303 308 310 308 311 311 310 308 311 311 313 323 326 325 327 326 329 329 327 326
315 310 310 308 309 307 308 310 311 311 309 309 309 308 308 309 308 308 308 308 309 309 309 304 307 308 308 309 310 310 309 309 312 310 314 313 328 323 325 321 320 321 326 325 326
317 315 312 309 309 308 306 310 311 310 309 309 309 309 307 308 308 310 308 308 308 307 306 304 311 308 308 309 308 312 314 314 318 320 317 321 320 322 320 318 316 316 318 322 324
317 316 313 308 307 307 308 310 311 310 311 310 308 308 308 309 309 309 309 308 308 307 304 304 305 303 307 307 307 307 311 319 317 316 318 321 317 318 319 316 315 314 314 315 318

GFSSW_850_thetae_093.txt.gz
Theta_e
308 308 308 308 308 308 307 306 305 306 307 309 308 307 307 308 309 309 310 310 311 317 323 324 323 325 344 348 345 346 352 353 352 354 353 349 350 349 350 350 351 348 345 343 342
309 309 309 309 308 307 307 306 305 305 308 309 308 307 307 308 309 310 313 311 311 317 323 323 322 324 328 340 346 347 352 351 349 349 350 349 348 350 351 350 349 348 346 342 342
308 308 307 307 306 305 305 306 305 305 308 309 307 307 307 308 311 324 318 312 312 318 323 322 321 324 326 333 341 347 351 347 350 349 349 348 349 348 351 352 349 348 345 343 342
304 304 304 305 305 305 305 305 305 306 309 309 307 307 308 309 324 321 316 311 314 318 320 321 321 325 329 335 339 341 340 346 349 349 348 346 348 348 349 351 349 347 343 341 341
304 304 304 305 305 304 304 305 305 307 310 309 307 308 308 310 314 320 315 312 321 320 320 321 322 327 329 333 336 340 338 338 347 349 347 348 350 346 349 351 348 346 343 342 342
305 304 304 305 306 305 305 305 305 308 311 309 308 309 309 312 320 320 312 314 320 320 321 320 321 325 327 331 336 335 337 337 347 349 347 349 350 350 350 350 348 345 343 343 345
308 306 305 307 308 307 306 305 305 310 311 310 309 310 309 313 321 320 315 315 321 321 321 320 320 323 327 332 333 334 335 337 340 347 350 349 350 350 351 351 348 347 346 346 346
311 309 306 307 309 307 305 307 311 313 312 310 312 317 314 316 322 320 318 317 317 318 318 320 322 324 327 329 328 329 328 332 347 346 348 351 353 350 352 352 349 349 348 347 347
313 312 308 307 309 306 312 315 315 313 311 314 322 320 324 323 323 321 320 321 321 318 317 318 318 323 324 331 332 330 337 328 349 347 351 352 353 352 352 351 350 348 348 347 347
313 313 310 308 308 312 314 319 316 311 312 315 316 319 320 321 322 321 321 322 320 318 318 317 318 325 328 332 341 336 329 329 339 350 352 352 352 352 352 352 350 349 348 347 347
313 313 311 309 311 315 315 315 314 316 315 316 319 319 318 316 316 320 320 324 319 320 321 318 323 328 332 332 331 329 330 330 328 342 352 347 347 350 352 352 352 350 349 348 347
314 313 310 310 314 316 315 315 315 314 315 314 314 316 317 316 315 316 319 323 325 323 322 321 325 327 329 329 328 330 331 330 327 332 343 332 336 348 350 352 353 352 350 349 348
314 314 309 311 315 316 316 315 315 314 313 313 314 315 315 316 316 317 320 324 327 324 323 323 327 327 329 330 331 330 332 329 328 325 343 347 348 352 350 352 352 352 351 349 349
314 314 309 314 316 316 316 316 316 315 316 316 315 315 315 314 316 317 319 325 325 325 326 327 328 329 329 331 331 334 328 328 328 327 327 341 333 349 350 351 352 352 351 350 349
312 309 311 315 316 316 316 316 315 314 316 316 315 314 314 316 318 316 319 319 326 327 327 328 328 330 331 331 329 331 327 328 327 327 325 336 329 335 351 350 344 349 351 350 348
315 315 314 313 316 316 316 316 315 316 317 317 315 314 314 313 315 315 316 317 317 322 322 318 317 321 326 324 327 325 324 322 322 325 327 325 325 340 340 340 342 341 342 349 349
316 316 316 316 316 316 316 316 318 319 317 318 317 315 314 314 316 315 316 316 318 324 325 317 317 316 316 321 322 325 325 327 327 327 327 321 333 344 341 340 339 341 341 342 344
317 317 317 317 316 316 316 317 320 317 317 316 316 316 316 315 315 315 316 317 316 315 317 320 319 317 316 317 321 325 326 327 329 327 326 322 338 343 337 337 338 339 339 340 341
317 316 316 317 316 316 316 317 316 315 314 315 316 317 317 316 316 316 314 315 315 314 319 318 318 315 315 316 316 321 324 320 324 321 326 325 332 335 335 336 337 336 337 339 344
317 317 316 317 316 315 316 315 315 313 313 314 317 316 317 316 316 315 315 313 314 312 312 316 318 315 315 315 316 319 316 324 324 328 328 334 338 340 338 338 335 334 336 338 341
317 317 316 318 316 315 316 314 314 312 312 314 314 315 314 315 314 314 313 312 312 314 313 314 317 317 316 315 315 318 320 320 323 323 328 332 340 334 336 335 333 330 331 335 337
316 318 315 316 315 310 314 312 311 312 311 312 313 312 313 312 313 313 313 314 312 310 313 312 315 316 315 313 312 314 315 316 327 327 324 331 337 333 332 331 333 329 328 330 333
316 315 315 316 316 314 312 312 311 312 311 312 312 311 310 312 313 313 313 312 314 314 311 311 312 317 316 315 314 315 313 314 315 318 327 329 334 329 328 326 326 329 328 327 328
315 317 314 313 309 313 313 313 313 311 310 311 311 311 312 312 312 313 313 311 311 314 312 311 311 312 317 316 314 315 312 313 316 322 322 324 333 331 325 323 322 325 327 327 327
314 312 311 315 313 311 312 312 313 313 310 311 313 311 312 313 313 313 312 312 311 310 310 312 312 312 312 311 311 311 311 312 316 316 321 329 331 327 323 321 319 320 322 324 325
316 315 311 309 309 312 311 313 313 312 311 312 312 311 312 313 313 313 312 312 312 311 312 311 313 312 312 311 312 315 316 314 317 321 325 329 327 321 319 319 320 319 320 320 320
316 313 313 309 310 311 312 312 313 311 311 310 311 312 312 311 310 309 308 308 310 312 312 312 313 312 312 311 312 312 316 319 320 321 324 329 322 320 318 316 316 316 316 316 317

GFSSW_850_thetae_096.txt.gz
Theta_e
309 309 309 309 308 308 307 307 307 305 306 307 309 308 307 307 308 309 310 312 310 316 326 336 334 340 346 348 349 350 356 354 355 355 355 350 352 352 353 350 351 349 347 343 341
307 307 307 307 307 307 306 306 306 305 306 308 309 308 307 307 308 310 311 310 310 317 332 329 330 336 340 345 348 351 353 353 350 351 353 350 351 352 353 353 352 350 344 342 341
304 304 304 305 305 305 305 305 306 305 306 309 308 307 307 308 315 321 318 312 310 318 332 326 327 328 327 336 346 349 353 349 351 350 350 349 349 350 352 354 351 351 346 342 342
304 304 304 305 305 305 305 305 305 305 307 310 307 307 307 309 324 327 318 314 311 323 328 327 326 326 327 330 343 349 346 346 350 350 349 348 347 348 351 353 351 351 345 342 341
307 305 305 305 306 306 306 305 305 305 308 310 308 307 308 315 319 321 316 311 316 327 325 325 325 325 328 333 344 345 343 341 346 349 348 348 348 349 352 351 350 347 343 342 341
311 308 306 306 307 308 307 305 305 305 310 310 308 309 312 317 320 316 323 319 323 324 323 323 323 325 326 334 344 344 343 340 344 346 348 349 348 348 353 350 348 344 343 342 342
313 312 308 306 308 308 306 305 305 307 311 310 309 310 316 316 325 321 327 324 323 322 322 322 322 324 326 334 338 339 340 337 341 345 347 349 352 351 354 351 348 344 342 342 343
313 313 311 306 308 307 306 309 310 312 311 310 311 311 316 317 327 323 323 323 321 320 321 320 321 326 328 334 337 340 338 342 342 344 347 350 354 350 351 351 349 343 342 343 346
313 313 313 307 308 309 313 315 314 314 312 313 322 325 321 321 324 322 321 320 319 319 320 320 321 327 330 334 342 340 344 340 345 343 349 352 354 351 353 352 353 348 344 345 347
314 313 313 308 310 314 317 317 311 310 313 317 318 325 323 323 324 323 324 322 321 319 320 319 323 328 332 335 341 343 342 336 344 347 351 352 353 353 352 353 352 352 350 348 347
314 314 313 309 315 315 316 315 317 324 322 321 322 321 321 320 322 324 322 324 321 319 323 320 325 327 330 333 337 340 338 337 340 348 350 349 347 353 353 352 352 351 351 350 348
314 314 311 310 316 315 316 318 317 316 318 317 318 319 319 319 320 324 323 324 320 321 323 321 325 327 331 334 336 337 336 335 332 342 345 334 336 341 351 350 353 352 351 350 349
314 314 309 313 315 316 316 316 316 315 318 316 317 318 318 319 320 323 324 325 323 323 323 323 324 328 333 335 335 338 337 334 334 333 336 340 347 351 348 350 352 353 352 351 349
311 309 311 315 316 316 318 316 316 315 319 317 318 317 317 318 319 320 323 326 327 324 324 324 327 330 334 335 334 335 336 333 331 331 341 342 343 347 351 353 353 353 352 352 350
315 312 312 315 316 318 317 316 316 315 319 318 318 316 316 318 318 320 322 323 327 325 325 327 330 332 333 334 334 335 333 334 331 332 331 337 339 348 349 349 348 353 353 352 353
316 316 314 314 316 316 316 316 315 320 320 319 316 317 317 320 319 318 320 321 325 327 326 329 329 332 333 333 332 331 332 332 331 331 332 337 337 346 347 347 347 346 347 352 351
317 317 317 316 318 316 316 317 322 321 319 318 318 318 320 321 321 321 322 323 326 328 327 326 327 323 323 331 331 330 330 332 333 331 331 331 332 348 343 343 343 345 345 346 348
317 316 317 317 316 316 317 322 322 320 320 319 318 317 319 320 320 320 321 324 321 323 328 324 326 324 321 325 330 329 330 331 333 331 330 329 338 346 340 340 341 340 341 343 346
317 317 317 317 316 316 319 322 321 320 318 319 318 317 318 319 319 320 321 322 319 320 325 325 322 319 319 321 323 330 330 328 329 330 330 333 343 340 339 340 340 337 338 341 346
317 319 318 318 316 317 321 319 319 317 317 319 319 320 318 319 319 320 320 318 319 318 319 322 323 320 319 320 321 325 327 328 328 331 332 331 341 346 341 339 338 335 335 337 340
318 320 317 317 317 320 321 319 317 316 316 319 319 319 319 319 319 319 317 317 317 318 319 321 323 321 320 322 324 324 327 327 328 329 331 334 340 338 338 336 335 332 332 334 336
319 321 317 317 319 319 320 318 313 316 316 317 318 319 318 318 319 319 319 318 315 315 319 319 322 322 321 317 317 321 325 327 329 331 330 332 345 334 333 332 332 331 330 330 332
319 318 317 317 319 318 317 315 315 315 316 317 317 317 317 318 318 317 317 314 315 317 318 318 320 322 320 319 319 321 320 323 325 328 330 330 344 331 329 330 330 330 330 328 328
318 319 317 316 316 318 318 317 316 313 314 315 316 316 318 318 318 318 316 314 315 314 313 315 319 321 322 322 321 320 318 319 324 328 329 330 338 331 330 329 328 329 329 329 329
317 317 315 319 318 317 317 316 316 315 313 314 316 316 318 319 319 318 316 315 314 313 315 318 320 318 318 316 316 317 317 316 321 325 328 335 336 332 328 327 326 328 328 327 327
318 317 314 316 316 317 314 316 315 314 314 315 316 315 316 318 318 318 317 318 317 315 316 316 320 318 317 314 315 316 317 317 318 322 328 333 330 326 324 324 324 324 325 325 324
314 314 317 313 315 314 316 315 315 314 313 314 315 316 316 315 314 314 314 314 315 316 316 316 317 317 318 314 315 315 317 318 320 323 328 334 330 324 324 324 323 322 321 320 320

GFSSW_850_thetae_099.txt.gz
Theta_e
307 307 307 308 308 308 308 307 307 307 306 307 308 309 308 308 308 309 314 317 315 317 329 335 339 337 342 346 346 352 358 357 354 356 358 352 354 354 355 351 351 352 345 343 344
304 304 305 305 305 306 306 306 306 306 305 307 308 308 308 308 308 316 317 314 311 316 329 335 334 337 342 344 346 351 356 355 351 352 355 352 353 354 354 353 352 351 345 343 344
306 305 304 304 305 305 305 305 305 306 305 307 309 308 307 308 319 322 318 311 311 317 334 331 330 337 338 341 346 351 354 351 352 351 351 352 353 351 354 355 352 347 344 343 344
310 307 305 305 305 306 306 305 305 305 305 308 309 307 307 310 329 332 320 315 311 318 333 328 328 331 331 335 344 350 349 349 350 349 351 351 350 350 353 352 351 348 344 343 344
313 311 307 305 306 308 308 307 305 305 305 309 309 307 308 321 324 323 319 316 311 328 331 328 328 328 329 331 340 348 346 345 350 350 350 348 346 350 353 352 352 351 344 343 342
313 313 311 307 306 308 308 306 306 305 306 310 308 308 311 322 324 322 321 313 322 330 328 327 327 327 328 331 342 345 344 344 347 350 349 349 348 350 354 352 352 349 343 343 342
314 314 313 309 306 308 306 305 305 305 309 310 308 309 321 321 327 326 324 320 324 327 326 325 325 326 328 333 340 345 347 342 345 348 350 350 351 353 353 351 349 346 344 342 341
314 314 314 310 307 308 309 312 310 309 311 310 310 313 322 320 325 326 325 323 324 325 324 323 323 325 328 333 340 345 345 345 344 345 349 351 356 355 352 352 347 345 343 342 342
314 314 314 310 308 311 314 315 314 313 311 312 318 323 324 323 325 325 324 323 323 324 323 323 322 325 328 335 339 345 346 344 345 345 349 351 355 352 351 352 347 345 343 343 344
313 314 314 308 310 315 318 314 310 312 315 320 327 328 326 323 324 324 323 321 322 322 323 322 323 327 331 336 340 345 344 343 346 345 351 353 352 353 350 352 349 345 344 344 346
315 314 313 309 315 315 315 320 323 325 322 326 321 324 321 323 324 323 324 324 321 322 325 322 325 327 330 331 335 340 341 341 345 346 350 352 353 354 355 353 353 349 345 345 346
314 314 310 313 315 315 317 321 319 319 321 322 321 323 322 324 324 323 323 326 325 323 325 324 325 326 329 332 335 340 340 340 345 348 351 350 348 351 352 352 352 353 350 349 348
312 311 309 315 315 316 319 318 318 318 320 318 320 321 321 321 323 324 323 324 323 324 325 326 325 327 330 332 336 341 339 338 340 347 341 339 349 350 349 350 353 352 352 351 349
312 310 312 315 316 318 320 318 318 318 322 320 320 320 320 321 323 324 324 326 324 323 325 326 326 328 331 335 336 337 337 337 338 340 345 342 352 355 350 355 354 353 352 352 350
315 313 314 316 318 320 320 318 317 318 324 320 320 319 320 321 321 323 324 326 329 325 326 326 326 328 333 335 333 335 337 337 335 337 345 345 348 351 348 352 355 353 353 352 351
316 316 313 316 317 319 318 318 318 321 323 320 319 319 320 320 321 323 324 324 327 328 326 327 326 331 333 334 333 335 335 337 336 335 339 347 345 350 353 349 353 352 353 352 352
317 317 317 317 321 318 319 320 322 323 322 320 318 319 319 321 322 322 323 324 329 329 328 330 330 332 330 334 334 335 336 337 337 335 336 341 345 352 346 346 346 347 347 351 352
317 317 319 318 319 319 321 324 326 325 322 321 320 319 321 323 322 323 324 325 327 329 328 329 332 329 331 333 334 334 334 334 335 333 332 334 347 348 344 342 341 341 342 345 349
317 320 321 320 318 319 322 325 325 322 321 320 320 319 322 321 323 323 324 325 325 326 328 328 327 326 326 329 328 333 333 331 332 333 332 340 347 343 343 344 341 339 339 342 348
318 322 322 319 319 320 324 321 322 320 320 320 319 319 320 321 321 321 322 323 324 323 324 327 327 325 325 325 326 328 331 332 331 335 333 342 347 347 344 342 339 336 336 339 345
319 321 321 319 319 321 324 323 321 319 319 321 322 320 320 320 320 322 322 321 321 323 323 325 327 325 324 326 328 328 330 331 331 332 334 339 348 343 343 338 339 334 333 335 338
319 323 320 318 322 321 323 322 316 320 319 321 321 320 320 320 321 321 321 321 318 320 324 324 325 326 325 324 324 326 328 330 331 333 332 333 346 338 338 336 335 333 331 331 332
322 319 318 318 323 320 320 319 318 319 320 321 321 321 321 320 320 321 321 318 318 320 323 322 323 327 325 323 323 325 327 328 329 330 333 333 348 337 335 335 333 332 331 330 329
320 323 318 317 318 320 319 319 318 315 317 318 320 321 321 322 322 321 320 318 318 317 313 318 322 324 325 325 324 324 325 326 328 330 331 334 342 338 336 336 332 332 332 332 331
318 319 320 321 319 319 319 318 318 318 316 317 319 320 322 323 322 322 320 318 318 315 319 321 322 322 323 321 322 323 323 322 324 327 329 340 340 338 337 335 333 332 331 331 331
322 320 316 318 318 319 315 319 317 316 318 317 319 318 319 321 322 322 321 321 321 320 321 321 322 322 322 320 319 320 320 321 321 323 327 339 337 333 332 333 333 331 330 329 328
317 316 319 315 318 318 319 318 316 315 316 316 317 318 319 319 318 319 319 320 320 321 321 321 321 323 322 321 320 320 321 321 321 322 325 338 334 331 331 331 330 329 328 327 325

GFSSW_850_thetae_102.txt.gz
Theta_e
305 304 305 305 306 306 307 307 307 307 307 306 306 308 309 308 308 308 310 316 318 317 319 326 329 334 339 343 348 352 356 358 356 358 359 355 355 355 354 350 351 351 345 344 344
308 306 305 304 305 305 305 306 306 306 307 306 306 308 308 308 307 310 315 316 316 315 324 331 336 339 338 342 346 353 355 356 352 354 356 353 351 354 354 352 352 344 344 344 344
312 310 307 305 305 305 306 306 305 305 306 306 307 309 307 307 314 320 324 315 314 313 330 335 337 336 340 341 344 352 356 353 353 352 352 353 355 354 354 354 350 345 344 344 343
312 313 310 307 306 307 307 307 306 306 306 306 308 308 307 308 334 330 324 318 312 315 333 335 333 334 341 342 342 351 350 351 352 352 352 353 352 354 353 353 346 344 344 344 343
312 313 313 310 307 307 308 308 306 306 306 306 309 308 307 321 322 329 323 315 312 318 334 333 330 332 336 334 336 348 348 351 349 351 351 351 350 353 354 352 348 345 344 344 342
314 314 314 313 308 306 308 307 306 306 306 307 310 307 308 325 326 325 319 317 313 324 335 331 329 330 331 331 334 344 346 348 351 350 349 348 349 348 353 352 352 346 344 343 342
314 314 314 314 309 307 307 307 306 306 306 310 309 308 322 323 327 327 323 317 318 328 332 330 329 329 328 331 333 344 346 345 350 349 350 348 352 352 353 353 352 347 344 342 341
313 314 314 314 308 308 311 313 312 308 310 310 309 311 325 321 324 327 324 320 323 329 329 327 327 326 327 330 336 342 346 348 351 351 350 349 356 350 352 353 351 345 343 342 341
315 314 314 314 308 312 315 313 313 313 311 310 312 318 327 323 325 326 324 323 324 327 326 325 325 325 327 330 337 344 347 346 347 349 351 352 357 349 349 353 348 345 343 342 342
315 314 314 309 311 315 317 312 311 311 312 318 328 326 327 325 324 326 325 324 325 326 325 324 324 325 327 332 337 342 345 346 347 350 352 354 354 350 348 352 348 345 343 343 343
314 314 313 309 315 315 315 323 323 326 324 326 326 327 327 324 325 325 324 323 323 325 326 325 324 325 327 330 336 339 342 345 345 353 353 352 353 349 348 354 347 345 344 344 345
312 312 308 314 315 315 317 324 320 321 322 323 323 323 324 324 325 324 325 324 322 324 325 325 324 326 327 330 331 334 340 344 351 351 351 352 351 349 349 350 351 346 345 346 346
311 309 309 314 314 315 319 321 318 319 320 322 321 323 324 325 326 324 324 326 326 324 324 327 325 326 327 329 331 333 338 340 356 347 344 348 351 346 346 343 348 348 346 347 347
315 311 312 315 317 320 321 319 318 319 323 322 320 321 322 322 323 324 323 325 325 326 324 326 327 326 327 329 332 335 340 340 350 347 353 349 359 351 351 352 351 351 351 349 348
316 314 313 316 318 321 322 318 319 319 327 321 321 321 321 322 323 325 323 325 328 324 325 325 327 326 328 330 332 336 337 339 338 341 348 349 351 353 350 352 353 352 353 352 349
317 316 315 318 319 320 319 319 318 321 326 321 321 321 322 322 323 325 324 325 327 329 325 327 326 328 329 332 334 335 336 338 337 336 345 347 348 356 353 353 353 353 353 352 351
317 317 317 317 322 320 319 320 321 322 324 322 321 320 321 321 323 324 325 326 328 330 329 327 327 328 329 332 334 333 337 340 339 338 337 345 347 355 350 346 347 350 349 350 352
317 317 319 321 321 321 321 325 329 327 323 323 321 320 319 321 323 323 325 325 326 329 329 327 331 329 331 333 334 334 337 339 339 337 335 345 355 353 348 344 344 345 346 349 352
318 319 322 323 322 321 322 329 327 325 325 321 321 320 319 325 325 323 324 325 325 328 330 329 330 331 331 332 334 334 336 335 335 334 334 350 352 348 345 344 341 341 342 345 349
317 320 324 321 320 321 325 322 327 322 321 321 321 321 323 325 325 324 324 326 326 326 326 328 331 330 328 329 329 331 332 334 335 337 337 352 352 354 348 344 340 338 338 340 343
314 322 323 320 319 320 327 324 322 320 320 322 324 322 322 322 322 322 324 324 324 324 325 326 329 328 327 327 328 330 330 332 332 334 335 352 353 345 346 342 339 336 334 336 339
319 323 323 319 322 323 325 322 319 321 320 321 323 324 322 322 322 322 323 323 321 322 324 326 326 329 327 326 326 327 329 331 334 336 335 347 350 341 341 339 337 334 332 333 336
323 323 319 319 324 323 321 320 320 320 321 321 322 321 320 322 322 322 322 320 319 321 322 324 326 327 327 326 326 327 328 329 330 332 336 341 349 339 338 337 336 335 332 331 334
322 323 320 318 320 321 320 320 319 317 319 320 322 321 321 322 321 321 321 320 319 319 315 321 322 325 327 327 326 326 327 328 329 331 331 345 344 339 337 336 334 335 333 332 331
322 321 321 323 321 320 320 319 318 318 316 318 320 321 321 322 322 322 321 320 319 316 320 321 322 322 324 325 323 325 325 326 327 328 333 343 343 339 336 336 334 334 333 332 331
322 322 316 319 319 321 315 320 318 317 319 318 318 319 320 322 323 324 323 322 321 321 321 322 323 322 324 323 322 322 324 323 323 324 339 340 341 337 335 334 333 332 331 331 330
320 317 320 316 319 319 321 319 318 317 317 317 318 318 318 321 320 320 321 321 322 322 322 322 323 323 323 322 322 322 322 322 322 323 328 340 338 335 335 333 332 331 330 329 328

GFSSW_850_thetae_105.txt.gz
Theta_e
310 308 306 305 305 306 306 306 307 307 307 307 306 306 307 309 308 308 310 312 313 318 319 325 318 325 329 338 345 351 355 357 357 357 358 355 356 354 353 347 346 345 345 345 347
312 312 309 306 305 305 306 306 306 306 306 307 306 307 308 308 308 309 312 312 315 317 317 328 325 329 331 336 341 349 351 351 352 354 357 355 354 354 353 351 350 345 345 344 346
309 313 313 309 306 306 306 307 307 306 306 306 306 307 308 307 310 316 316 313 315 316 316 332 330 335 338 338 341 346 351 345 345 352 353 352 355 355 353 349 344 345 344 343 346
310 312 313 313 309 306 307 308 308 307 306 306 306 308 307 307 333 332 326 319 313 314 316 332 335 337 335 336 341 355 350 350 354 352 352 354 353 354 351 349 345 344 342 343 345
313 314 314 314 312 307 306 308 307 306 306 306 307 309 307 317 313 325 323 321 316 312 320 333 335 334 333 337 338 348 348 351 352 352 352 353 353 353 349 348 344 344 343 343 344
313 314 314 314 314 308 307 307 306 306 306 305 309 308 307 321 327 327 324 317 313 314 329 335 336 331 332 333 329 343 351 351 352 352 350 353 353 350 352 351 344 344 344 343 343
313 313 314 314 314 307 307 309 310 306 306 307 310 308 313 315 325 327 322 317 313 316 333 335 333 329 330 327 329 344 347 350 350 349 349 349 350 352 353 352 347 344 344 343 342
314 315 314 314 312 308 311 313 313 308 308 311 309 308 315 322 322 326 325 318 317 319 333 332 330 329 326 327 328 331 345 354 350 348 349 349 356 350 350 352 350 347 344 343 342
314 315 314 314 308 311 315 311 313 312 311 309 312 313 326 323 321 326 326 320 320 327 330 330 327 325 325 324 325 331 338 350 354 349 349 350 353 349 348 351 349 348 344 342 343
313 314 314 309 311 314 316 312 311 311 310 312 326 325 323 326 324 325 325 322 324 326 328 326 324 322 321 322 326 333 338 352 355 352 351 353 354 348 348 350 348 347 343 342 342
309 312 310 311 314 314 315 319 323 320 318 321 323 324 327 327 324 326 326 325 325 326 324 325 321 320 321 323 326 331 338 346 349 352 352 352 352 347 348 350 350 347 343 342 342
313 308 308 314 314 315 318 319 322 320 322 322 321 325 324 324 325 325 324 324 323 323 324 323 322 322 323 324 327 328 333 353 355 353 350 353 352 349 349 350 349 349 343 343 343
315 311 309 313 313 317 316 320 318 318 318 319 322 323 323 324 325 324 324 324 321 322 323 323 323 324 323 324 325 327 328 350 354 347 351 349 351 349 347 348 348 348 348 343 344
316 312 311 315 319 319 320 321 318 319 318 323 321 321 323 324 325 325 324 325 324 322 321 321 324 324 323 324 324 325 335 348 347 348 354 347 352 348 347 347 344 344 350 347 345
316 316 312 314 314 319 320 319 318 318 324 322 320 321 322 322 323 324 324 324 324 324 324 322 322 324 323 325 325 327 345 347 344 345 349 348 351 351 347 348 347 345 347 347 345
317 317 317 317 320 322 321 320 319 318 325 321 321 321 321 322 321 325 324 323 324 325 325 322 324 324 324 325 326 331 332 342 345 347 356 351 349 354 352 349 346 343 341 345 348
317 317 317 317 318 321 321 321 320 321 325 321 319 320 319 320 321 325 325 322 323 326 327 325 323 324 325 327 328 331 331 334 340 352 349 345 347 351 348 341 340 339 341 350 349
317 318 318 320 321 322 322 325 330 327 326 324 322 320 319 320 320 323 323 322 324 324 326 324 324 325 327 327 328 332 328 335 346 338 333 338 353 354 345 345 344 344 347 349 351
312 316 319 321 322 321 323 327 328 326 324 324 321 320 318 324 325 324 322 322 324 324 327 328 325 326 328 329 331 332 331 329 334 331 332 352 353 349 345 344 343 345 346 345 347
310 311 316 324 324 322 324 327 326 325 324 320 322 322 324 324 324 323 324 325 326 324 325 328 326 329 330 330 330 329 327 328 328 334 336 352 354 354 346 344 340 340 340 342 344
312 317 323 323 319 320 325 325 325 324 320 323 323 324 323 323 323 324 324 324 324 322 321 325 325 328 327 328 329 328 326 328 327 330 331 352 350 347 343 339 338 336 336 339 342
315 321 323 323 319 322 324 324 322 320 320 322 322 323 323 323 322 322 324 322 320 320 322 323 323 329 327 325 326 326 325 327 328 329 336 347 349 341 339 336 334 333 335 338 341
318 323 322 318 319 323 324 320 319 319 320 321 322 321 320 322 323 323 323 321 319 320 320 320 322 324 327 324 325 325 325 325 323 324 330 335 348 340 338 336 334 332 333 336 337
319 326 319 317 319 321 320 320 319 317 318 319 321 321 322 322 322 322 322 320 319 318 316 321 319 325 324 325 325 324 324 325 325 325 341 346 344 339 337 335 334 332 332 333 334
323 323 318 323 320 319 320 319 318 318 316 317 320 320 320 323 322 324 323 319 319 318 320 318 321 320 321 324 325 321 322 324 325 329 337 341 341 339 336 334 334 333 332 331 333
323 320 318 319 319 319 317 319 318 317 319 319 317 319 319 324 323 323 322 322 320 320 320 320 321 321 321 322 322 321 321 323 323 338 340 340 339 334 335 334 333 332 331 329 327
320 320 322 320 319 319 320 319 317 317 317 317 318 320 319 318 318 319 321 321 320 322 322 322 323 323 321 323 322 320 322 321 321 321 339 341 337 334 333 333 333 331 329 328 327

GFSSW_850_thetae_108.txt.gz
Theta_e
310 312 312 308 306 305 305 306 306 307 307 307 307 307 306 308 309 309 310 312 314 318 321 324 322 319 324 328 345 350 353 352 351 354 356 353 351 348 347 345 344 344 345 345 347
309 309 313 313 308 306 306 306 306 306 306 306 307 306 307 308 309 310 312 311 313 317 317 323 320 322 326 330 335 349 348 350 348 350 354 354 352 349 347 345 345 344 346 348 347
311 309 312 313 313 308 306 307 308 307 307 306 306 306 307 308 309 320 318 313 312 317 317 320 323 327 327 332 338 344 347 347 343 345 346 354 353 351 347 351 344 346 348 348 348
313 313 313 313 313 311 307 307 308 307 307 306 306 306 308 307 331 331 327 316 314 316 316 322 329 330 334 336 338 347 349 350 353 353 351 353 353 351 350 349 343 345 346 348 347
312 313 314 314 313 313 308 307 308 306 306 306 306 308 308 310 311 323 324 322 314 315 315 323 329 333 333 333 335 350 350 349 352 352 353 353 352 350 347 344 344 344 346 347 347
314 314 313 314 313 313 307 307 307 306 306 306 306 309 307 313 327 326 326 321 319 312 314 324 334 335 334 331 331 335 352 353 352 352 353 353 350 349 346 346 344 343 344 346 346
313 314 314 314 314 311 307 309 312 308 305 306 309 309 308 311 328 327 324 322 315 313 317 335 335 335 332 325 328 351 352 346 351 350 352 350 350 350 351 347 343 342 343 345 346
313 314 314 314 313 308 311 314 312 311 306 309 309 308 309 315 320 324 325 318 314 313 328 334 334 333 331 325 328 344 349 356 352 347 351 346 353 350 351 348 344 343 344 342 346
309 313 313 313 308 311 315 310 312 312 310 309 312 312 314 322 320 324 326 316 314 316 328 332 329 329 324 322 321 324 346 351 349 348 348 348 352 349 351 351 348 345 344 343 346
312 309 311 308 311 314 315 316 311 311 310 310 320 321 321 324 322 325 326 320 321 326 324 325 326 319 317 318 322 325 338 351 355 351 349 349 349 349 351 350 346 346 345 344 345
315 310 307 312 313 314 315 317 324 322 315 314 321 320 323 325 325 325 326 322 323 324 324 324 319 320 320 319 321 323 332 352 353 349 352 350 349 350 350 347 344 346 348 344 345
315 313 309 312 314 315 317 318 319 320 318 319 320 319 321 325 324 325 326 324 322 322 322 319 320 320 320 321 321 322 328 348 352 347 349 350 350 348 349 348 345 346 347 343 345
315 315 310 312 313 314 317 319 318 319 317 318 319 320 322 323 324 325 325 323 322 321 322 320 322 323 322 321 321 320 324 348 354 350 348 349 352 349 348 346 346 345 347 345 345
316 316 312 316 318 320 320 320 320 319 312 317 320 322 322 323 324 324 324 323 321 320 319 320 323 323 322 322 320 319 323 345 348 349 349 347 353 348 348 349 348 348 347 347 343
317 317 317 315 314 316 320 321 320 317 321 321 321 321 323 323 323 324 324 324 323 322 319 320 321 320 322 322 321 322 344 346 344 346 346 348 350 342 347 351 348 347 346 346 344
315 317 317 317 319 321 320 321 320 313 320 321 320 319 320 321 321 322 324 324 324 322 321 321 323 320 320 322 322 340 343 342 343 343 349 348 348 352 348 347 348 346 346 347 345
311 315 317 317 319 320 321 321 317 317 324 323 319 318 317 318 319 323 322 320 320 323 322 323 325 321 321 322 323 329 336 336 345 345 344 342 350 347 345 344 345 345 346 346 344
313 312 316 319 320 320 320 319 327 326 324 323 322 319 317 317 317 322 321 320 319 320 321 323 324 322 323 322 323 328 327 333 342 341 342 339 350 355 341 341 340 340 339 343 342
313 312 313 320 321 321 321 321 322 325 323 323 319 318 315 322 322 321 320 319 320 320 321 324 326 324 326 325 324 326 331 327 333 330 341 352 352 347 344 342 345 344 345 345 346
310 310 314 321 323 323 318 322 323 323 323 321 320 321 321 320 322 322 322 322 321 320 319 324 324 323 326 327 327 327 326 328 326 333 337 350 353 353 348 347 343 341 342 342 339
311 316 321 320 323 322 317 320 323 323 324 320 321 320 320 321 321 322 324 322 319 318 319 321 320 322 326 325 326 326 325 324 323 324 328 347 350 346 345 341 338 338 341 343 344
313 316 323 323 319 315 314 321 322 317 320 320 320 321 320 321 323 322 323 323 323 319 320 320 318 323 324 323 322 324 325 322 325 327 334 340 351 338 337 336 336 337 339 341 341
315 318 322 323 314 313 319 320 317 316 316 318 320 320 320 320 321 322 322 323 322 318 316 317 316 323 323 319 322 320 323 321 318 320 337 341 349 337 334 333 334 335 337 340 339
318 320 321 317 317 316 317 316 316 316 317 317 318 318 320 320 319 321 322 320 319 317 317 320 315 321 323 322 320 322 320 321 319 328 340 342 346 340 336 333 332 334 336 337 337
323 322 318 316 315 315 315 316 316 315 316 316 315 317 317 320 320 322 321 319 318 318 319 317 320 321 321 320 320 321 320 319 323 327 329 341 341 339 335 332 332 333 334 335 335
321 321 321 318 316 314 314 314 315 315 315 315 316 316 318 319 320 321 320 318 319 317 318 314 320 321 321 321 320 320 319 322 337 338 338 338 339 334 334 333 332 331 333 332 333
318 320 322 322 318 314 314 315 316 316 315 318 317 315 315 315 318 319 320 319 318 318 317 317 318 319 322 320 319 318 319 318 325 337 337 339 335 334 334 333 332 330 328 329 329

GFSSW_850_thetae_111.txt.gz
Theta_e
309 308 310 312 311 307 306 306 306 306 306 306 307 307 307 307 308 309 310 311 314 321 320 322 321 320 321 328 344 350 351 352 352 355 353 348 348 347 345 344 343 344 343 343 343
313 310 309 312 313 311 307 306 307 307 307 306 306 307 307 307 308 309 311 311 313 320 320 321 320 319 322 328 340 348 346 351 348 351 351 349 349 347 344 344 344 343 343 344 344
312 313 312 312 313 313 309 306 307 308 307 307 306 306 307 308 309 318 316 311 312 318 319 323 319 321 324 330 333 346 346 347 347 350 350 350 350 346 344 346 344 344 345 345 346
314 312 312 313 313 313 312 307 307 308 307 306 306 306 307 308 318 329 324 316 312 316 317 319 325 324 328 333 335 345 344 346 351 347 346 351 348 347 346 344 345 345 345 345 347
312 314 313 313 313 313 313 307 307 307 306 306 306 306 308 308 313 325 323 313 312 316 316 318 325 329 332 332 339 344 348 350 352 349 349 352 351 350 346 344 346 347 347 346 348
312 313 314 313 313 313 311 307 307 309 306 306 306 307 308 309 321 322 324 319 314 315 316 319 328 330 333 331 331 335 350 352 352 353 352 350 349 347 347 347 347 347 347 347 347
309 313 314 314 313 313 308 309 311 311 306 305 306 309 308 310 327 326 322 322 319 314 315 322 333 335 333 329 327 348 349 351 352 352 351 349 351 347 346 345 346 347 347 347 346
311 311 313 313 312 308 311 313 310 311 306 306 309 309 308 311 325 324 324 319 317 315 313 318 328 331 332 330 340 347 346 353 351 349 349 346 353 348 346 347 346 347 347 347 346
314 308 310 309 308 312 314 310 312 311 310 309 309 310 311 317 320 321 325 318 316 314 312 326 327 328 324 320 319 321 343 349 348 349 350 347 350 347 348 346 344 343 345 346 345
314 311 307 310 312 314 315 317 316 313 309 309 313 321 317 324 320 322 325 317 315 315 319 323 324 318 315 317 321 325 340 348 350 348 350 349 348 349 349 346 344 345 342 345 346
315 313 309 311 312 313 315 316 321 322 318 313 318 319 323 323 322 323 326 319 320 323 322 323 318 319 320 319 320 322 323 340 352 349 351 350 349 350 349 346 346 346 345 346 346
315 315 310 311 313 315 316 316 317 320 319 319 319 318 320 320 323 324 325 321 321 321 321 319 320 319 320 319 321 321 323 349 350 348 350 350 351 348 348 347 347 345 346 345 346
315 316 313 314 316 316 317 319 320 320 317 317 318 319 321 323 323 324 324 324 320 321 321 321 322 321 321 321 322 320 321 333 352 350 348 350 352 350 347 346 345 343 346 344 344
315 316 316 315 316 319 319 319 320 319 311 316 319 321 321 322 323 324 325 323 320 320 319 320 321 323 322 322 320 320 319 326 351 348 351 346 352 350 348 347 345 344 346 346 344
312 316 317 317 316 317 319 320 321 317 320 320 320 321 322 323 323 324 324 323 322 319 317 319 320 320 321 321 319 320 327 325 346 343 343 348 348 340 347 349 347 343 341 346 344
311 313 316 317 318 319 320 321 320 313 322 322 320 318 320 320 320 323 323 323 322 322 320 320 322 321 319 320 319 339 341 339 338 340 345 345 347 347 350 348 345 344 344 345 344
312 312 315 317 319 319 319 321 316 316 320 322 321 317 318 319 319 321 321 321 319 320 320 321 323 322 321 320 324 339 334 339 345 343 343 342 348 346 344 344 346 346 344 345 345
313 313 313 316 318 318 320 318 324 324 323 321 321 317 317 316 317 320 319 320 318 320 318 321 323 321 320 320 319 337 329 334 341 343 340 343 348 348 342 342 345 346 345 345 346
313 311 313 317 318 321 321 320 320 323 322 322 318 318 318 320 320 321 320 320 319 319 320 320 323 323 322 322 322 326 328 325 330 329 339 346 350 346 343 343 343 344 344 345 345
309 310 313 317 319 322 318 320 320 321 322 321 320 319 320 320 321 321 322 322 320 318 317 321 323 322 323 325 325 323 323 327 323 332 336 346 350 353 345 344 342 341 343 341 341
311 318 317 318 319 322 318 317 320 322 323 319 320 319 319 321 321 321 323 322 319 318 318 319 319 322 323 323 325 325 324 320 320 323 333 344 346 343 344 340 340 340 342 341 341
314 314 321 321 319 312 313 317 320 315 321 319 319 319 320 320 321 321 322 321 322 318 318 317 316 322 324 321 319 323 324 321 324 327 336 337 347 339 340 338 338 340 342 342 341
317 317 321 321 316 313 313 318 315 315 315 318 319 319 318 319 320 321 321 322 321 318 316 315 315 322 323 321 318 319 318 318 316 324 335 339 346 337 336 336 337 338 341 340 342
320 316 318 318 315 313 318 316 315 315 314 315 317 317 319 318 316 320 320 320 320 316 318 317 313 320 322 319 317 319 321 319 318 330 337 341 346 340 335 334 335 338 339 338 339
322 319 318 315 313 312 313 314 314 315 314 314 316 317 317 319 319 320 320 318 316 317 318 314 317 318 322 319 319 319 319 319 319 324 330 340 342 339 335 334 335 336 337 336 334
320 319 321 318 315 313 309 313 314 313 313 315 314 314 314 318 319 320 319 318 318 316 317 311 317 320 322 325 319 318 318 319 336 338 338 339 339 334 333 333 334 335 335 335 334
318 321 322 319 314 311 312 313 316 313 316 316 315 314 314 314 314 318 319 318 316 317 316 316 315 317 320 322 320 320 318 316 333 335 337 339 336 333 332 332 332 333 333 333 332

GFSSW_850_thetae_114.txt.gz
Theta_e
313 312 309 309 312 312 308 306 306 307 307 307 307 307 307 307 307 308 309 311 312 317 320 322 320 318 331 343 345 348 349 354 354 353 351 346 347 346 345 343 343 344 343 343 340
312 312 312 311 312 312 311 307 306 307 307 307 307 306 307 307 307 309 310 311 312 320 320 322 321 319 322 326 339 348 346 351 348 348 348 350 347 344 344 344 343 342 342 341 334
313 313 312 312 312 313 313 309 306 307 308 308 307 306 307 307 308 313 314 311 315 321 320 321 321 321 325 328 332 347 346 348 348 348 347 350 348 343 345 346 341 344 342 339 340
311 312 313 312 313 313 313 311 307 307 307 306 307 306 306 307 312 327 321 311 315 320 322 323 319 324 328 330 332 346 344 345 345 350 347 349 346 345 345 345 342 341 341 342 344
309 313 313 314 313 313 313 311 307 307 307 306 306 306 307 308 313 325 322 314 312 317 318 322 320 328 329 332 336 342 342 347 351 350 348 348 348 347 343 344 343 343 344 345 346
310 312 313 314 313 313 312 307 308 309 309 306 305 306 307 308 315 323 323 314 312 315 316 320 323 331 332 332 333 336 347 352 350 347 350 349 348 344 345 346 345 344 344 345 346
313 308 312 313 313 312 308 310 311 311 308 305 305 307 309 309 326 325 323 315 312 316 316 320 328 332 332 330 339 348 350 352 351 350 349 347 352 347 347 346 347 345 345 346 347
314 311 308 311 308 309 313 310 310 311 306 305 307 309 309 310 326 325 320 315 314 315 315 323 330 332 332 329 339 347 344 352 351 349 349 347 354 348 347 347 347 347 346 346 347
314 313 308 308 310 313 314 315 311 310 309 309 308 309 311 313 324 322 321 318 316 315 318 319 322 329 324 319 323 327 345 349 351 348 348 347 349 346 347 347 347 347 347 347 347
315 314 309 311 312 314 315 315 320 316 309 309 310 319 319 322 321 320 319 318 316 315 313 317 323 317 314 318 322 328 340 344 346 348 349 349 348 346 347 346 347 346 347 346 346
315 314 310 311 312 313 315 315 319 320 319 318 315 317 321 322 320 319 321 316 314 316 320 321 318 320 319 319 319 321 322 327 352 348 350 349 349 347 347 345 344 345 345 345 346
313 315 314 312 312 314 315 316 319 318 317 319 319 318 318 319 322 322 323 319 320 320 320 317 318 317 318 319 320 321 322 345 350 348 348 350 351 347 347 345 344 345 344 344 345
312 315 316 315 315 316 318 319 318 318 316 317 317 318 319 321 323 323 325 322 319 320 320 320 322 318 320 320 320 320 319 343 350 349 348 351 352 350 347 346 344 345 345 345 346
311 314 316 316 316 317 317 319 318 319 311 316 317 320 321 322 323 324 324 324 319 319 318 321 321 321 321 322 319 320 318 329 349 344 348 344 351 349 349 348 346 345 345 344 345
311 312 315 316 316 317 318 318 320 317 318 320 319 320 321 323 323 323 324 323 319 319 318 320 319 321 321 321 318 320 328 328 347 341 341 343 342 341 347 350 347 345 344 344 345
312 312 312 315 317 318 318 319 319 313 322 322 319 318 320 320 319 322 322 323 322 320 319 319 320 319 319 319 319 338 338 336 334 337 341 340 340 343 350 348 347 345 343 342 345
312 313 313 313 317 317 318 321 315 318 319 321 320 317 319 319 319 321 321 319 319 319 320 321 321 321 320 320 325 334 335 339 342 343 343 336 345 341 342 343 345 344 343 342 344
313 313 313 313 316 317 320 318 322 323 322 320 318 314 317 316 317 318 319 318 318 317 317 320 322 321 319 320 321 333 331 335 340 341 339 342 346 344 342 342 344 344 341 342 345
312 311 311 313 317 319 321 318 319 321 321 321 317 318 318 319 320 320 318 317 319 316 319 319 322 321 320 319 324 332 334 326 329 327 340 342 347 345 342 344 344 344 342 343 343
310 309 311 314 318 321 317 319 320 319 321 319 320 318 320 319 321 320 321 321 318 317 316 319 322 321 321 323 323 325 324 327 323 332 334 345 347 345 347 346 345 345 345 344 342
311 317 316 313 318 322 317 316 319 320 322 318 319 319 318 320 320 321 321 321 319 319 316 316 318 321 321 322 323 323 323 319 320 323 332 340 342 343 343 342 341 341 343 345 344
314 315 318 316 317 310 314 316 318 315 321 318 318 318 319 319 320 320 321 320 321 318 317 316 315 321 323 320 317 319 322 319 323 327 331 333 338 338 341 339 339 339 341 340 342
317 317 319 318 317 313 312 317 313 313 313 318 319 318 317 318 319 319 320 321 321 317 314 315 315 320 321 320 317 317 318 316 315 325 335 332 335 337 338 338 339 340 340 341 340
320 313 316 317 314 312 317 315 313 315 314 314 315 316 317 317 316 319 319 318 318 317 320 316 314 319 321 320 316 319 317 318 317 325 332 332 341 340 337 335 336 340 338 338 337
320 316 316 315 313 310 312 313 314 314 314 314 314 314 317 318 318 320 319 317 316 316 315 312 318 319 319 318 318 318 317 318 318 321 328 332 338 339 335 333 337 338 336 338 338
320 318 320 317 316 311 308 312 313 312 315 315 313 313 313 317 318 319 317 316 317 316 315 310 317 318 321 322 320 318 317 320 335 336 336 336 338 333 332 334 336 337 336 335 335
319 322 320 316 309 310 310 313 314 314 315 315 315 313 313 313 313 314 317 315 312 315 315 314 316 316 320 318 320 322 317 318 324 335 336 337 333 332 331 334 336 336 335 334 333

GFSSW_850_thetae_117.txt.gz
Theta_e
312 312 312 310 309 312 312 308 307 307 307 307 307 307 307 307 307 308 309 311 311 320 323 320 319 328 339 342 348 345 353 356 354 353 351 347 346 345 345 343 343 345 343 343 343
312 312 313 312 311 312 312 310 307 307 307 308 308 307 307 307 307 309 310 310 310 317 323 322 319 321 326 331 341 349 351 353 349 349 349 347 347 345 343 344 345 345 344 344 342
310 311 312 313 312 312 312 312 308 307 307 308 307 307 307 307 308 310 312 311 311 317 320 322 319 321 327 329 338 349 349 349 348 348 347 347 345 344 344 346 344 344 345 345 343
310 311 313 313 313 312 312 312 309 307 307 307 307 306 307 307 314 325 316 311 312 320 320 321 320 324 331 337 335 346 345 347 348 349 348 347 343 343 346 346 342 343 343 343 341
312 309 312 313 313 313 312 313 308 307 307 307 306 306 306 308 311 322 317 310 319 320 321 322 321 328 336 333 335 340 341 345 348 350 348 347 345 345 344 344 343 344 344 344 344
313 311 310 312 313 313 312 308 307 308 309 307 306 306 307 309 314 322 321 310 319 322 323 320 322 331 334 334 339 338 346 351 350 350 348 348 345 344 343 345 345 345 345 346 347
313 312 307 311 311 308 308 311 310 310 309 306 306 306 307 309 322 325 318 313 317 318 318 321 323 332 333 331 338 347 352 352 350 350 349 345 348 347 345 346 346 346 347 347 347
314 313 308 308 308 312 312 310 311 310 306 305 306 308 309 309 324 323 316 311 312 314 316 320 325 332 333 329 341 350 351 358 352 350 349 348 349 344 346 347 346 347 347 347 347
314 313 308 310 311 313 315 317 311 310 309 309 309 308 311 311 324 320 316 311 312 316 315 319 326 330 325 330 345 342 353 353 356 350 349 349 353 347 346 346 347 346 347 347 348
314 314 310 310 312 313 314 315 319 317 310 309 309 317 319 317 321 320 318 317 316 315 316 319 323 330 324 326 341 348 340 345 351 352 350 351 351 349 348 346 346 347 347 347 347
313 314 313 311 312 314 314 315 318 318 318 318 315 316 319 322 320 318 320 316 315 316 322 322 331 335 331 325 326 328 327 337 351 350 352 352 351 350 348 347 346 345 345 348 347
311 313 315 314 314 315 316 317 318 318 319 318 319 319 318 319 321 318 317 317 315 317 322 326 334 328 324 323 324 325 326 352 352 350 351 352 352 350 348 348 347 347 344 346 346
311 312 314 315 314 316 317 318 317 317 318 317 317 318 319 319 322 321 319 318 317 324 325 331 329 321 323 323 325 325 326 348 350 352 350 352 355 352 348 347 346 346 345 344 346
311 311 313 315 316 316 317 318 318 318 319 319 319 320 320 322 323 323 320 321 321 325 324 329 322 322 323 324 324 327 323 335 351 349 349 349 353 353 350 350 346 345 344 343 346
311 312 312 314 315 316 318 317 319 316 321 322 320 320 321 322 323 323 324 322 323 323 324 325 323 324 325 325 324 326 325 330 340 347 346 351 349 348 349 353 350 346 345 344 344
312 312 312 313 315 317 318 318 317 319 323 322 318 320 322 321 322 321 323 322 320 323 322 323 320 322 324 323 323 337 335 340 343 345 341 342 345 349 353 353 350 347 346 345 344
312 312 313 313 315 315 317 320 321 323 321 323 322 320 322 320 322 324 324 323 323 324 325 324 324 323 322 324 326 341 338 346 348 347 342 342 347 344 346 346 349 348 346 346 344
312 313 313 312 314 316 320 323 324 324 323 322 318 319 322 320 320 321 323 323 320 322 323 323 321 323 323 325 325 336 334 333 338 343 340 346 349 346 344 343 344 347 346 345 344
310 311 310 311 316 318 320 323 323 323 322 323 320 321 322 322 322 322 322 324 322 322 324 325 326 323 323 322 326 332 334 331 337 337 342 347 346 347 344 346 345 347 346 345 345
312 310 311 315 318 321 322 320 323 320 322 320 322 321 323 323 323 323 323 322 320 319 318 324 326 324 325 324 324 331 330 329 334 342 340 349 350 348 348 348 347 346 345 344 345
312 317 313 319 321 321 322 320 320 319 321 321 321 321 321 323 323 323 323 322 320 320 319 322 325 327 325 327 328 327 330 329 331 333 336 343 348 347 347 345 348 345 344 344 345
316 320 315 317 320 314 319 317 316 317 317 320 320 320 321 321 322 323 323 322 321 320 321 320 325 327 327 323 321 323 326 329 333 335 337 340 341 341 343 343 343 344 345 345 344
318 318 316 318 322 322 316 317 314 316 315 319 320 320 319 321 323 322 322 321 320 318 320 321 323 324 326 324 322 323 322 322 325 335 340 335 338 340 342 341 340 341 343 345 345
318 320 317 318 313 316 319 316 316 314 315 316 318 318 320 322 321 322 322 320 318 321 319 320 322 326 323 326 322 323 322 322 324 333 336 336 343 343 343 343 339 341 342 340 341
319 319 316 320 318 314 315 314 316 316 316 316 318 317 320 322 322 322 321 319 317 318 317 321 326 323 322 321 321 321 323 332 326 326 334 337 342 343 342 341 339 341 340 338 339
320 320 318 317 315 314 313 316 316 315 318 318 317 315 319 320 320 322 320 320 320 320 319 318 324 323 325 323 324 322 322 328 332 333 335 336 340 338 340 339 339 339 337 338 336
320 322 318 313 313 316 315 316 316 317 316 316 316 317 317 315 314 314 316 316 314 319 322 322 323 324 325 323 325 325 323 324 333 337 338 339 338 338 339 338 338 337 337 337 335

GFSSW_850_thetae_120.txt.gz
Theta_e
311 312 313 312 310 310 312 311 308 307 308 308 308 308 308 308 308 308 309 312 311 319 322 328 327 340 348 347 350 348 356 357 356 354 354 348 347 347 347 346 344 345 342 345 346
310 311 312 313 312 312 312 312 310 307 308 308 308 308 308 308 308 309 309 310 311 319 325 325 325 338 342 345 347 351 355 353 350 351 351 349 347 347 346 347 346 343 344 345 344
311 310 313 313 313 312 312 312 312 308 307 308 308 308 307 308 311 313 311 309 310 319 327 324 323 332 338 341 347 349 353 346 345 348 349 346 346 346 346 347 345 345 345 344 344
313 309 312 313 313 313 312 312 312 308 307 308 307 308 307 307 318 325 319 310 311 319 326 324 323 326 338 345 343 350 347 348 346 349 349 348 346 347 347 346 344 343 343 343 342
313 312 308 312 313 313 313 312 311 307 307 308 307 307 307 314 315 324 313 310 311 322 323 324 323 325 338 343 343 347 348 348 349 349 349 346 345 346 346 343 343 342 343 343 340
313 313 308 311 313 313 312 309 307 309 309 308 306 306 311 315 314 319 316 314 322 322 322 323 323 328 340 341 343 341 343 347 350 348 349 347 346 341 345 342 343 343 343 343 343
314 313 308 308 308 308 310 311 310 309 310 306 306 306 316 313 319 325 321 322 322 322 323 323 324 335 339 340 335 338 349 350 351 350 349 345 346 346 344 343 344 344 344 344 345
314 313 309 310 311 313 316 311 311 309 306 305 305 307 315 309 323 324 320 322 321 318 321 322 326 335 337 336 344 345 348 355 353 350 346 346 353 346 346 344 344 345 345 346 347
313 314 310 310 313 315 315 317 313 309 309 308 310 314 314 314 324 318 317 317 318 316 317 318 326 335 334 339 346 347 350 353 356 351 350 347 350 346 347 346 347 347 346 347 347
312 314 312 311 312 314 314 316 319 316 313 309 310 320 316 320 322 318 316 314 316 317 317 320 327 335 336 338 349 347 348 351 355 355 353 353 353 347 348 348 347 347 348 347 348
311 313 314 313 312 314 315 316 323 324 319 322 317 320 322 322 322 320 318 318 317 318 321 322 330 336 337 335 335 344 343 346 351 352 353 353 352 350 348 346 345 346 346 347 347
311 312 314 315 314 315 316 319 320 319 322 321 321 320 321 322 322 321 318 319 318 320 322 327 331 333 337 331 332 338 338 347 351 352 353 351 353 353 350 345 342 345 344 347 347
311 311 313 315 314 316 318 319 317 318 322 320 321 322 322 321 322 321 319 319 319 321 325 324 328 333 330 330 333 333 335 347 347 351 351 353 356 355 352 349 344 344 344 345 348
311 312 312 314 316 316 318 318 317 318 323 321 322 322 322 322 322 322 319 318 318 321 324 326 328 331 332 333 333 337 330 342 349 349 352 351 359 356 354 353 347 346 343 343 345
312 312 312 312 314 317 318 318 318 317 323 323 323 322 324 325 324 323 321 323 322 325 327 330 329 329 330 330 330 334 328 332 338 338 341 348 347 352 353 355 352 349 345 345 344
312 312 312 313 314 316 318 317 318 322 325 323 321 324 325 324 324 323 324 324 323 326 327 327 327 327 328 329 328 330 330 334 337 337 339 339 344 354 354 353 352 349 348 346 345
312 312 313 312 318 316 316 319 326 325 323 323 323 324 325 326 325 325 326 324 325 326 328 326 326 326 325 326 326 331 334 339 339 340 338 340 343 343 348 348 348 351 349 347 346
312 312 313 312 314 315 318 326 325 324 324 324 322 325 325 324 326 326 325 324 324 324 325 327 327 325 325 326 327 332 335 337 340 340 339 344 343 344 345 346 348 349 349 348 348
311 311 311 312 315 316 323 325 325 324 324 323 322 325 325 324 324 325 326 325 324 325 326 325 324 324 324 325 327 328 332 333 334 336 339 345 342 350 347 347 347 348 349 349 349
312 315 315 314 317 320 326 322 324 323 324 323 323 324 325 325 324 326 325 325 325 324 325 326 327 326 324 326 326 328 330 330 332 339 339 342 343 343 352 349 349 349 350 349 348
314 318 316 319 321 324 324 323 322 322 322 324 324 324 324 324 325 325 325 325 323 324 324 327 327 328 328 327 327 327 329 330 329 331 336 338 341 348 349 348 350 349 349 349 349
319 321 318 318 323 322 322 321 317 321 321 323 323 324 325 325 325 325 325 325 323 324 325 327 327 329 328 327 327 329 327 329 331 334 335 336 344 346 348 346 348 348 349 349 348
321 320 317 319 323 322 321 319 319 320 321 322 322 323 323 324 326 326 326 323 321 323 326 327 327 329 328 327 327 328 328 328 330 331 333 333 333 346 346 346 347 348 348 348 347
322 322 321 321 321 323 321 319 319 318 320 321 322 322 323 324 324 326 325 322 321 323 318 322 326 327 327 329 328 328 327 327 328 330 330 333 335 347 348 347 346 346 346 347 348
323 323 321 323 323 322 322 319 318 317 320 320 322 322 322 323 324 324 324 323 321 319 322 324 327 327 325 325 324 326 327 328 330 328 330 330 333 334 346 347 345 344 344 345 346
325 324 322 322 320 322 316 320 319 318 319 319 320 320 321 322 323 324 324 323 323 322 322 322 325 326 326 325 325 325 325 328 330 331 332 332 335 341 344 345 343 344 343 344 343
323 321 323 317 320 321 321 320 320 319 319 319 319 319 319 318 318 319 320 321 321 324 323 324 324 326 326 326 326 327 326 327 331 335 335 336 342 342 345 343 342 342 342 342 342